<?xml version="1.0" encoding="UTF-8" standalone="no" ?>
<gpx xmlns="http://www.topografix.com/GPX/1/1" xmlns:xsi="http://www.w3.org/2001/XMLSchema-instance" xsi:schemaLocation="http://www.topografix.com/GPX/1/1 http://www.topografix.com/GPX/1/1/gpx.xsd" version="1.1" creator="VisuGPX - https://www.visugpx.com">
  <metadata>
    <name>autour d'arreau</name>
  </metadata>
  <trk>
    <name><![CDATA[autour d'arreau_1]]></name>
    <trkseg>
      <trkpt lat="42.91414" lon="0.35867">
        <ele>753</ele>
        <time>2020-11-11T13:12:03.000Z</time>
      </trkpt>
      <trkpt lat="42.91415" lon="0.35867">
        <ele>753</ele>
        <time>2020-11-11T13:12:04.000Z</time>
      </trkpt>
      <trkpt lat="42.91418" lon="0.35866">
        <ele>753</ele>
        <time>2020-11-11T13:12:05.000Z</time>
      </trkpt>
      <trkpt lat="42.91418" lon="0.35864">
        <ele>753</ele>
        <time>2020-11-11T13:12:06.000Z</time>
      </trkpt>
      <trkpt lat="42.91417" lon="0.35864">
        <ele>753</ele>
        <time>2020-11-11T13:12:07.000Z</time>
      </trkpt>
      <trkpt lat="42.91417" lon="0.35863">
        <ele>753</ele>
        <time>2020-11-11T13:12:08.000Z</time>
      </trkpt>
      <trkpt lat="42.91417" lon="0.35864">
        <ele>753</ele>
        <time>2020-11-11T13:12:09.000Z</time>
      </trkpt>
      <trkpt lat="42.91419" lon="0.35865">
        <ele>753</ele>
        <time>2020-11-11T13:12:10.000Z</time>
      </trkpt>
      <trkpt lat="42.91422" lon="0.35867">
        <ele>753</ele>
        <time>2020-11-11T13:12:11.000Z</time>
      </trkpt>
      <trkpt lat="42.91426" lon="0.35869">
        <ele>753</ele>
        <time>2020-11-11T13:12:12.000Z</time>
      </trkpt>
      <trkpt lat="42.91435" lon="0.35875">
        <ele>753</ele>
        <time>2020-11-11T13:12:14.000Z</time>
      </trkpt>
      <trkpt lat="42.9144" lon="0.35877">
        <ele>753</ele>
        <time>2020-11-11T13:12:15.000Z</time>
      </trkpt>
      <trkpt lat="42.91444" lon="0.35879">
        <ele>754</ele>
        <time>2020-11-11T13:12:16.000Z</time>
      </trkpt>
      <trkpt lat="42.91447" lon="0.35881">
        <ele>754</ele>
        <time>2020-11-11T13:12:17.000Z</time>
      </trkpt>
      <trkpt lat="42.91451" lon="0.35882">
        <ele>754</ele>
        <time>2020-11-11T13:12:18.000Z</time>
      </trkpt>
      <trkpt lat="42.91455" lon="0.35883">
        <ele>754</ele>
        <time>2020-11-11T13:12:19.000Z</time>
      </trkpt>
      <trkpt lat="42.91459" lon="0.35884">
        <ele>754</ele>
        <time>2020-11-11T13:12:20.000Z</time>
      </trkpt>
      <trkpt lat="42.91463" lon="0.35884">
        <ele>754</ele>
        <time>2020-11-11T13:12:21.000Z</time>
      </trkpt>
      <trkpt lat="42.91467" lon="0.35884">
        <ele>754</ele>
        <time>2020-11-11T13:12:22.000Z</time>
      </trkpt>
      <trkpt lat="42.9147" lon="0.35884">
        <ele>754</ele>
        <time>2020-11-11T13:12:23.000Z</time>
      </trkpt>
      <trkpt lat="42.91474" lon="0.35883">
        <ele>754</ele>
        <time>2020-11-11T13:12:24.000Z</time>
      </trkpt>
      <trkpt lat="42.91477" lon="0.35881">
        <ele>755</ele>
        <time>2020-11-11T13:12:25.000Z</time>
      </trkpt>
      <trkpt lat="42.9148" lon="0.35879">
        <ele>755</ele>
        <time>2020-11-11T13:12:26.000Z</time>
      </trkpt>
      <trkpt lat="42.91483" lon="0.35876">
        <ele>755</ele>
        <time>2020-11-11T13:12:27.000Z</time>
      </trkpt>
      <trkpt lat="42.91485" lon="0.35874">
        <ele>755</ele>
        <time>2020-11-11T13:12:28.000Z</time>
      </trkpt>
      <trkpt lat="42.91486" lon="0.35871">
        <ele>756</ele>
        <time>2020-11-11T13:12:29.000Z</time>
      </trkpt>
      <trkpt lat="42.91487" lon="0.35868">
        <ele>756</ele>
        <time>2020-11-11T13:12:30.000Z</time>
      </trkpt>
      <trkpt lat="42.91488" lon="0.35864">
        <ele>756</ele>
        <time>2020-11-11T13:12:31.000Z</time>
      </trkpt>
      <trkpt lat="42.91489" lon="0.35861">
        <ele>756</ele>
        <time>2020-11-11T13:12:32.000Z</time>
      </trkpt>
      <trkpt lat="42.91489" lon="0.35857">
        <ele>756</ele>
        <time>2020-11-11T13:12:33.000Z</time>
      </trkpt>
      <trkpt lat="42.9149" lon="0.35853">
        <ele>757</ele>
        <time>2020-11-11T13:12:34.000Z</time>
      </trkpt>
      <trkpt lat="42.9149" lon="0.35849">
        <ele>757</ele>
        <time>2020-11-11T13:12:35.000Z</time>
      </trkpt>
      <trkpt lat="42.9149" lon="0.35845">
        <ele>757</ele>
        <time>2020-11-11T13:12:36.000Z</time>
      </trkpt>
      <trkpt lat="42.91491" lon="0.35841">
        <ele>757</ele>
        <time>2020-11-11T13:12:37.000Z</time>
      </trkpt>
      <trkpt lat="42.91491" lon="0.35838">
        <ele>758</ele>
        <time>2020-11-11T13:12:38.000Z</time>
      </trkpt>
      <trkpt lat="42.91492" lon="0.35834">
        <ele>758</ele>
        <time>2020-11-11T13:12:39.000Z</time>
      </trkpt>
      <trkpt lat="42.91493" lon="0.3583">
        <ele>758</ele>
        <time>2020-11-11T13:12:40.000Z</time>
      </trkpt>
      <trkpt lat="42.91494" lon="0.35826">
        <ele>758</ele>
        <time>2020-11-11T13:12:41.000Z</time>
      </trkpt>
      <trkpt lat="42.91495" lon="0.35821">
        <ele>759</ele>
        <time>2020-11-11T13:12:42.000Z</time>
      </trkpt>
      <trkpt lat="42.91496" lon="0.35816">
        <ele>759</ele>
        <time>2020-11-11T13:12:43.000Z</time>
      </trkpt>
      <trkpt lat="42.91497" lon="0.3581">
        <ele>759</ele>
        <time>2020-11-11T13:12:44.000Z</time>
      </trkpt>
      <trkpt lat="42.91505" lon="0.35751">
        <ele>759</ele>
        <time>2020-11-11T13:12:53.000Z</time>
      </trkpt>
      <trkpt lat="42.91506" lon="0.35745">
        <ele>759</ele>
        <time>2020-11-11T13:12:54.000Z</time>
      </trkpt>
      <trkpt lat="42.91507" lon="0.35739">
        <ele>760</ele>
        <time>2020-11-11T13:12:55.000Z</time>
      </trkpt>
      <trkpt lat="42.91508" lon="0.35732">
        <ele>760</ele>
        <time>2020-11-11T13:12:56.000Z</time>
      </trkpt>
      <trkpt lat="42.9151" lon="0.35726">
        <ele>760</ele>
        <time>2020-11-11T13:12:57.000Z</time>
      </trkpt>
      <trkpt lat="42.91511" lon="0.3572">
        <ele>760</ele>
        <time>2020-11-11T13:12:58.000Z</time>
      </trkpt>
      <trkpt lat="42.91512" lon="0.35714">
        <ele>760</ele>
        <time>2020-11-11T13:12:59.000Z</time>
      </trkpt>
      <trkpt lat="42.91514" lon="0.35709">
        <ele>761</ele>
        <time>2020-11-11T13:13:00.000Z</time>
      </trkpt>
      <trkpt lat="42.91515" lon="0.35702">
        <ele>761</ele>
        <time>2020-11-11T13:13:01.000Z</time>
      </trkpt>
      <trkpt lat="42.91517" lon="0.35696">
        <ele>761</ele>
        <time>2020-11-11T13:13:02.000Z</time>
      </trkpt>
      <trkpt lat="42.91519" lon="0.35691">
        <ele>761</ele>
        <time>2020-11-11T13:13:03.000Z</time>
      </trkpt>
      <trkpt lat="42.91521" lon="0.35686">
        <ele>761</ele>
        <time>2020-11-11T13:13:04.000Z</time>
      </trkpt>
      <trkpt lat="42.91523" lon="0.35681">
        <ele>762</ele>
        <time>2020-11-11T13:13:05.000Z</time>
      </trkpt>
      <trkpt lat="42.91525" lon="0.35676">
        <ele>762</ele>
        <time>2020-11-11T13:13:06.000Z</time>
      </trkpt>
      <trkpt lat="42.91528" lon="0.35672">
        <ele>762</ele>
        <time>2020-11-11T13:13:07.000Z</time>
      </trkpt>
      <trkpt lat="42.91531" lon="0.35667">
        <ele>762</ele>
        <time>2020-11-11T13:13:08.000Z</time>
      </trkpt>
      <trkpt lat="42.91534" lon="0.35662">
        <ele>762</ele>
        <time>2020-11-11T13:13:09.000Z</time>
      </trkpt>
      <trkpt lat="42.91536" lon="0.35657">
        <ele>763</ele>
        <time>2020-11-11T13:13:10.000Z</time>
      </trkpt>
      <trkpt lat="42.91538" lon="0.35651">
        <ele>763</ele>
        <time>2020-11-11T13:13:11.000Z</time>
      </trkpt>
      <trkpt lat="42.9154" lon="0.35646">
        <ele>763</ele>
        <time>2020-11-11T13:13:12.000Z</time>
      </trkpt>
      <trkpt lat="42.91541" lon="0.35641">
        <ele>763</ele>
        <time>2020-11-11T13:13:13.000Z</time>
      </trkpt>
      <trkpt lat="42.91543" lon="0.35636">
        <ele>763</ele>
        <time>2020-11-11T13:13:14.000Z</time>
      </trkpt>
      <trkpt lat="42.91544" lon="0.35631">
        <ele>763</ele>
        <time>2020-11-11T13:13:15.000Z</time>
      </trkpt>
      <trkpt lat="42.91546" lon="0.35626">
        <ele>763</ele>
        <time>2020-11-11T13:13:16.000Z</time>
      </trkpt>
      <trkpt lat="42.91548" lon="0.35622">
        <ele>764</ele>
        <time>2020-11-11T13:13:17.000Z</time>
      </trkpt>
      <trkpt lat="42.91564" lon="0.35593">
        <ele>764</ele>
        <time>2020-11-11T13:13:23.000Z</time>
      </trkpt>
      <trkpt lat="42.91567" lon="0.35589">
        <ele>764</ele>
        <time>2020-11-11T13:13:24.000Z</time>
      </trkpt>
      <trkpt lat="42.9157" lon="0.35585">
        <ele>764</ele>
        <time>2020-11-11T13:13:25.000Z</time>
      </trkpt>
      <trkpt lat="42.91572" lon="0.35582">
        <ele>765</ele>
        <time>2020-11-11T13:13:26.000Z</time>
      </trkpt>
      <trkpt lat="42.91574" lon="0.35579">
        <ele>765</ele>
        <time>2020-11-11T13:13:27.000Z</time>
      </trkpt>
      <trkpt lat="42.91575" lon="0.35576">
        <ele>765</ele>
        <time>2020-11-11T13:13:28.000Z</time>
      </trkpt>
      <trkpt lat="42.91577" lon="0.35573">
        <ele>765</ele>
        <time>2020-11-11T13:13:29.000Z</time>
      </trkpt>
      <trkpt lat="42.91579" lon="0.3557">
        <ele>765</ele>
        <time>2020-11-11T13:13:30.000Z</time>
      </trkpt>
      <trkpt lat="42.91582" lon="0.35567">
        <ele>765</ele>
        <time>2020-11-11T13:13:31.000Z</time>
      </trkpt>
      <trkpt lat="42.91584" lon="0.35564">
        <ele>766</ele>
        <time>2020-11-11T13:13:32.000Z</time>
      </trkpt>
      <trkpt lat="42.91586" lon="0.35562">
        <ele>766</ele>
        <time>2020-11-11T13:13:33.000Z</time>
      </trkpt>
      <trkpt lat="42.91588" lon="0.3556">
        <ele>766</ele>
        <time>2020-11-11T13:13:34.000Z</time>
      </trkpt>
      <trkpt lat="42.91591" lon="0.35558">
        <ele>766</ele>
        <time>2020-11-11T13:13:35.000Z</time>
      </trkpt>
      <trkpt lat="42.91593" lon="0.35556">
        <ele>766</ele>
        <time>2020-11-11T13:13:36.000Z</time>
      </trkpt>
      <trkpt lat="42.91595" lon="0.35554">
        <ele>766</ele>
        <time>2020-11-11T13:13:37.000Z</time>
      </trkpt>
      <trkpt lat="42.91597" lon="0.35551">
        <ele>766</ele>
        <time>2020-11-11T13:13:38.000Z</time>
      </trkpt>
      <trkpt lat="42.91598" lon="0.35548">
        <ele>766</ele>
        <time>2020-11-11T13:13:39.000Z</time>
      </trkpt>
      <trkpt lat="42.91599" lon="0.35544">
        <ele>766</ele>
        <time>2020-11-11T13:13:40.000Z</time>
      </trkpt>
      <trkpt lat="42.916" lon="0.35541">
        <ele>766</ele>
        <time>2020-11-11T13:13:41.000Z</time>
      </trkpt>
      <trkpt lat="42.91601" lon="0.35537">
        <ele>766</ele>
        <time>2020-11-11T13:13:42.000Z</time>
      </trkpt>
      <trkpt lat="42.91601" lon="0.35533">
        <ele>766</ele>
        <time>2020-11-11T13:13:43.000Z</time>
      </trkpt>
      <trkpt lat="42.91602" lon="0.35529">
        <ele>767</ele>
        <time>2020-11-11T13:13:44.000Z</time>
      </trkpt>
      <trkpt lat="42.91602" lon="0.35525">
        <ele>767</ele>
        <time>2020-11-11T13:13:45.000Z</time>
      </trkpt>
      <trkpt lat="42.91603" lon="0.35521">
        <ele>767</ele>
        <time>2020-11-11T13:13:46.000Z</time>
      </trkpt>
      <trkpt lat="42.91604" lon="0.35515">
        <ele>767</ele>
        <time>2020-11-11T13:13:47.000Z</time>
      </trkpt>
      <trkpt lat="42.91605" lon="0.3551">
        <ele>767</ele>
        <time>2020-11-11T13:13:48.000Z</time>
      </trkpt>
      <trkpt lat="42.91606" lon="0.35503">
        <ele>767</ele>
        <time>2020-11-11T13:13:49.000Z</time>
      </trkpt>
      <trkpt lat="42.91607" lon="0.35496">
        <ele>768</ele>
        <time>2020-11-11T13:13:50.000Z</time>
      </trkpt>
      <trkpt lat="42.91608" lon="0.35488">
        <ele>768</ele>
        <time>2020-11-11T13:13:51.000Z</time>
      </trkpt>
      <trkpt lat="42.91608" lon="0.35481">
        <ele>768</ele>
        <time>2020-11-11T13:13:52.000Z</time>
      </trkpt>
      <trkpt lat="42.91608" lon="0.35473">
        <ele>768</ele>
        <time>2020-11-11T13:13:53.000Z</time>
      </trkpt>
      <trkpt lat="42.91608" lon="0.35465">
        <ele>768</ele>
        <time>2020-11-11T13:13:54.000Z</time>
      </trkpt>
      <trkpt lat="42.91609" lon="0.35457">
        <ele>769</ele>
        <time>2020-11-11T13:13:55.000Z</time>
      </trkpt>
      <trkpt lat="42.91611" lon="0.35451">
        <ele>769</ele>
        <time>2020-11-11T13:13:56.000Z</time>
      </trkpt>
      <trkpt lat="42.91612" lon="0.35444">
        <ele>769</ele>
        <time>2020-11-11T13:13:57.000Z</time>
      </trkpt>
      <trkpt lat="42.91614" lon="0.35438">
        <ele>769</ele>
        <time>2020-11-11T13:13:58.000Z</time>
      </trkpt>
      <trkpt lat="42.91615" lon="0.35432">
        <ele>769</ele>
        <time>2020-11-11T13:13:59.000Z</time>
      </trkpt>
      <trkpt lat="42.91616" lon="0.35426">
        <ele>769</ele>
        <time>2020-11-11T13:14:00.000Z</time>
      </trkpt>
      <trkpt lat="42.91617" lon="0.35419">
        <ele>770</ele>
        <time>2020-11-11T13:14:01.000Z</time>
      </trkpt>
      <trkpt lat="42.91618" lon="0.35412">
        <ele>770</ele>
        <time>2020-11-11T13:14:02.000Z</time>
      </trkpt>
      <trkpt lat="42.9162" lon="0.35405">
        <ele>770</ele>
        <time>2020-11-11T13:14:03.000Z</time>
      </trkpt>
      <trkpt lat="42.91623" lon="0.35398">
        <ele>770</ele>
        <time>2020-11-11T13:14:04.000Z</time>
      </trkpt>
      <trkpt lat="42.91625" lon="0.35392">
        <ele>771</ele>
        <time>2020-11-11T13:14:05.000Z</time>
      </trkpt>
      <trkpt lat="42.91628" lon="0.35385">
        <ele>771</ele>
        <time>2020-11-11T13:14:06.000Z</time>
      </trkpt>
      <trkpt lat="42.9163" lon="0.35379">
        <ele>771</ele>
        <time>2020-11-11T13:14:07.000Z</time>
      </trkpt>
      <trkpt lat="42.91633" lon="0.35373">
        <ele>771</ele>
        <time>2020-11-11T13:14:08.000Z</time>
      </trkpt>
      <trkpt lat="42.91636" lon="0.35367">
        <ele>772</ele>
        <time>2020-11-11T13:14:09.000Z</time>
      </trkpt>
      <trkpt lat="42.91639" lon="0.35361">
        <ele>772</ele>
        <time>2020-11-11T13:14:10.000Z</time>
      </trkpt>
      <trkpt lat="42.91642" lon="0.35355">
        <ele>772</ele>
        <time>2020-11-11T13:14:11.000Z</time>
      </trkpt>
      <trkpt lat="42.91644" lon="0.35348">
        <ele>772</ele>
        <time>2020-11-11T13:14:12.000Z</time>
      </trkpt>
      <trkpt lat="42.91645" lon="0.35341">
        <ele>772</ele>
        <time>2020-11-11T13:14:13.000Z</time>
      </trkpt>
      <trkpt lat="42.91646" lon="0.35334">
        <ele>772</ele>
        <time>2020-11-11T13:14:14.000Z</time>
      </trkpt>
      <trkpt lat="42.91646" lon="0.35327">
        <ele>772</ele>
        <time>2020-11-11T13:14:15.000Z</time>
      </trkpt>
      <trkpt lat="42.91646" lon="0.35319">
        <ele>772</ele>
        <time>2020-11-11T13:14:16.000Z</time>
      </trkpt>
      <trkpt lat="42.91645" lon="0.35311">
        <ele>773</ele>
        <time>2020-11-11T13:14:17.000Z</time>
      </trkpt>
      <trkpt lat="42.91644" lon="0.35304">
        <ele>773</ele>
        <time>2020-11-11T13:14:18.000Z</time>
      </trkpt>
      <trkpt lat="42.91644" lon="0.35296">
        <ele>773</ele>
        <time>2020-11-11T13:14:19.000Z</time>
      </trkpt>
      <trkpt lat="42.91645" lon="0.35289">
        <ele>774</ele>
        <time>2020-11-11T13:14:20.000Z</time>
      </trkpt>
      <trkpt lat="42.91646" lon="0.35281">
        <ele>774</ele>
        <time>2020-11-11T13:14:21.000Z</time>
      </trkpt>
      <trkpt lat="42.91647" lon="0.35274">
        <ele>774</ele>
        <time>2020-11-11T13:14:22.000Z</time>
      </trkpt>
      <trkpt lat="42.91649" lon="0.35266">
        <ele>775</ele>
        <time>2020-11-11T13:14:23.000Z</time>
      </trkpt>
      <trkpt lat="42.91651" lon="0.35259">
        <ele>775</ele>
        <time>2020-11-11T13:14:24.000Z</time>
      </trkpt>
      <trkpt lat="42.91653" lon="0.35251">
        <ele>775</ele>
        <time>2020-11-11T13:14:25.000Z</time>
      </trkpt>
      <trkpt lat="42.91653" lon="0.35242">
        <ele>776</ele>
        <time>2020-11-11T13:14:26.000Z</time>
      </trkpt>
      <trkpt lat="42.91654" lon="0.35233">
        <ele>776</ele>
        <time>2020-11-11T13:14:27.000Z</time>
      </trkpt>
      <trkpt lat="42.91654" lon="0.35223">
        <ele>776</ele>
        <time>2020-11-11T13:14:28.000Z</time>
      </trkpt>
      <trkpt lat="42.91655" lon="0.35212">
        <ele>777</ele>
        <time>2020-11-11T13:14:29.000Z</time>
      </trkpt>
      <trkpt lat="42.91656" lon="0.35202">
        <ele>777</ele>
        <time>2020-11-11T13:14:30.000Z</time>
      </trkpt>
      <trkpt lat="42.91657" lon="0.35192">
        <ele>777</ele>
        <time>2020-11-11T13:14:31.000Z</time>
      </trkpt>
      <trkpt lat="42.9166" lon="0.35183">
        <ele>778</ele>
        <time>2020-11-11T13:14:32.000Z</time>
      </trkpt>
      <trkpt lat="42.91663" lon="0.35174">
        <ele>778</ele>
        <time>2020-11-11T13:14:33.000Z</time>
      </trkpt>
      <trkpt lat="42.91667" lon="0.35166">
        <ele>778</ele>
        <time>2020-11-11T13:14:34.000Z</time>
      </trkpt>
      <trkpt lat="42.91671" lon="0.35158">
        <ele>778</ele>
        <time>2020-11-11T13:14:35.000Z</time>
      </trkpt>
      <trkpt lat="42.91676" lon="0.35151">
        <ele>778</ele>
        <time>2020-11-11T13:14:36.000Z</time>
      </trkpt>
      <trkpt lat="42.9168" lon="0.35144">
        <ele>778</ele>
        <time>2020-11-11T13:14:37.000Z</time>
      </trkpt>
      <trkpt lat="42.91684" lon="0.35137">
        <ele>779</ele>
        <time>2020-11-11T13:14:38.000Z</time>
      </trkpt>
      <trkpt lat="42.91689" lon="0.3513">
        <ele>779</ele>
        <time>2020-11-11T13:14:39.000Z</time>
      </trkpt>
      <trkpt lat="42.91693" lon="0.35124">
        <ele>779</ele>
        <time>2020-11-11T13:14:40.000Z</time>
      </trkpt>
      <trkpt lat="42.91697" lon="0.35118">
        <ele>779</ele>
        <time>2020-11-11T13:14:41.000Z</time>
      </trkpt>
      <trkpt lat="42.91701" lon="0.35112">
        <ele>779</ele>
        <time>2020-11-11T13:14:42.000Z</time>
      </trkpt>
      <trkpt lat="42.91706" lon="0.35106">
        <ele>780</ele>
        <time>2020-11-11T13:14:43.000Z</time>
      </trkpt>
      <trkpt lat="42.91709" lon="0.35098">
        <ele>780</ele>
        <time>2020-11-11T13:14:44.000Z</time>
      </trkpt>
      <trkpt lat="42.91712" lon="0.35091">
        <ele>780</ele>
        <time>2020-11-11T13:14:45.000Z</time>
      </trkpt>
      <trkpt lat="42.91715" lon="0.35083">
        <ele>780</ele>
        <time>2020-11-11T13:14:46.000Z</time>
      </trkpt>
      <trkpt lat="42.91718" lon="0.35074">
        <ele>780</ele>
        <time>2020-11-11T13:14:47.000Z</time>
      </trkpt>
      <trkpt lat="42.91721" lon="0.35067">
        <ele>780</ele>
        <time>2020-11-11T13:14:48.000Z</time>
      </trkpt>
      <trkpt lat="42.91723" lon="0.35059">
        <ele>780</ele>
        <time>2020-11-11T13:14:49.000Z</time>
      </trkpt>
      <trkpt lat="42.91724" lon="0.35052">
        <ele>780</ele>
        <time>2020-11-11T13:14:50.000Z</time>
      </trkpt>
      <trkpt lat="42.91724" lon="0.35046">
        <ele>781</ele>
        <time>2020-11-11T13:14:51.000Z</time>
      </trkpt>
      <trkpt lat="42.91724" lon="0.35038">
        <ele>781</ele>
        <time>2020-11-11T13:14:52.000Z</time>
      </trkpt>
      <trkpt lat="42.91723" lon="0.35031">
        <ele>781</ele>
        <time>2020-11-11T13:14:53.000Z</time>
      </trkpt>
      <trkpt lat="42.91723" lon="0.35024">
        <ele>781</ele>
        <time>2020-11-11T13:14:54.000Z</time>
      </trkpt>
      <trkpt lat="42.91723" lon="0.35017">
        <ele>782</ele>
        <time>2020-11-11T13:14:55.000Z</time>
      </trkpt>
      <trkpt lat="42.91724" lon="0.35009">
        <ele>782</ele>
        <time>2020-11-11T13:14:56.000Z</time>
      </trkpt>
      <trkpt lat="42.91725" lon="0.35001">
        <ele>782</ele>
        <time>2020-11-11T13:14:57.000Z</time>
      </trkpt>
      <trkpt lat="42.91728" lon="0.34993">
        <ele>782</ele>
        <time>2020-11-11T13:14:58.000Z</time>
      </trkpt>
      <trkpt lat="42.91731" lon="0.34985">
        <ele>783</ele>
        <time>2020-11-11T13:14:59.000Z</time>
      </trkpt>
      <trkpt lat="42.91734" lon="0.34976">
        <ele>783</ele>
        <time>2020-11-11T13:15:00.000Z</time>
      </trkpt>
      <trkpt lat="42.91738" lon="0.34968">
        <ele>783</ele>
        <time>2020-11-11T13:15:01.000Z</time>
      </trkpt>
      <trkpt lat="42.91743" lon="0.3496">
        <ele>783</ele>
        <time>2020-11-11T13:15:02.000Z</time>
      </trkpt>
      <trkpt lat="42.91748" lon="0.34953">
        <ele>784</ele>
        <time>2020-11-11T13:15:03.000Z</time>
      </trkpt>
      <trkpt lat="42.91753" lon="0.34946">
        <ele>784</ele>
        <time>2020-11-11T13:15:04.000Z</time>
      </trkpt>
      <trkpt lat="42.91758" lon="0.34939">
        <ele>784</ele>
        <time>2020-11-11T13:15:05.000Z</time>
      </trkpt>
      <trkpt lat="42.91763" lon="0.34932">
        <ele>784</ele>
        <time>2020-11-11T13:15:06.000Z</time>
      </trkpt>
      <trkpt lat="42.91767" lon="0.34926">
        <ele>785</ele>
        <time>2020-11-11T13:15:07.000Z</time>
      </trkpt>
      <trkpt lat="42.91771" lon="0.34921">
        <ele>785</ele>
        <time>2020-11-11T13:15:08.000Z</time>
      </trkpt>
      <trkpt lat="42.91775" lon="0.34915">
        <ele>785</ele>
        <time>2020-11-11T13:15:09.000Z</time>
      </trkpt>
      <trkpt lat="42.91779" lon="0.3491">
        <ele>786</ele>
        <time>2020-11-11T13:15:10.000Z</time>
      </trkpt>
      <trkpt lat="42.91783" lon="0.34905">
        <ele>786</ele>
        <time>2020-11-11T13:15:11.000Z</time>
      </trkpt>
      <trkpt lat="42.91786" lon="0.349">
        <ele>786</ele>
        <time>2020-11-11T13:15:12.000Z</time>
      </trkpt>
      <trkpt lat="42.91789" lon="0.34896">
        <ele>786</ele>
        <time>2020-11-11T13:15:13.000Z</time>
      </trkpt>
      <trkpt lat="42.91791" lon="0.34891">
        <ele>786</ele>
        <time>2020-11-11T13:15:14.000Z</time>
      </trkpt>
      <trkpt lat="42.91793" lon="0.34886">
        <ele>786</ele>
        <time>2020-11-11T13:15:15.000Z</time>
      </trkpt>
      <trkpt lat="42.91795" lon="0.34881">
        <ele>786</ele>
        <time>2020-11-11T13:15:16.000Z</time>
      </trkpt>
      <trkpt lat="42.91797" lon="0.34876">
        <ele>787</ele>
        <time>2020-11-11T13:15:17.000Z</time>
      </trkpt>
      <trkpt lat="42.91799" lon="0.3487">
        <ele>787</ele>
        <time>2020-11-11T13:15:18.000Z</time>
      </trkpt>
      <trkpt lat="42.91801" lon="0.34864">
        <ele>787</ele>
        <time>2020-11-11T13:15:19.000Z</time>
      </trkpt>
      <trkpt lat="42.91804" lon="0.34858">
        <ele>787</ele>
        <time>2020-11-11T13:15:20.000Z</time>
      </trkpt>
      <trkpt lat="42.91806" lon="0.34852">
        <ele>788</ele>
        <time>2020-11-11T13:15:21.000Z</time>
      </trkpt>
      <trkpt lat="42.91807" lon="0.34846">
        <ele>788</ele>
        <time>2020-11-11T13:15:22.000Z</time>
      </trkpt>
      <trkpt lat="42.91827" lon="0.34777">
        <ele>791</ele>
        <time>2020-11-11T13:15:33.000Z</time>
      </trkpt>
      <trkpt lat="42.91827" lon="0.34774">
        <ele>791</ele>
        <time>2020-11-11T13:15:34.000Z</time>
      </trkpt>
      <trkpt lat="42.91827" lon="0.34771">
        <ele>791</ele>
        <time>2020-11-11T13:15:35.000Z</time>
      </trkpt>
      <trkpt lat="42.91826" lon="0.34769">
        <ele>791</ele>
        <time>2020-11-11T13:15:36.000Z</time>
      </trkpt>
      <trkpt lat="42.91825" lon="0.34768">
        <ele>792</ele>
        <time>2020-11-11T13:15:37.000Z</time>
      </trkpt>
      <trkpt lat="42.91823" lon="0.34768">
        <ele>792</ele>
        <time>2020-11-11T13:15:38.000Z</time>
      </trkpt>
      <trkpt lat="42.91822" lon="0.34768">
        <ele>792</ele>
        <time>2020-11-11T13:15:39.000Z</time>
      </trkpt>
      <trkpt lat="42.91821" lon="0.34768">
        <ele>793</ele>
        <time>2020-11-11T13:15:40.000Z</time>
      </trkpt>
      <trkpt lat="42.9182" lon="0.34769">
        <ele>793</ele>
        <time>2020-11-11T13:15:41.000Z</time>
      </trkpt>
      <trkpt lat="42.91819" lon="0.3477">
        <ele>793</ele>
        <time>2020-11-11T13:15:42.000Z</time>
      </trkpt>
      <trkpt lat="42.91819" lon="0.34772">
        <ele>794</ele>
        <time>2020-11-11T13:15:43.000Z</time>
      </trkpt>
      <trkpt lat="42.91818" lon="0.34773">
        <ele>794</ele>
        <time>2020-11-11T13:15:44.000Z</time>
      </trkpt>
      <trkpt lat="42.91817" lon="0.34775">
        <ele>794</ele>
        <time>2020-11-11T13:15:45.000Z</time>
      </trkpt>
      <trkpt lat="42.91814" lon="0.34784">
        <ele>796</ele>
        <time>2020-11-11T13:15:48.000Z</time>
      </trkpt>
      <trkpt lat="42.91813" lon="0.34786">
        <ele>796</ele>
        <time>2020-11-11T13:15:49.000Z</time>
      </trkpt>
      <trkpt lat="42.91811" lon="0.34788">
        <ele>796</ele>
        <time>2020-11-11T13:15:50.000Z</time>
      </trkpt>
      <trkpt lat="42.91811" lon="0.3479">
        <ele>797</ele>
        <time>2020-11-11T13:15:51.000Z</time>
      </trkpt>
      <trkpt lat="42.9181" lon="0.34793">
        <ele>797</ele>
        <time>2020-11-11T13:15:52.000Z</time>
      </trkpt>
      <trkpt lat="42.91809" lon="0.34796">
        <ele>797</ele>
        <time>2020-11-11T13:15:53.000Z</time>
      </trkpt>
      <trkpt lat="42.91808" lon="0.34798">
        <ele>798</ele>
        <time>2020-11-11T13:15:54.000Z</time>
      </trkpt>
      <trkpt lat="42.91807" lon="0.34801">
        <ele>798</ele>
        <time>2020-11-11T13:15:55.000Z</time>
      </trkpt>
      <trkpt lat="42.91806" lon="0.34804">
        <ele>798</ele>
        <time>2020-11-11T13:15:56.000Z</time>
      </trkpt>
      <trkpt lat="42.91806" lon="0.34806">
        <ele>799</ele>
        <time>2020-11-11T13:15:57.000Z</time>
      </trkpt>
      <trkpt lat="42.91806" lon="0.34809">
        <ele>799</ele>
        <time>2020-11-11T13:15:58.000Z</time>
      </trkpt>
      <trkpt lat="42.91805" lon="0.34812">
        <ele>799</ele>
        <time>2020-11-11T13:15:59.000Z</time>
      </trkpt>
      <trkpt lat="42.91804" lon="0.34814">
        <ele>800</ele>
        <time>2020-11-11T13:16:00.000Z</time>
      </trkpt>
      <trkpt lat="42.91803" lon="0.34816">
        <ele>800</ele>
        <time>2020-11-11T13:16:01.000Z</time>
      </trkpt>
      <trkpt lat="42.91802" lon="0.34818">
        <ele>800</ele>
        <time>2020-11-11T13:16:02.000Z</time>
      </trkpt>
      <trkpt lat="42.918" lon="0.3482">
        <ele>801</ele>
        <time>2020-11-11T13:16:03.000Z</time>
      </trkpt>
      <trkpt lat="42.91799" lon="0.34822">
        <ele>801</ele>
        <time>2020-11-11T13:16:04.000Z</time>
      </trkpt>
      <trkpt lat="42.91796" lon="0.34824">
        <ele>801</ele>
        <time>2020-11-11T13:16:05.000Z</time>
      </trkpt>
      <trkpt lat="42.91794" lon="0.34827">
        <ele>802</ele>
        <time>2020-11-11T13:16:06.000Z</time>
      </trkpt>
      <trkpt lat="42.91792" lon="0.3483">
        <ele>802</ele>
        <time>2020-11-11T13:16:07.000Z</time>
      </trkpt>
      <trkpt lat="42.91791" lon="0.34833">
        <ele>802</ele>
        <time>2020-11-11T13:16:08.000Z</time>
      </trkpt>
      <trkpt lat="42.91789" lon="0.34835">
        <ele>803</ele>
        <time>2020-11-11T13:16:09.000Z</time>
      </trkpt>
      <trkpt lat="42.91787" lon="0.34838">
        <ele>803</ele>
        <time>2020-11-11T13:16:10.000Z</time>
      </trkpt>
      <trkpt lat="42.91786" lon="0.3484">
        <ele>803</ele>
        <time>2020-11-11T13:16:11.000Z</time>
      </trkpt>
      <trkpt lat="42.91785" lon="0.34842">
        <ele>804</ele>
        <time>2020-11-11T13:16:12.000Z</time>
      </trkpt>
      <trkpt lat="42.91783" lon="0.34845">
        <ele>804</ele>
        <time>2020-11-11T13:16:13.000Z</time>
      </trkpt>
      <trkpt lat="42.91782" lon="0.34847">
        <ele>804</ele>
        <time>2020-11-11T13:16:14.000Z</time>
      </trkpt>
      <trkpt lat="42.91779" lon="0.34849">
        <ele>804</ele>
        <time>2020-11-11T13:16:15.000Z</time>
      </trkpt>
      <trkpt lat="42.91777" lon="0.3485">
        <ele>804</ele>
        <time>2020-11-11T13:16:16.000Z</time>
      </trkpt>
      <trkpt lat="42.91774" lon="0.34852">
        <ele>804</ele>
        <time>2020-11-11T13:16:17.000Z</time>
      </trkpt>
      <trkpt lat="42.91772" lon="0.34854">
        <ele>804</ele>
        <time>2020-11-11T13:16:18.000Z</time>
      </trkpt>
      <trkpt lat="42.9177" lon="0.34856">
        <ele>805</ele>
        <time>2020-11-11T13:16:19.000Z</time>
      </trkpt>
      <trkpt lat="42.91768" lon="0.34858">
        <ele>805</ele>
        <time>2020-11-11T13:16:20.000Z</time>
      </trkpt>
      <trkpt lat="42.91766" lon="0.3486">
        <ele>805</ele>
        <time>2020-11-11T13:16:21.000Z</time>
      </trkpt>
      <trkpt lat="42.91764" lon="0.34862">
        <ele>806</ele>
        <time>2020-11-11T13:16:22.000Z</time>
      </trkpt>
      <trkpt lat="42.91762" lon="0.34864">
        <ele>806</ele>
        <time>2020-11-11T13:16:23.000Z</time>
      </trkpt>
      <trkpt lat="42.91759" lon="0.34866">
        <ele>806</ele>
        <time>2020-11-11T13:16:24.000Z</time>
      </trkpt>
      <trkpt lat="42.91757" lon="0.34868">
        <ele>807</ele>
        <time>2020-11-11T13:16:25.000Z</time>
      </trkpt>
      <trkpt lat="42.91755" lon="0.34869">
        <ele>807</ele>
        <time>2020-11-11T13:16:26.000Z</time>
      </trkpt>
      <trkpt lat="42.91753" lon="0.34871">
        <ele>807</ele>
        <time>2020-11-11T13:16:27.000Z</time>
      </trkpt>
      <trkpt lat="42.91751" lon="0.34872">
        <ele>808</ele>
        <time>2020-11-11T13:16:28.000Z</time>
      </trkpt>
      <trkpt lat="42.91749" lon="0.34873">
        <ele>808</ele>
        <time>2020-11-11T13:16:29.000Z</time>
      </trkpt>
      <trkpt lat="42.91748" lon="0.34874">
        <ele>808</ele>
        <time>2020-11-11T13:16:30.000Z</time>
      </trkpt>
      <trkpt lat="42.91746" lon="0.34875">
        <ele>809</ele>
        <time>2020-11-11T13:16:31.000Z</time>
      </trkpt>
      <trkpt lat="42.91744" lon="0.34877">
        <ele>809</ele>
        <time>2020-11-11T13:16:32.000Z</time>
      </trkpt>
      <trkpt lat="42.91742" lon="0.34878">
        <ele>810</ele>
        <time>2020-11-11T13:16:33.000Z</time>
      </trkpt>
      <trkpt lat="42.91739" lon="0.3488">
        <ele>810</ele>
        <time>2020-11-11T13:16:34.000Z</time>
      </trkpt>
      <trkpt lat="42.91737" lon="0.34882">
        <ele>811</ele>
        <time>2020-11-11T13:16:35.000Z</time>
      </trkpt>
      <trkpt lat="42.91734" lon="0.34883">
        <ele>811</ele>
        <time>2020-11-11T13:16:36.000Z</time>
      </trkpt>
      <trkpt lat="42.91732" lon="0.34885">
        <ele>812</ele>
        <time>2020-11-11T13:16:37.000Z</time>
      </trkpt>
      <trkpt lat="42.91729" lon="0.34887">
        <ele>812</ele>
        <time>2020-11-11T13:16:38.000Z</time>
      </trkpt>
      <trkpt lat="42.91725" lon="0.34889">
        <ele>812</ele>
        <time>2020-11-11T13:16:39.000Z</time>
      </trkpt>
      <trkpt lat="42.91722" lon="0.34891">
        <ele>813</ele>
        <time>2020-11-11T13:16:40.000Z</time>
      </trkpt>
      <trkpt lat="42.91719" lon="0.34893">
        <ele>813</ele>
        <time>2020-11-11T13:16:41.000Z</time>
      </trkpt>
      <trkpt lat="42.91716" lon="0.34896">
        <ele>813</ele>
        <time>2020-11-11T13:16:42.000Z</time>
      </trkpt>
      <trkpt lat="42.91714" lon="0.34899">
        <ele>814</ele>
        <time>2020-11-11T13:16:43.000Z</time>
      </trkpt>
      <trkpt lat="42.91712" lon="0.34902">
        <ele>814</ele>
        <time>2020-11-11T13:16:44.000Z</time>
      </trkpt>
      <trkpt lat="42.91709" lon="0.34904">
        <ele>814</ele>
        <time>2020-11-11T13:16:45.000Z</time>
      </trkpt>
      <trkpt lat="42.91707" lon="0.34907">
        <ele>815</ele>
        <time>2020-11-11T13:16:46.000Z</time>
      </trkpt>
      <trkpt lat="42.91697" lon="0.34925">
        <ele>816</ele>
        <time>2020-11-11T13:16:50.000Z</time>
      </trkpt>
      <trkpt lat="42.91697" lon="0.34926">
        <ele>816</ele>
        <time>2020-11-11T13:16:51.000Z</time>
      </trkpt>
      <trkpt lat="42.91697" lon="0.34927">
        <ele>816</ele>
        <time>2020-11-11T13:16:52.000Z</time>
      </trkpt>
      <trkpt lat="42.91696" lon="0.3493">
        <ele>817</ele>
        <time>2020-11-11T13:16:53.000Z</time>
      </trkpt>
      <trkpt lat="42.91695" lon="0.34932">
        <ele>817</ele>
        <time>2020-11-11T13:16:54.000Z</time>
      </trkpt>
      <trkpt lat="42.91694" lon="0.34935">
        <ele>817</ele>
        <time>2020-11-11T13:16:55.000Z</time>
      </trkpt>
      <trkpt lat="42.91694" lon="0.34938">
        <ele>818</ele>
        <time>2020-11-11T13:16:56.000Z</time>
      </trkpt>
      <trkpt lat="42.91693" lon="0.34941">
        <ele>818</ele>
        <time>2020-11-11T13:16:57.000Z</time>
      </trkpt>
      <trkpt lat="42.91693" lon="0.34944">
        <ele>818</ele>
        <time>2020-11-11T13:16:58.000Z</time>
      </trkpt>
      <trkpt lat="42.91692" lon="0.34948">
        <ele>819</ele>
        <time>2020-11-11T13:16:59.000Z</time>
      </trkpt>
      <trkpt lat="42.91691" lon="0.34952">
        <ele>819</ele>
        <time>2020-11-11T13:17:00.000Z</time>
      </trkpt>
      <trkpt lat="42.9169" lon="0.34956">
        <ele>819</ele>
        <time>2020-11-11T13:17:01.000Z</time>
      </trkpt>
      <trkpt lat="42.91689" lon="0.34959">
        <ele>820</ele>
        <time>2020-11-11T13:17:02.000Z</time>
      </trkpt>
      <trkpt lat="42.91688" lon="0.34963">
        <ele>820</ele>
        <time>2020-11-11T13:17:03.000Z</time>
      </trkpt>
      <trkpt lat="42.91686" lon="0.34966">
        <ele>820</ele>
        <time>2020-11-11T13:17:04.000Z</time>
      </trkpt>
      <trkpt lat="42.91686" lon="0.3497">
        <ele>821</ele>
        <time>2020-11-11T13:17:05.000Z</time>
      </trkpt>
      <trkpt lat="42.91684" lon="0.34973">
        <ele>821</ele>
        <time>2020-11-11T13:17:06.000Z</time>
      </trkpt>
      <trkpt lat="42.91683" lon="0.34977">
        <ele>821</ele>
        <time>2020-11-11T13:17:07.000Z</time>
      </trkpt>
      <trkpt lat="42.91681" lon="0.3498">
        <ele>822</ele>
        <time>2020-11-11T13:17:08.000Z</time>
      </trkpt>
      <trkpt lat="42.9168" lon="0.34984">
        <ele>822</ele>
        <time>2020-11-11T13:17:09.000Z</time>
      </trkpt>
      <trkpt lat="42.91678" lon="0.34988">
        <ele>822</ele>
        <time>2020-11-11T13:17:10.000Z</time>
      </trkpt>
      <trkpt lat="42.91677" lon="0.34992">
        <ele>823</ele>
        <time>2020-11-11T13:17:11.000Z</time>
      </trkpt>
      <trkpt lat="42.91675" lon="0.34996">
        <ele>823</ele>
        <time>2020-11-11T13:17:12.000Z</time>
      </trkpt>
      <trkpt lat="42.91673" lon="0.34999">
        <ele>823</ele>
        <time>2020-11-11T13:17:13.000Z</time>
      </trkpt>
      <trkpt lat="42.91671" lon="0.35002">
        <ele>824</ele>
        <time>2020-11-11T13:17:14.000Z</time>
      </trkpt>
      <trkpt lat="42.91669" lon="0.35006">
        <ele>824</ele>
        <time>2020-11-11T13:17:15.000Z</time>
      </trkpt>
      <trkpt lat="42.91667" lon="0.35009">
        <ele>824</ele>
        <time>2020-11-11T13:17:16.000Z</time>
      </trkpt>
      <trkpt lat="42.91664" lon="0.35012">
        <ele>825</ele>
        <time>2020-11-11T13:17:17.000Z</time>
      </trkpt>
      <trkpt lat="42.91662" lon="0.35015">
        <ele>825</ele>
        <time>2020-11-11T13:17:18.000Z</time>
      </trkpt>
      <trkpt lat="42.91659" lon="0.35017">
        <ele>825</ele>
        <time>2020-11-11T13:17:19.000Z</time>
      </trkpt>
      <trkpt lat="42.91657" lon="0.3502">
        <ele>826</ele>
        <time>2020-11-11T13:17:20.000Z</time>
      </trkpt>
      <trkpt lat="42.91654" lon="0.35022">
        <ele>826</ele>
        <time>2020-11-11T13:17:21.000Z</time>
      </trkpt>
      <trkpt lat="42.91652" lon="0.35024">
        <ele>826</ele>
        <time>2020-11-11T13:17:22.000Z</time>
      </trkpt>
      <trkpt lat="42.91649" lon="0.35026">
        <ele>826</ele>
        <time>2020-11-11T13:17:23.000Z</time>
      </trkpt>
      <trkpt lat="42.91646" lon="0.35029">
        <ele>826</ele>
        <time>2020-11-11T13:17:24.000Z</time>
      </trkpt>
      <trkpt lat="42.91642" lon="0.35031">
        <ele>827</ele>
        <time>2020-11-11T13:17:25.000Z</time>
      </trkpt>
      <trkpt lat="42.91639" lon="0.35033">
        <ele>827</ele>
        <time>2020-11-11T13:17:26.000Z</time>
      </trkpt>
      <trkpt lat="42.91636" lon="0.35035">
        <ele>827</ele>
        <time>2020-11-11T13:17:27.000Z</time>
      </trkpt>
      <trkpt lat="42.91634" lon="0.35037">
        <ele>828</ele>
        <time>2020-11-11T13:17:28.000Z</time>
      </trkpt>
      <trkpt lat="42.91631" lon="0.35038">
        <ele>828</ele>
        <time>2020-11-11T13:17:29.000Z</time>
      </trkpt>
      <trkpt lat="42.91628" lon="0.3504">
        <ele>828</ele>
        <time>2020-11-11T13:17:30.000Z</time>
      </trkpt>
      <trkpt lat="42.91625" lon="0.35042">
        <ele>829</ele>
        <time>2020-11-11T13:17:31.000Z</time>
      </trkpt>
      <trkpt lat="42.91623" lon="0.35043">
        <ele>829</ele>
        <time>2020-11-11T13:17:32.000Z</time>
      </trkpt>
      <trkpt lat="42.9162" lon="0.35044">
        <ele>829</ele>
        <time>2020-11-11T13:17:33.000Z</time>
      </trkpt>
      <trkpt lat="42.91619" lon="0.35044">
        <ele>829</ele>
        <time>2020-11-11T13:17:34.000Z</time>
      </trkpt>
      <trkpt lat="42.91617" lon="0.35045">
        <ele>830</ele>
        <time>2020-11-11T13:17:35.000Z</time>
      </trkpt>
      <trkpt lat="42.91616" lon="0.35046">
        <ele>830</ele>
        <time>2020-11-11T13:17:36.000Z</time>
      </trkpt>
      <trkpt lat="42.91614" lon="0.35046">
        <ele>830</ele>
        <time>2020-11-11T13:17:37.000Z</time>
      </trkpt>
      <trkpt lat="42.91613" lon="0.35047">
        <ele>830</ele>
        <time>2020-11-11T13:17:38.000Z</time>
      </trkpt>
      <trkpt lat="42.91612" lon="0.35047">
        <ele>830</ele>
        <time>2020-11-11T13:17:39.000Z</time>
      </trkpt>
      <trkpt lat="42.9161" lon="0.35048">
        <ele>830</ele>
        <time>2020-11-11T13:17:40.000Z</time>
      </trkpt>
      <trkpt lat="42.91607" lon="0.3505">
        <ele>830</ele>
        <time>2020-11-11T13:17:41.000Z</time>
      </trkpt>
      <trkpt lat="42.91605" lon="0.35051">
        <ele>830</ele>
        <time>2020-11-11T13:17:42.000Z</time>
      </trkpt>
      <trkpt lat="42.91602" lon="0.35052">
        <ele>830</ele>
        <time>2020-11-11T13:17:43.000Z</time>
      </trkpt>
      <trkpt lat="42.916" lon="0.35054">
        <ele>830</ele>
        <time>2020-11-11T13:17:44.000Z</time>
      </trkpt>
      <trkpt lat="42.91599" lon="0.35055">
        <ele>830</ele>
        <time>2020-11-11T13:17:45.000Z</time>
      </trkpt>
      <trkpt lat="42.91597" lon="0.35058">
        <ele>830</ele>
        <time>2020-11-11T13:17:46.000Z</time>
      </trkpt>
      <trkpt lat="42.91596" lon="0.35061">
        <ele>831</ele>
        <time>2020-11-11T13:17:47.000Z</time>
      </trkpt>
      <trkpt lat="42.91594" lon="0.35064">
        <ele>831</ele>
        <time>2020-11-11T13:17:48.000Z</time>
      </trkpt>
      <trkpt lat="42.91592" lon="0.35067">
        <ele>831</ele>
        <time>2020-11-11T13:17:49.000Z</time>
      </trkpt>
      <trkpt lat="42.91591" lon="0.3507">
        <ele>831</ele>
        <time>2020-11-11T13:17:50.000Z</time>
      </trkpt>
      <trkpt lat="42.91589" lon="0.35074">
        <ele>831</ele>
        <time>2020-11-11T13:17:51.000Z</time>
      </trkpt>
      <trkpt lat="42.91587" lon="0.35079">
        <ele>832</ele>
        <time>2020-11-11T13:17:52.000Z</time>
      </trkpt>
      <trkpt lat="42.91585" lon="0.35083">
        <ele>832</ele>
        <time>2020-11-11T13:17:53.000Z</time>
      </trkpt>
      <trkpt lat="42.91584" lon="0.35087">
        <ele>832</ele>
        <time>2020-11-11T13:17:54.000Z</time>
      </trkpt>
      <trkpt lat="42.91582" lon="0.35092">
        <ele>832</ele>
        <time>2020-11-11T13:17:55.000Z</time>
      </trkpt>
      <trkpt lat="42.91581" lon="0.35096">
        <ele>832</ele>
        <time>2020-11-11T13:17:56.000Z</time>
      </trkpt>
      <trkpt lat="42.91579" lon="0.351">
        <ele>832</ele>
        <time>2020-11-11T13:17:57.000Z</time>
      </trkpt>
      <trkpt lat="42.91578" lon="0.35105">
        <ele>832</ele>
        <time>2020-11-11T13:17:58.000Z</time>
      </trkpt>
      <trkpt lat="42.91577" lon="0.35109">
        <ele>833</ele>
        <time>2020-11-11T13:17:59.000Z</time>
      </trkpt>
      <trkpt lat="42.91577" lon="0.35112">
        <ele>833</ele>
        <time>2020-11-11T13:18:00.000Z</time>
      </trkpt>
      <trkpt lat="42.91577" lon="0.35116">
        <ele>833</ele>
        <time>2020-11-11T13:18:01.000Z</time>
      </trkpt>
      <trkpt lat="42.91577" lon="0.35119">
        <ele>833</ele>
        <time>2020-11-11T13:18:02.000Z</time>
      </trkpt>
      <trkpt lat="42.91577" lon="0.35123">
        <ele>834</ele>
        <time>2020-11-11T13:18:03.000Z</time>
      </trkpt>
      <trkpt lat="42.91578" lon="0.35126">
        <ele>834</ele>
        <time>2020-11-11T13:18:04.000Z</time>
      </trkpt>
      <trkpt lat="42.91578" lon="0.3513">
        <ele>834</ele>
        <time>2020-11-11T13:18:05.000Z</time>
      </trkpt>
      <trkpt lat="42.91579" lon="0.35133">
        <ele>834</ele>
        <time>2020-11-11T13:18:06.000Z</time>
      </trkpt>
      <trkpt lat="42.91579" lon="0.35136">
        <ele>835</ele>
        <time>2020-11-11T13:18:07.000Z</time>
      </trkpt>
      <trkpt lat="42.91579" lon="0.35139">
        <ele>835</ele>
        <time>2020-11-11T13:18:08.000Z</time>
      </trkpt>
      <trkpt lat="42.91579" lon="0.35142">
        <ele>835</ele>
        <time>2020-11-11T13:18:09.000Z</time>
      </trkpt>
      <trkpt lat="42.91577" lon="0.35148">
        <ele>835</ele>
        <time>2020-11-11T13:18:11.000Z</time>
      </trkpt>
      <trkpt lat="42.91575" lon="0.35151">
        <ele>836</ele>
        <time>2020-11-11T13:18:12.000Z</time>
      </trkpt>
      <trkpt lat="42.91574" lon="0.35155">
        <ele>836</ele>
        <time>2020-11-11T13:18:13.000Z</time>
      </trkpt>
      <trkpt lat="42.91572" lon="0.35158">
        <ele>836</ele>
        <time>2020-11-11T13:18:14.000Z</time>
      </trkpt>
      <trkpt lat="42.91569" lon="0.35162">
        <ele>836</ele>
        <time>2020-11-11T13:18:15.000Z</time>
      </trkpt>
      <trkpt lat="42.91567" lon="0.35164">
        <ele>836</ele>
        <time>2020-11-11T13:18:16.000Z</time>
      </trkpt>
      <trkpt lat="42.91564" lon="0.35167">
        <ele>836</ele>
        <time>2020-11-11T13:18:17.000Z</time>
      </trkpt>
      <trkpt lat="42.91561" lon="0.3517">
        <ele>836</ele>
        <time>2020-11-11T13:18:18.000Z</time>
      </trkpt>
      <trkpt lat="42.91559" lon="0.35173">
        <ele>836</ele>
        <time>2020-11-11T13:18:19.000Z</time>
      </trkpt>
      <trkpt lat="42.91556" lon="0.35175">
        <ele>836</ele>
        <time>2020-11-11T13:18:20.000Z</time>
      </trkpt>
      <trkpt lat="42.91553" lon="0.35178">
        <ele>837</ele>
        <time>2020-11-11T13:18:21.000Z</time>
      </trkpt>
      <trkpt lat="42.9155" lon="0.3518">
        <ele>837</ele>
        <time>2020-11-11T13:18:22.000Z</time>
      </trkpt>
      <trkpt lat="42.91548" lon="0.35182">
        <ele>837</ele>
        <time>2020-11-11T13:18:23.000Z</time>
      </trkpt>
      <trkpt lat="42.91546" lon="0.35185">
        <ele>837</ele>
        <time>2020-11-11T13:18:24.000Z</time>
      </trkpt>
      <trkpt lat="42.91544" lon="0.35187">
        <ele>837</ele>
        <time>2020-11-11T13:18:25.000Z</time>
      </trkpt>
      <trkpt lat="42.91542" lon="0.35188">
        <ele>837</ele>
        <time>2020-11-11T13:18:26.000Z</time>
      </trkpt>
      <trkpt lat="42.9154" lon="0.35189">
        <ele>837</ele>
        <time>2020-11-11T13:18:27.000Z</time>
      </trkpt>
      <trkpt lat="42.91538" lon="0.35191">
        <ele>837</ele>
        <time>2020-11-11T13:18:28.000Z</time>
      </trkpt>
      <trkpt lat="42.91536" lon="0.35194">
        <ele>837</ele>
        <time>2020-11-11T13:18:29.000Z</time>
      </trkpt>
      <trkpt lat="42.91535" lon="0.35196">
        <ele>838</ele>
        <time>2020-11-11T13:18:30.000Z</time>
      </trkpt>
      <trkpt lat="42.91534" lon="0.352">
        <ele>838</ele>
        <time>2020-11-11T13:18:31.000Z</time>
      </trkpt>
      <trkpt lat="42.91533" lon="0.35203">
        <ele>838</ele>
        <time>2020-11-11T13:18:32.000Z</time>
      </trkpt>
      <trkpt lat="42.91533" lon="0.35207">
        <ele>838</ele>
        <time>2020-11-11T13:18:33.000Z</time>
      </trkpt>
      <trkpt lat="42.91533" lon="0.3521">
        <ele>838</ele>
        <time>2020-11-11T13:18:34.000Z</time>
      </trkpt>
      <trkpt lat="42.91533" lon="0.35214">
        <ele>838</ele>
        <time>2020-11-11T13:18:35.000Z</time>
      </trkpt>
      <trkpt lat="42.91534" lon="0.35218">
        <ele>838</ele>
        <time>2020-11-11T13:18:36.000Z</time>
      </trkpt>
      <trkpt lat="42.91535" lon="0.35222">
        <ele>838</ele>
        <time>2020-11-11T13:18:37.000Z</time>
      </trkpt>
      <trkpt lat="42.91536" lon="0.35226">
        <ele>838</ele>
        <time>2020-11-11T13:18:38.000Z</time>
      </trkpt>
      <trkpt lat="42.91538" lon="0.35231">
        <ele>838</ele>
        <time>2020-11-11T13:18:39.000Z</time>
      </trkpt>
      <trkpt lat="42.91539" lon="0.35235">
        <ele>838</ele>
        <time>2020-11-11T13:18:40.000Z</time>
      </trkpt>
      <trkpt lat="42.9154" lon="0.3524">
        <ele>838</ele>
        <time>2020-11-11T13:18:41.000Z</time>
      </trkpt>
      <trkpt lat="42.91541" lon="0.35245">
        <ele>839</ele>
        <time>2020-11-11T13:18:42.000Z</time>
      </trkpt>
      <trkpt lat="42.91543" lon="0.3525">
        <ele>839</ele>
        <time>2020-11-11T13:18:43.000Z</time>
      </trkpt>
      <trkpt lat="42.91543" lon="0.35254">
        <ele>839</ele>
        <time>2020-11-11T13:18:44.000Z</time>
      </trkpt>
      <trkpt lat="42.91544" lon="0.35259">
        <ele>839</ele>
        <time>2020-11-11T13:18:45.000Z</time>
      </trkpt>
      <trkpt lat="42.91544" lon="0.35263">
        <ele>840</ele>
        <time>2020-11-11T13:18:46.000Z</time>
      </trkpt>
      <trkpt lat="42.91542" lon="0.35267">
        <ele>840</ele>
        <time>2020-11-11T13:18:47.000Z</time>
      </trkpt>
      <trkpt lat="42.91541" lon="0.3527">
        <ele>840</ele>
        <time>2020-11-11T13:18:48.000Z</time>
      </trkpt>
      <trkpt lat="42.91539" lon="0.35271">
        <ele>841</ele>
        <time>2020-11-11T13:18:49.000Z</time>
      </trkpt>
      <trkpt lat="42.91537" lon="0.35272">
        <ele>841</ele>
        <time>2020-11-11T13:18:50.000Z</time>
      </trkpt>
      <trkpt lat="42.91536" lon="0.35272">
        <ele>841</ele>
        <time>2020-11-11T13:18:51.000Z</time>
      </trkpt>
      <trkpt lat="42.91535" lon="0.35271">
        <ele>842</ele>
        <time>2020-11-11T13:18:52.000Z</time>
      </trkpt>
      <trkpt lat="42.91534" lon="0.35268">
        <ele>842</ele>
        <time>2020-11-11T13:18:53.000Z</time>
      </trkpt>
      <trkpt lat="42.91534" lon="0.35266">
        <ele>842</ele>
        <time>2020-11-11T13:18:54.000Z</time>
      </trkpt>
      <trkpt lat="42.91533" lon="0.35263">
        <ele>843</ele>
        <time>2020-11-11T13:18:55.000Z</time>
      </trkpt>
      <trkpt lat="42.91533" lon="0.3526">
        <ele>843</ele>
        <time>2020-11-11T13:18:56.000Z</time>
      </trkpt>
      <trkpt lat="42.91532" lon="0.35257">
        <ele>843</ele>
        <time>2020-11-11T13:18:57.000Z</time>
      </trkpt>
      <trkpt lat="42.9153" lon="0.35254">
        <ele>844</ele>
        <time>2020-11-11T13:18:58.000Z</time>
      </trkpt>
      <trkpt lat="42.91529" lon="0.35251">
        <ele>844</ele>
        <time>2020-11-11T13:18:59.000Z</time>
      </trkpt>
      <trkpt lat="42.91528" lon="0.35248">
        <ele>844</ele>
        <time>2020-11-11T13:19:00.000Z</time>
      </trkpt>
      <trkpt lat="42.91526" lon="0.35245">
        <ele>844</ele>
        <time>2020-11-11T13:19:01.000Z</time>
      </trkpt>
      <trkpt lat="42.91525" lon="0.35242">
        <ele>845</ele>
        <time>2020-11-11T13:19:02.000Z</time>
      </trkpt>
      <trkpt lat="42.91523" lon="0.35239">
        <ele>845</ele>
        <time>2020-11-11T13:19:03.000Z</time>
      </trkpt>
      <trkpt lat="42.91522" lon="0.35236">
        <ele>845</ele>
        <time>2020-11-11T13:19:04.000Z</time>
      </trkpt>
      <trkpt lat="42.9152" lon="0.35233">
        <ele>845</ele>
        <time>2020-11-11T13:19:05.000Z</time>
      </trkpt>
      <trkpt lat="42.91519" lon="0.3523">
        <ele>845</ele>
        <time>2020-11-11T13:19:06.000Z</time>
      </trkpt>
      <trkpt lat="42.91517" lon="0.35227">
        <ele>845</ele>
        <time>2020-11-11T13:19:07.000Z</time>
      </trkpt>
      <trkpt lat="42.91516" lon="0.35224">
        <ele>845</ele>
        <time>2020-11-11T13:19:08.000Z</time>
      </trkpt>
      <trkpt lat="42.91515" lon="0.35221">
        <ele>846</ele>
        <time>2020-11-11T13:19:09.000Z</time>
      </trkpt>
      <trkpt lat="42.91513" lon="0.35218">
        <ele>846</ele>
        <time>2020-11-11T13:19:10.000Z</time>
      </trkpt>
      <trkpt lat="42.91512" lon="0.35215">
        <ele>846</ele>
        <time>2020-11-11T13:19:11.000Z</time>
      </trkpt>
      <trkpt lat="42.91512" lon="0.35212">
        <ele>846</ele>
        <time>2020-11-11T13:19:12.000Z</time>
      </trkpt>
      <trkpt lat="42.91511" lon="0.35209">
        <ele>846</ele>
        <time>2020-11-11T13:19:13.000Z</time>
      </trkpt>
      <trkpt lat="42.91511" lon="0.35205">
        <ele>847</ele>
        <time>2020-11-11T13:19:14.000Z</time>
      </trkpt>
      <trkpt lat="42.91511" lon="0.35202">
        <ele>847</ele>
        <time>2020-11-11T13:19:15.000Z</time>
      </trkpt>
      <trkpt lat="42.91512" lon="0.352">
        <ele>847</ele>
        <time>2020-11-11T13:19:16.000Z</time>
      </trkpt>
      <trkpt lat="42.91514" lon="0.35197">
        <ele>847</ele>
        <time>2020-11-11T13:19:17.000Z</time>
      </trkpt>
      <trkpt lat="42.91516" lon="0.35195">
        <ele>848</ele>
        <time>2020-11-11T13:19:18.000Z</time>
      </trkpt>
      <trkpt lat="42.91518" lon="0.35193">
        <ele>848</ele>
        <time>2020-11-11T13:19:19.000Z</time>
      </trkpt>
      <trkpt lat="42.91521" lon="0.35191">
        <ele>848</ele>
        <time>2020-11-11T13:19:20.000Z</time>
      </trkpt>
      <trkpt lat="42.91524" lon="0.35189">
        <ele>849</ele>
        <time>2020-11-11T13:19:21.000Z</time>
      </trkpt>
      <trkpt lat="42.91527" lon="0.35186">
        <ele>849</ele>
        <time>2020-11-11T13:19:22.000Z</time>
      </trkpt>
      <trkpt lat="42.9153" lon="0.35184">
        <ele>849</ele>
        <time>2020-11-11T13:19:23.000Z</time>
      </trkpt>
      <trkpt lat="42.91533" lon="0.35181">
        <ele>850</ele>
        <time>2020-11-11T13:19:24.000Z</time>
      </trkpt>
      <trkpt lat="42.91535" lon="0.35177">
        <ele>850</ele>
        <time>2020-11-11T13:19:25.000Z</time>
      </trkpt>
      <trkpt lat="42.91537" lon="0.35173">
        <ele>850</ele>
        <time>2020-11-11T13:19:26.000Z</time>
      </trkpt>
      <trkpt lat="42.91538" lon="0.35169">
        <ele>851</ele>
        <time>2020-11-11T13:19:27.000Z</time>
      </trkpt>
      <trkpt lat="42.91539" lon="0.35165">
        <ele>851</ele>
        <time>2020-11-11T13:19:28.000Z</time>
      </trkpt>
      <trkpt lat="42.91539" lon="0.35161">
        <ele>851</ele>
        <time>2020-11-11T13:19:29.000Z</time>
      </trkpt>
      <trkpt lat="42.91539" lon="0.35156">
        <ele>852</ele>
        <time>2020-11-11T13:19:30.000Z</time>
      </trkpt>
      <trkpt lat="42.91539" lon="0.35151">
        <ele>852</ele>
        <time>2020-11-11T13:19:31.000Z</time>
      </trkpt>
      <trkpt lat="42.91538" lon="0.35147">
        <ele>852</ele>
        <time>2020-11-11T13:19:32.000Z</time>
      </trkpt>
      <trkpt lat="42.91537" lon="0.35142">
        <ele>853</ele>
        <time>2020-11-11T13:19:33.000Z</time>
      </trkpt>
      <trkpt lat="42.91537" lon="0.35137">
        <ele>853</ele>
        <time>2020-11-11T13:19:34.000Z</time>
      </trkpt>
      <trkpt lat="42.91536" lon="0.35132">
        <ele>853</ele>
        <time>2020-11-11T13:19:35.000Z</time>
      </trkpt>
      <trkpt lat="42.91536" lon="0.35127">
        <ele>854</ele>
        <time>2020-11-11T13:19:36.000Z</time>
      </trkpt>
      <trkpt lat="42.91536" lon="0.35122">
        <ele>854</ele>
        <time>2020-11-11T13:19:37.000Z</time>
      </trkpt>
      <trkpt lat="42.91535" lon="0.35118">
        <ele>854</ele>
        <time>2020-11-11T13:19:38.000Z</time>
      </trkpt>
      <trkpt lat="42.91535" lon="0.35113">
        <ele>854</ele>
        <time>2020-11-11T13:19:39.000Z</time>
      </trkpt>
      <trkpt lat="42.91535" lon="0.3511">
        <ele>854</ele>
        <time>2020-11-11T13:19:40.000Z</time>
      </trkpt>
      <trkpt lat="42.91535" lon="0.35107">
        <ele>854</ele>
        <time>2020-11-11T13:19:41.000Z</time>
      </trkpt>
      <trkpt lat="42.91536" lon="0.35104">
        <ele>856</ele>
        <time>2020-11-11T13:19:42.000Z</time>
      </trkpt>
      <trkpt lat="42.91536" lon="0.35101">
        <ele>856</ele>
        <time>2020-11-11T13:19:43.000Z</time>
      </trkpt>
      <trkpt lat="42.91537" lon="0.35099">
        <ele>856</ele>
        <time>2020-11-11T13:19:44.000Z</time>
      </trkpt>
      <trkpt lat="42.91537" lon="0.35096">
        <ele>857</ele>
        <time>2020-11-11T13:19:45.000Z</time>
      </trkpt>
      <trkpt lat="42.91536" lon="0.35092">
        <ele>857</ele>
        <time>2020-11-11T13:19:46.000Z</time>
      </trkpt>
      <trkpt lat="42.91536" lon="0.35088">
        <ele>857</ele>
        <time>2020-11-11T13:19:47.000Z</time>
      </trkpt>
      <trkpt lat="42.91536" lon="0.35083">
        <ele>858</ele>
        <time>2020-11-11T13:19:48.000Z</time>
      </trkpt>
      <trkpt lat="42.91536" lon="0.35079">
        <ele>858</ele>
        <time>2020-11-11T13:19:49.000Z</time>
      </trkpt>
      <trkpt lat="42.91536" lon="0.35075">
        <ele>858</ele>
        <time>2020-11-11T13:19:50.000Z</time>
      </trkpt>
      <trkpt lat="42.91536" lon="0.35071">
        <ele>859</ele>
        <time>2020-11-11T13:19:51.000Z</time>
      </trkpt>
      <trkpt lat="42.91537" lon="0.35067">
        <ele>859</ele>
        <time>2020-11-11T13:19:52.000Z</time>
      </trkpt>
      <trkpt lat="42.91537" lon="0.35063">
        <ele>860</ele>
        <time>2020-11-11T13:19:53.000Z</time>
      </trkpt>
      <trkpt lat="42.91537" lon="0.35059">
        <ele>860</ele>
        <time>2020-11-11T13:19:54.000Z</time>
      </trkpt>
      <trkpt lat="42.91538" lon="0.35055">
        <ele>861</ele>
        <time>2020-11-11T13:19:55.000Z</time>
      </trkpt>
      <trkpt lat="42.91538" lon="0.35051">
        <ele>861</ele>
        <time>2020-11-11T13:19:56.000Z</time>
      </trkpt>
      <trkpt lat="42.91538" lon="0.35048">
        <ele>862</ele>
        <time>2020-11-11T13:19:57.000Z</time>
      </trkpt>
      <trkpt lat="42.91538" lon="0.35044">
        <ele>862</ele>
        <time>2020-11-11T13:19:58.000Z</time>
      </trkpt>
      <trkpt lat="42.91538" lon="0.35041">
        <ele>862</ele>
        <time>2020-11-11T13:19:59.000Z</time>
      </trkpt>
      <trkpt lat="42.91537" lon="0.35037">
        <ele>862</ele>
        <time>2020-11-11T13:20:00.000Z</time>
      </trkpt>
      <trkpt lat="42.91537" lon="0.35034">
        <ele>863</ele>
        <time>2020-11-11T13:20:01.000Z</time>
      </trkpt>
      <trkpt lat="42.91538" lon="0.35024">
        <ele>864</ele>
        <time>2020-11-11T13:20:03.000Z</time>
      </trkpt>
      <trkpt lat="42.91539" lon="0.35021">
        <ele>864</ele>
        <time>2020-11-11T13:20:04.000Z</time>
      </trkpt>
      <trkpt lat="42.9154" lon="0.35017">
        <ele>864</ele>
        <time>2020-11-11T13:20:05.000Z</time>
      </trkpt>
      <trkpt lat="42.91541" lon="0.35013">
        <ele>865</ele>
        <time>2020-11-11T13:20:06.000Z</time>
      </trkpt>
      <trkpt lat="42.91542" lon="0.35009">
        <ele>865</ele>
        <time>2020-11-11T13:20:07.000Z</time>
      </trkpt>
      <trkpt lat="42.91544" lon="0.35005">
        <ele>865</ele>
        <time>2020-11-11T13:20:08.000Z</time>
      </trkpt>
      <trkpt lat="42.91545" lon="0.35001">
        <ele>866</ele>
        <time>2020-11-11T13:20:09.000Z</time>
      </trkpt>
      <trkpt lat="42.91547" lon="0.34997">
        <ele>866</ele>
        <time>2020-11-11T13:20:10.000Z</time>
      </trkpt>
      <trkpt lat="42.91549" lon="0.34994">
        <ele>867</ele>
        <time>2020-11-11T13:20:11.000Z</time>
      </trkpt>
      <trkpt lat="42.91551" lon="0.34991">
        <ele>867</ele>
        <time>2020-11-11T13:20:12.000Z</time>
      </trkpt>
      <trkpt lat="42.91553" lon="0.34988">
        <ele>868</ele>
        <time>2020-11-11T13:20:13.000Z</time>
      </trkpt>
      <trkpt lat="42.91555" lon="0.34986">
        <ele>868</ele>
        <time>2020-11-11T13:20:14.000Z</time>
      </trkpt>
      <trkpt lat="42.91557" lon="0.34983">
        <ele>868</ele>
        <time>2020-11-11T13:20:15.000Z</time>
      </trkpt>
      <trkpt lat="42.91559" lon="0.3498">
        <ele>869</ele>
        <time>2020-11-11T13:20:16.000Z</time>
      </trkpt>
      <trkpt lat="42.91561" lon="0.34977">
        <ele>869</ele>
        <time>2020-11-11T13:20:17.000Z</time>
      </trkpt>
      <trkpt lat="42.91563" lon="0.34974">
        <ele>870</ele>
        <time>2020-11-11T13:20:18.000Z</time>
      </trkpt>
      <trkpt lat="42.91565" lon="0.3497">
        <ele>870</ele>
        <time>2020-11-11T13:20:19.000Z</time>
      </trkpt>
      <trkpt lat="42.91568" lon="0.34966">
        <ele>870</ele>
        <time>2020-11-11T13:20:20.000Z</time>
      </trkpt>
      <trkpt lat="42.9157" lon="0.34963">
        <ele>872</ele>
        <time>2020-11-11T13:20:21.000Z</time>
      </trkpt>
      <trkpt lat="42.91573" lon="0.34959">
        <ele>872</ele>
        <time>2020-11-11T13:20:22.000Z</time>
      </trkpt>
      <trkpt lat="42.91575" lon="0.34956">
        <ele>873</ele>
        <time>2020-11-11T13:20:23.000Z</time>
      </trkpt>
      <trkpt lat="42.91578" lon="0.34953">
        <ele>873</ele>
        <time>2020-11-11T13:20:24.000Z</time>
      </trkpt>
      <trkpt lat="42.9158" lon="0.34951">
        <ele>873</ele>
        <time>2020-11-11T13:20:25.000Z</time>
      </trkpt>
      <trkpt lat="42.91582" lon="0.34948">
        <ele>873</ele>
        <time>2020-11-11T13:20:26.000Z</time>
      </trkpt>
      <trkpt lat="42.91585" lon="0.34945">
        <ele>874</ele>
        <time>2020-11-11T13:20:27.000Z</time>
      </trkpt>
      <trkpt lat="42.91587" lon="0.34942">
        <ele>874</ele>
        <time>2020-11-11T13:20:28.000Z</time>
      </trkpt>
      <trkpt lat="42.9159" lon="0.3494">
        <ele>875</ele>
        <time>2020-11-11T13:20:29.000Z</time>
      </trkpt>
      <trkpt lat="42.91592" lon="0.34937">
        <ele>875</ele>
        <time>2020-11-11T13:20:30.000Z</time>
      </trkpt>
      <trkpt lat="42.91594" lon="0.34934">
        <ele>876</ele>
        <time>2020-11-11T13:20:31.000Z</time>
      </trkpt>
      <trkpt lat="42.91596" lon="0.34931">
        <ele>876</ele>
        <time>2020-11-11T13:20:32.000Z</time>
      </trkpt>
      <trkpt lat="42.91597" lon="0.34929">
        <ele>876</ele>
        <time>2020-11-11T13:20:33.000Z</time>
      </trkpt>
      <trkpt lat="42.91599" lon="0.34926">
        <ele>877</ele>
        <time>2020-11-11T13:20:34.000Z</time>
      </trkpt>
      <trkpt lat="42.91599" lon="0.34923">
        <ele>877</ele>
        <time>2020-11-11T13:20:35.000Z</time>
      </trkpt>
      <trkpt lat="42.916" lon="0.3492">
        <ele>877</ele>
        <time>2020-11-11T13:20:36.000Z</time>
      </trkpt>
      <trkpt lat="42.91601" lon="0.34916">
        <ele>878</ele>
        <time>2020-11-11T13:20:37.000Z</time>
      </trkpt>
      <trkpt lat="42.91601" lon="0.34912">
        <ele>878</ele>
        <time>2020-11-11T13:20:38.000Z</time>
      </trkpt>
      <trkpt lat="42.91602" lon="0.34908">
        <ele>878</ele>
        <time>2020-11-11T13:20:39.000Z</time>
      </trkpt>
      <trkpt lat="42.91604" lon="0.34904">
        <ele>879</ele>
        <time>2020-11-11T13:20:40.000Z</time>
      </trkpt>
      <trkpt lat="42.91605" lon="0.349">
        <ele>879</ele>
        <time>2020-11-11T13:20:41.000Z</time>
      </trkpt>
      <trkpt lat="42.91606" lon="0.34896">
        <ele>879</ele>
        <time>2020-11-11T13:20:42.000Z</time>
      </trkpt>
      <trkpt lat="42.91608" lon="0.34892">
        <ele>880</ele>
        <time>2020-11-11T13:20:43.000Z</time>
      </trkpt>
      <trkpt lat="42.91609" lon="0.34888">
        <ele>880</ele>
        <time>2020-11-11T13:20:44.000Z</time>
      </trkpt>
      <trkpt lat="42.91611" lon="0.34884">
        <ele>880</ele>
        <time>2020-11-11T13:20:45.000Z</time>
      </trkpt>
      <trkpt lat="42.91612" lon="0.3488">
        <ele>881</ele>
        <time>2020-11-11T13:20:46.000Z</time>
      </trkpt>
      <trkpt lat="42.91614" lon="0.34876">
        <ele>881</ele>
        <time>2020-11-11T13:20:47.000Z</time>
      </trkpt>
      <trkpt lat="42.91616" lon="0.34872">
        <ele>882</ele>
        <time>2020-11-11T13:20:48.000Z</time>
      </trkpt>
      <trkpt lat="42.91618" lon="0.34868">
        <ele>882</ele>
        <time>2020-11-11T13:20:49.000Z</time>
      </trkpt>
      <trkpt lat="42.91619" lon="0.34864">
        <ele>882</ele>
        <time>2020-11-11T13:20:50.000Z</time>
      </trkpt>
      <trkpt lat="42.91621" lon="0.34861">
        <ele>883</ele>
        <time>2020-11-11T13:20:51.000Z</time>
      </trkpt>
      <trkpt lat="42.91623" lon="0.34857">
        <ele>883</ele>
        <time>2020-11-11T13:20:52.000Z</time>
      </trkpt>
      <trkpt lat="42.91626" lon="0.34854">
        <ele>884</ele>
        <time>2020-11-11T13:20:53.000Z</time>
      </trkpt>
      <trkpt lat="42.91628" lon="0.34851">
        <ele>884</ele>
        <time>2020-11-11T13:20:54.000Z</time>
      </trkpt>
      <trkpt lat="42.9163" lon="0.34848">
        <ele>884</ele>
        <time>2020-11-11T13:20:55.000Z</time>
      </trkpt>
      <trkpt lat="42.91632" lon="0.34844">
        <ele>885</ele>
        <time>2020-11-11T13:20:56.000Z</time>
      </trkpt>
      <trkpt lat="42.91634" lon="0.34841">
        <ele>885</ele>
        <time>2020-11-11T13:20:57.000Z</time>
      </trkpt>
      <trkpt lat="42.91636" lon="0.34837">
        <ele>885</ele>
        <time>2020-11-11T13:20:58.000Z</time>
      </trkpt>
      <trkpt lat="42.91638" lon="0.34834">
        <ele>886</ele>
        <time>2020-11-11T13:20:59.000Z</time>
      </trkpt>
      <trkpt lat="42.9164" lon="0.3483">
        <ele>886</ele>
        <time>2020-11-11T13:21:00.000Z</time>
      </trkpt>
      <trkpt lat="42.91642" lon="0.34825">
        <ele>887</ele>
        <time>2020-11-11T13:21:01.000Z</time>
      </trkpt>
      <trkpt lat="42.91643" lon="0.34821">
        <ele>887</ele>
        <time>2020-11-11T13:21:02.000Z</time>
      </trkpt>
      <trkpt lat="42.91644" lon="0.34816">
        <ele>888</ele>
        <time>2020-11-11T13:21:03.000Z</time>
      </trkpt>
      <trkpt lat="42.91645" lon="0.34811">
        <ele>888</ele>
        <time>2020-11-11T13:21:04.000Z</time>
      </trkpt>
      <trkpt lat="42.91646" lon="0.34806">
        <ele>889</ele>
        <time>2020-11-11T13:21:05.000Z</time>
      </trkpt>
      <trkpt lat="42.91647" lon="0.34802">
        <ele>889</ele>
        <time>2020-11-11T13:21:06.000Z</time>
      </trkpt>
      <trkpt lat="42.91648" lon="0.34798">
        <ele>890</ele>
        <time>2020-11-11T13:21:07.000Z</time>
      </trkpt>
      <trkpt lat="42.91648" lon="0.34793">
        <ele>890</ele>
        <time>2020-11-11T13:21:08.000Z</time>
      </trkpt>
      <trkpt lat="42.91649" lon="0.34788">
        <ele>891</ele>
        <time>2020-11-11T13:21:09.000Z</time>
      </trkpt>
      <trkpt lat="42.9165" lon="0.34784">
        <ele>891</ele>
        <time>2020-11-11T13:21:10.000Z</time>
      </trkpt>
      <trkpt lat="42.91651" lon="0.3478">
        <ele>892</ele>
        <time>2020-11-11T13:21:11.000Z</time>
      </trkpt>
      <trkpt lat="42.91652" lon="0.34775">
        <ele>892</ele>
        <time>2020-11-11T13:21:12.000Z</time>
      </trkpt>
      <trkpt lat="42.91653" lon="0.34771">
        <ele>893</ele>
        <time>2020-11-11T13:21:13.000Z</time>
      </trkpt>
      <trkpt lat="42.91654" lon="0.34768">
        <ele>893</ele>
        <time>2020-11-11T13:21:14.000Z</time>
      </trkpt>
      <trkpt lat="42.91654" lon="0.34764">
        <ele>894</ele>
        <time>2020-11-11T13:21:15.000Z</time>
      </trkpt>
      <trkpt lat="42.91654" lon="0.3476">
        <ele>894</ele>
        <time>2020-11-11T13:21:16.000Z</time>
      </trkpt>
      <trkpt lat="42.91654" lon="0.34756">
        <ele>894</ele>
        <time>2020-11-11T13:21:17.000Z</time>
      </trkpt>
      <trkpt lat="42.91653" lon="0.34752">
        <ele>894</ele>
        <time>2020-11-11T13:21:18.000Z</time>
      </trkpt>
      <trkpt lat="42.91652" lon="0.34749">
        <ele>894</ele>
        <time>2020-11-11T13:21:19.000Z</time>
      </trkpt>
      <trkpt lat="42.9165" lon="0.34746">
        <ele>895</ele>
        <time>2020-11-11T13:21:20.000Z</time>
      </trkpt>
      <trkpt lat="42.91648" lon="0.34742">
        <ele>895</ele>
        <time>2020-11-11T13:21:21.000Z</time>
      </trkpt>
      <trkpt lat="42.91646" lon="0.34739">
        <ele>895</ele>
        <time>2020-11-11T13:21:22.000Z</time>
      </trkpt>
      <trkpt lat="42.91645" lon="0.34736">
        <ele>896</ele>
        <time>2020-11-11T13:21:23.000Z</time>
      </trkpt>
      <trkpt lat="42.91643" lon="0.34733">
        <ele>896</ele>
        <time>2020-11-11T13:21:24.000Z</time>
      </trkpt>
      <trkpt lat="42.91641" lon="0.34729">
        <ele>896</ele>
        <time>2020-11-11T13:21:25.000Z</time>
      </trkpt>
      <trkpt lat="42.91636" lon="0.34722">
        <ele>898</ele>
        <time>2020-11-11T13:21:27.000Z</time>
      </trkpt>
      <trkpt lat="42.91634" lon="0.34719">
        <ele>898</ele>
        <time>2020-11-11T13:21:28.000Z</time>
      </trkpt>
      <trkpt lat="42.91632" lon="0.34715">
        <ele>899</ele>
        <time>2020-11-11T13:21:29.000Z</time>
      </trkpt>
      <trkpt lat="42.9163" lon="0.34712">
        <ele>899</ele>
        <time>2020-11-11T13:21:30.000Z</time>
      </trkpt>
      <trkpt lat="42.91628" lon="0.34709">
        <ele>900</ele>
        <time>2020-11-11T13:21:31.000Z</time>
      </trkpt>
      <trkpt lat="42.91625" lon="0.34706">
        <ele>900</ele>
        <time>2020-11-11T13:21:32.000Z</time>
      </trkpt>
      <trkpt lat="42.91623" lon="0.34703">
        <ele>900</ele>
        <time>2020-11-11T13:21:33.000Z</time>
      </trkpt>
      <trkpt lat="42.91621" lon="0.34701">
        <ele>900</ele>
        <time>2020-11-11T13:21:34.000Z</time>
      </trkpt>
      <trkpt lat="42.91619" lon="0.34699">
        <ele>901</ele>
        <time>2020-11-11T13:21:35.000Z</time>
      </trkpt>
      <trkpt lat="42.91617" lon="0.34696">
        <ele>901</ele>
        <time>2020-11-11T13:21:36.000Z</time>
      </trkpt>
      <trkpt lat="42.91615" lon="0.34694">
        <ele>902</ele>
        <time>2020-11-11T13:21:37.000Z</time>
      </trkpt>
      <trkpt lat="42.91613" lon="0.34691">
        <ele>902</ele>
        <time>2020-11-11T13:21:38.000Z</time>
      </trkpt>
      <trkpt lat="42.91611" lon="0.34688">
        <ele>903</ele>
        <time>2020-11-11T13:21:39.000Z</time>
      </trkpt>
      <trkpt lat="42.9161" lon="0.34685">
        <ele>903</ele>
        <time>2020-11-11T13:21:40.000Z</time>
      </trkpt>
      <trkpt lat="42.91609" lon="0.34681">
        <ele>904</ele>
        <time>2020-11-11T13:21:41.000Z</time>
      </trkpt>
      <trkpt lat="42.91608" lon="0.34677">
        <ele>904</ele>
        <time>2020-11-11T13:21:42.000Z</time>
      </trkpt>
      <trkpt lat="42.91608" lon="0.34673">
        <ele>905</ele>
        <time>2020-11-11T13:21:43.000Z</time>
      </trkpt>
      <trkpt lat="42.91608" lon="0.34669">
        <ele>905</ele>
        <time>2020-11-11T13:21:44.000Z</time>
      </trkpt>
      <trkpt lat="42.91608" lon="0.34666">
        <ele>906</ele>
        <time>2020-11-11T13:21:45.000Z</time>
      </trkpt>
      <trkpt lat="42.91609" lon="0.34663">
        <ele>906</ele>
        <time>2020-11-11T13:21:46.000Z</time>
      </trkpt>
      <trkpt lat="42.91611" lon="0.3466">
        <ele>907</ele>
        <time>2020-11-11T13:21:47.000Z</time>
      </trkpt>
      <trkpt lat="42.91613" lon="0.34658">
        <ele>907</ele>
        <time>2020-11-11T13:21:48.000Z</time>
      </trkpt>
      <trkpt lat="42.91615" lon="0.34656">
        <ele>908</ele>
        <time>2020-11-11T13:21:49.000Z</time>
      </trkpt>
      <trkpt lat="42.91617" lon="0.34654">
        <ele>908</ele>
        <time>2020-11-11T13:21:50.000Z</time>
      </trkpt>
      <trkpt lat="42.9162" lon="0.34652">
        <ele>908</ele>
        <time>2020-11-11T13:21:51.000Z</time>
      </trkpt>
      <trkpt lat="42.91622" lon="0.3465">
        <ele>908</ele>
        <time>2020-11-11T13:21:52.000Z</time>
      </trkpt>
      <trkpt lat="42.91623" lon="0.34648">
        <ele>909</ele>
        <time>2020-11-11T13:21:53.000Z</time>
      </trkpt>
      <trkpt lat="42.91625" lon="0.34645">
        <ele>909</ele>
        <time>2020-11-11T13:21:54.000Z</time>
      </trkpt>
      <trkpt lat="42.91627" lon="0.34643">
        <ele>910</ele>
        <time>2020-11-11T13:21:55.000Z</time>
      </trkpt>
      <trkpt lat="42.91629" lon="0.3464">
        <ele>910</ele>
        <time>2020-11-11T13:21:56.000Z</time>
      </trkpt>
      <trkpt lat="42.91631" lon="0.34638">
        <ele>911</ele>
        <time>2020-11-11T13:21:57.000Z</time>
      </trkpt>
      <trkpt lat="42.91633" lon="0.34636">
        <ele>911</ele>
        <time>2020-11-11T13:21:58.000Z</time>
      </trkpt>
      <trkpt lat="42.91635" lon="0.34634">
        <ele>911</ele>
        <time>2020-11-11T13:21:59.000Z</time>
      </trkpt>
      <trkpt lat="42.91636" lon="0.34632">
        <ele>912</ele>
        <time>2020-11-11T13:22:00.000Z</time>
      </trkpt>
      <trkpt lat="42.91638" lon="0.3463">
        <ele>912</ele>
        <time>2020-11-11T13:22:01.000Z</time>
      </trkpt>
      <trkpt lat="42.9164" lon="0.34629">
        <ele>913</ele>
        <time>2020-11-11T13:22:02.000Z</time>
      </trkpt>
      <trkpt lat="42.91642" lon="0.34627">
        <ele>913</ele>
        <time>2020-11-11T13:22:03.000Z</time>
      </trkpt>
      <trkpt lat="42.91643" lon="0.34625">
        <ele>913</ele>
        <time>2020-11-11T13:22:04.000Z</time>
      </trkpt>
      <trkpt lat="42.91644" lon="0.34624">
        <ele>914</ele>
        <time>2020-11-11T13:22:05.000Z</time>
      </trkpt>
      <trkpt lat="42.91646" lon="0.34622">
        <ele>914</ele>
        <time>2020-11-11T13:22:06.000Z</time>
      </trkpt>
      <trkpt lat="42.91648" lon="0.3462">
        <ele>914</ele>
        <time>2020-11-11T13:22:07.000Z</time>
      </trkpt>
      <trkpt lat="42.9165" lon="0.34617">
        <ele>915</ele>
        <time>2020-11-11T13:22:08.000Z</time>
      </trkpt>
      <trkpt lat="42.91652" lon="0.34615">
        <ele>915</ele>
        <time>2020-11-11T13:22:09.000Z</time>
      </trkpt>
      <trkpt lat="42.91654" lon="0.34612">
        <ele>916</ele>
        <time>2020-11-11T13:22:10.000Z</time>
      </trkpt>
      <trkpt lat="42.91656" lon="0.34609">
        <ele>916</ele>
        <time>2020-11-11T13:22:11.000Z</time>
      </trkpt>
      <trkpt lat="42.91658" lon="0.34606">
        <ele>916</ele>
        <time>2020-11-11T13:22:12.000Z</time>
      </trkpt>
      <trkpt lat="42.9166" lon="0.34603">
        <ele>917</ele>
        <time>2020-11-11T13:22:13.000Z</time>
      </trkpt>
      <trkpt lat="42.91662" lon="0.34601">
        <ele>917</ele>
        <time>2020-11-11T13:22:14.000Z</time>
      </trkpt>
      <trkpt lat="42.91664" lon="0.34598">
        <ele>917</ele>
        <time>2020-11-11T13:22:15.000Z</time>
      </trkpt>
      <trkpt lat="42.91666" lon="0.34596">
        <ele>918</ele>
        <time>2020-11-11T13:22:16.000Z</time>
      </trkpt>
      <trkpt lat="42.91668" lon="0.34594">
        <ele>918</ele>
        <time>2020-11-11T13:22:17.000Z</time>
      </trkpt>
      <trkpt lat="42.9167" lon="0.34591">
        <ele>918</ele>
        <time>2020-11-11T13:22:18.000Z</time>
      </trkpt>
      <trkpt lat="42.91672" lon="0.34588">
        <ele>919</ele>
        <time>2020-11-11T13:22:19.000Z</time>
      </trkpt>
      <trkpt lat="42.91673" lon="0.34585">
        <ele>919</ele>
        <time>2020-11-11T13:22:20.000Z</time>
      </trkpt>
      <trkpt lat="42.91675" lon="0.34582">
        <ele>919</ele>
        <time>2020-11-11T13:22:21.000Z</time>
      </trkpt>
      <trkpt lat="42.91677" lon="0.34579">
        <ele>920</ele>
        <time>2020-11-11T13:22:22.000Z</time>
      </trkpt>
      <trkpt lat="42.91678" lon="0.34576">
        <ele>920</ele>
        <time>2020-11-11T13:22:23.000Z</time>
      </trkpt>
      <trkpt lat="42.9168" lon="0.34573">
        <ele>920</ele>
        <time>2020-11-11T13:22:24.000Z</time>
      </trkpt>
      <trkpt lat="42.91682" lon="0.3457">
        <ele>921</ele>
        <time>2020-11-11T13:22:25.000Z</time>
      </trkpt>
      <trkpt lat="42.91684" lon="0.34568">
        <ele>921</ele>
        <time>2020-11-11T13:22:26.000Z</time>
      </trkpt>
      <trkpt lat="42.91685" lon="0.34565">
        <ele>921</ele>
        <time>2020-11-11T13:22:27.000Z</time>
      </trkpt>
      <trkpt lat="42.91687" lon="0.34563">
        <ele>922</ele>
        <time>2020-11-11T13:22:28.000Z</time>
      </trkpt>
      <trkpt lat="42.91689" lon="0.3456">
        <ele>922</ele>
        <time>2020-11-11T13:22:29.000Z</time>
      </trkpt>
      <trkpt lat="42.9169" lon="0.34558">
        <ele>922</ele>
        <time>2020-11-11T13:22:30.000Z</time>
      </trkpt>
      <trkpt lat="42.91692" lon="0.34555">
        <ele>923</ele>
        <time>2020-11-11T13:22:31.000Z</time>
      </trkpt>
      <trkpt lat="42.91693" lon="0.34552">
        <ele>923</ele>
        <time>2020-11-11T13:22:32.000Z</time>
      </trkpt>
      <trkpt lat="42.91694" lon="0.34548">
        <ele>924</ele>
        <time>2020-11-11T13:22:33.000Z</time>
      </trkpt>
      <trkpt lat="42.91694" lon="0.34543">
        <ele>924</ele>
        <time>2020-11-11T13:22:34.000Z</time>
      </trkpt>
      <trkpt lat="42.91695" lon="0.34539">
        <ele>925</ele>
        <time>2020-11-11T13:22:35.000Z</time>
      </trkpt>
      <trkpt lat="42.91696" lon="0.34535">
        <ele>925</ele>
        <time>2020-11-11T13:22:36.000Z</time>
      </trkpt>
      <trkpt lat="42.91698" lon="0.34533">
        <ele>925</ele>
        <time>2020-11-11T13:22:37.000Z</time>
      </trkpt>
      <trkpt lat="42.917" lon="0.34531">
        <ele>926</ele>
        <time>2020-11-11T13:22:38.000Z</time>
      </trkpt>
      <trkpt lat="42.91702" lon="0.34529">
        <ele>926</ele>
        <time>2020-11-11T13:22:39.000Z</time>
      </trkpt>
      <trkpt lat="42.91703" lon="0.34526">
        <ele>927</ele>
        <time>2020-11-11T13:22:40.000Z</time>
      </trkpt>
      <trkpt lat="42.91705" lon="0.34524">
        <ele>927</ele>
        <time>2020-11-11T13:22:41.000Z</time>
      </trkpt>
      <trkpt lat="42.91706" lon="0.34522">
        <ele>928</ele>
        <time>2020-11-11T13:22:42.000Z</time>
      </trkpt>
      <trkpt lat="42.91708" lon="0.34519">
        <ele>928</ele>
        <time>2020-11-11T13:22:43.000Z</time>
      </trkpt>
      <trkpt lat="42.9171" lon="0.34517">
        <ele>928</ele>
        <time>2020-11-11T13:22:44.000Z</time>
      </trkpt>
      <trkpt lat="42.91711" lon="0.34515">
        <ele>929</ele>
        <time>2020-11-11T13:22:45.000Z</time>
      </trkpt>
      <trkpt lat="42.91713" lon="0.34513">
        <ele>929</ele>
        <time>2020-11-11T13:22:46.000Z</time>
      </trkpt>
      <trkpt lat="42.91714" lon="0.3451">
        <ele>929</ele>
        <time>2020-11-11T13:22:47.000Z</time>
      </trkpt>
      <trkpt lat="42.91715" lon="0.34507">
        <ele>930</ele>
        <time>2020-11-11T13:22:48.000Z</time>
      </trkpt>
      <trkpt lat="42.91716" lon="0.34505">
        <ele>930</ele>
        <time>2020-11-11T13:22:49.000Z</time>
      </trkpt>
      <trkpt lat="42.91716" lon="0.34502">
        <ele>930</ele>
        <time>2020-11-11T13:22:50.000Z</time>
      </trkpt>
      <trkpt lat="42.91715" lon="0.34499">
        <ele>931</ele>
        <time>2020-11-11T13:22:51.000Z</time>
      </trkpt>
      <trkpt lat="42.91715" lon="0.34495">
        <ele>931</ele>
        <time>2020-11-11T13:22:52.000Z</time>
      </trkpt>
      <trkpt lat="42.91715" lon="0.34492">
        <ele>931</ele>
        <time>2020-11-11T13:22:53.000Z</time>
      </trkpt>
      <trkpt lat="42.91714" lon="0.34488">
        <ele>932</ele>
        <time>2020-11-11T13:22:54.000Z</time>
      </trkpt>
      <trkpt lat="42.91714" lon="0.34485">
        <ele>932</ele>
        <time>2020-11-11T13:22:55.000Z</time>
      </trkpt>
      <trkpt lat="42.91713" lon="0.34481">
        <ele>932</ele>
        <time>2020-11-11T13:22:56.000Z</time>
      </trkpt>
      <trkpt lat="42.91712" lon="0.34477">
        <ele>933</ele>
        <time>2020-11-11T13:22:57.000Z</time>
      </trkpt>
      <trkpt lat="42.91711" lon="0.34473">
        <ele>933</ele>
        <time>2020-11-11T13:22:58.000Z</time>
      </trkpt>
      <trkpt lat="42.9171" lon="0.34469">
        <ele>933</ele>
        <time>2020-11-11T13:22:59.000Z</time>
      </trkpt>
      <trkpt lat="42.91709" lon="0.34464">
        <ele>934</ele>
        <time>2020-11-11T13:23:00.000Z</time>
      </trkpt>
      <trkpt lat="42.91709" lon="0.34459">
        <ele>934</ele>
        <time>2020-11-11T13:23:01.000Z</time>
      </trkpt>
      <trkpt lat="42.91708" lon="0.34455">
        <ele>934</ele>
        <time>2020-11-11T13:23:02.000Z</time>
      </trkpt>
      <trkpt lat="42.91707" lon="0.34451">
        <ele>935</ele>
        <time>2020-11-11T13:23:03.000Z</time>
      </trkpt>
      <trkpt lat="42.91706" lon="0.34448">
        <ele>935</ele>
        <time>2020-11-11T13:23:04.000Z</time>
      </trkpt>
      <trkpt lat="42.91704" lon="0.34444">
        <ele>935</ele>
        <time>2020-11-11T13:23:05.000Z</time>
      </trkpt>
      <trkpt lat="42.91703" lon="0.34441">
        <ele>936</ele>
        <time>2020-11-11T13:23:06.000Z</time>
      </trkpt>
      <trkpt lat="42.91702" lon="0.34438">
        <ele>936</ele>
        <time>2020-11-11T13:23:07.000Z</time>
      </trkpt>
      <trkpt lat="42.91702" lon="0.34434">
        <ele>936</ele>
        <time>2020-11-11T13:23:08.000Z</time>
      </trkpt>
      <trkpt lat="42.91701" lon="0.34431">
        <ele>937</ele>
        <time>2020-11-11T13:23:09.000Z</time>
      </trkpt>
      <trkpt lat="42.91701" lon="0.34427">
        <ele>937</ele>
        <time>2020-11-11T13:23:10.000Z</time>
      </trkpt>
      <trkpt lat="42.917" lon="0.34424">
        <ele>938</ele>
        <time>2020-11-11T13:23:11.000Z</time>
      </trkpt>
      <trkpt lat="42.917" lon="0.3442">
        <ele>938</ele>
        <time>2020-11-11T13:23:12.000Z</time>
      </trkpt>
      <trkpt lat="42.91699" lon="0.34417">
        <ele>939</ele>
        <time>2020-11-11T13:23:13.000Z</time>
      </trkpt>
      <trkpt lat="42.91697" lon="0.34413">
        <ele>939</ele>
        <time>2020-11-11T13:23:14.000Z</time>
      </trkpt>
      <trkpt lat="42.91696" lon="0.3441">
        <ele>939</ele>
        <time>2020-11-11T13:23:15.000Z</time>
      </trkpt>
      <trkpt lat="42.91694" lon="0.34407">
        <ele>940</ele>
        <time>2020-11-11T13:23:16.000Z</time>
      </trkpt>
      <trkpt lat="42.91693" lon="0.34404">
        <ele>940</ele>
        <time>2020-11-11T13:23:17.000Z</time>
      </trkpt>
      <trkpt lat="42.91692" lon="0.34401">
        <ele>940</ele>
        <time>2020-11-11T13:23:18.000Z</time>
      </trkpt>
      <trkpt lat="42.91691" lon="0.34398">
        <ele>941</ele>
        <time>2020-11-11T13:23:19.000Z</time>
      </trkpt>
      <trkpt lat="42.9169" lon="0.34395">
        <ele>941</ele>
        <time>2020-11-11T13:23:20.000Z</time>
      </trkpt>
      <trkpt lat="42.91689" lon="0.34393">
        <ele>941</ele>
        <time>2020-11-11T13:23:21.000Z</time>
      </trkpt>
      <trkpt lat="42.91689" lon="0.34391">
        <ele>942</ele>
        <time>2020-11-11T13:23:22.000Z</time>
      </trkpt>
      <trkpt lat="42.91689" lon="0.34388">
        <ele>942</ele>
        <time>2020-11-11T13:23:23.000Z</time>
      </trkpt>
      <trkpt lat="42.91689" lon="0.34386">
        <ele>943</ele>
        <time>2020-11-11T13:23:24.000Z</time>
      </trkpt>
      <trkpt lat="42.9169" lon="0.34383">
        <ele>943</ele>
        <time>2020-11-11T13:23:25.000Z</time>
      </trkpt>
      <trkpt lat="42.91691" lon="0.34381">
        <ele>943</ele>
        <time>2020-11-11T13:23:26.000Z</time>
      </trkpt>
      <trkpt lat="42.91692" lon="0.34378">
        <ele>944</ele>
        <time>2020-11-11T13:23:27.000Z</time>
      </trkpt>
      <trkpt lat="42.91693" lon="0.34375">
        <ele>944</ele>
        <time>2020-11-11T13:23:28.000Z</time>
      </trkpt>
      <trkpt lat="42.91695" lon="0.34372">
        <ele>945</ele>
        <time>2020-11-11T13:23:29.000Z</time>
      </trkpt>
      <trkpt lat="42.91696" lon="0.34369">
        <ele>945</ele>
        <time>2020-11-11T13:23:30.000Z</time>
      </trkpt>
      <trkpt lat="42.91697" lon="0.34366">
        <ele>946</ele>
        <time>2020-11-11T13:23:31.000Z</time>
      </trkpt>
      <trkpt lat="42.91698" lon="0.34363">
        <ele>946</ele>
        <time>2020-11-11T13:23:32.000Z</time>
      </trkpt>
      <trkpt lat="42.917" lon="0.34361">
        <ele>947</ele>
        <time>2020-11-11T13:23:33.000Z</time>
      </trkpt>
      <trkpt lat="42.91702" lon="0.34358">
        <ele>947</ele>
        <time>2020-11-11T13:23:34.000Z</time>
      </trkpt>
      <trkpt lat="42.91705" lon="0.34355">
        <ele>948</ele>
        <time>2020-11-11T13:23:35.000Z</time>
      </trkpt>
      <trkpt lat="42.91707" lon="0.34353">
        <ele>948</ele>
        <time>2020-11-11T13:23:36.000Z</time>
      </trkpt>
      <trkpt lat="42.91709" lon="0.34351">
        <ele>948</ele>
        <time>2020-11-11T13:23:37.000Z</time>
      </trkpt>
      <trkpt lat="42.91711" lon="0.34348">
        <ele>949</ele>
        <time>2020-11-11T13:23:38.000Z</time>
      </trkpt>
      <trkpt lat="42.91713" lon="0.34346">
        <ele>949</ele>
        <time>2020-11-11T13:23:39.000Z</time>
      </trkpt>
      <trkpt lat="42.91714" lon="0.34343">
        <ele>950</ele>
        <time>2020-11-11T13:23:40.000Z</time>
      </trkpt>
      <trkpt lat="42.91716" lon="0.34341">
        <ele>950</ele>
        <time>2020-11-11T13:23:41.000Z</time>
      </trkpt>
      <trkpt lat="42.91717" lon="0.34338">
        <ele>950</ele>
        <time>2020-11-11T13:23:42.000Z</time>
      </trkpt>
      <trkpt lat="42.91721" lon="0.34334">
        <ele>951</ele>
        <time>2020-11-11T13:23:44.000Z</time>
      </trkpt>
      <trkpt lat="42.91723" lon="0.34333">
        <ele>951</ele>
        <time>2020-11-11T13:23:45.000Z</time>
      </trkpt>
      <trkpt lat="42.91725" lon="0.3433">
        <ele>952</ele>
        <time>2020-11-11T13:23:46.000Z</time>
      </trkpt>
      <trkpt lat="42.91728" lon="0.34328">
        <ele>952</ele>
        <time>2020-11-11T13:23:47.000Z</time>
      </trkpt>
      <trkpt lat="42.9173" lon="0.34326">
        <ele>952</ele>
        <time>2020-11-11T13:23:48.000Z</time>
      </trkpt>
      <trkpt lat="42.91732" lon="0.34324">
        <ele>953</ele>
        <time>2020-11-11T13:23:49.000Z</time>
      </trkpt>
      <trkpt lat="42.91735" lon="0.34322">
        <ele>953</ele>
        <time>2020-11-11T13:23:50.000Z</time>
      </trkpt>
      <trkpt lat="42.91737" lon="0.34319">
        <ele>953</ele>
        <time>2020-11-11T13:23:51.000Z</time>
      </trkpt>
      <trkpt lat="42.9174" lon="0.34317">
        <ele>954</ele>
        <time>2020-11-11T13:23:52.000Z</time>
      </trkpt>
      <trkpt lat="42.91742" lon="0.34315">
        <ele>954</ele>
        <time>2020-11-11T13:23:53.000Z</time>
      </trkpt>
      <trkpt lat="42.91744" lon="0.34313">
        <ele>954</ele>
        <time>2020-11-11T13:23:54.000Z</time>
      </trkpt>
      <trkpt lat="42.91746" lon="0.34311">
        <ele>955</ele>
        <time>2020-11-11T13:23:55.000Z</time>
      </trkpt>
      <trkpt lat="42.91749" lon="0.34309">
        <ele>955</ele>
        <time>2020-11-11T13:23:56.000Z</time>
      </trkpt>
      <trkpt lat="42.91751" lon="0.34307">
        <ele>955</ele>
        <time>2020-11-11T13:23:57.000Z</time>
      </trkpt>
      <trkpt lat="42.91753" lon="0.34305">
        <ele>956</ele>
        <time>2020-11-11T13:23:58.000Z</time>
      </trkpt>
      <trkpt lat="42.91755" lon="0.34303">
        <ele>956</ele>
        <time>2020-11-11T13:23:59.000Z</time>
      </trkpt>
      <trkpt lat="42.91757" lon="0.34302">
        <ele>957</ele>
        <time>2020-11-11T13:24:00.000Z</time>
      </trkpt>
      <trkpt lat="42.91759" lon="0.343">
        <ele>957</ele>
        <time>2020-11-11T13:24:01.000Z</time>
      </trkpt>
      <trkpt lat="42.91761" lon="0.34299">
        <ele>957</ele>
        <time>2020-11-11T13:24:02.000Z</time>
      </trkpt>
      <trkpt lat="42.91763" lon="0.34298">
        <ele>958</ele>
        <time>2020-11-11T13:24:03.000Z</time>
      </trkpt>
      <trkpt lat="42.91766" lon="0.34297">
        <ele>958</ele>
        <time>2020-11-11T13:24:04.000Z</time>
      </trkpt>
      <trkpt lat="42.91768" lon="0.34297">
        <ele>958</ele>
        <time>2020-11-11T13:24:05.000Z</time>
      </trkpt>
      <trkpt lat="42.91771" lon="0.34296">
        <ele>959</ele>
        <time>2020-11-11T13:24:06.000Z</time>
      </trkpt>
      <trkpt lat="42.91774" lon="0.34296">
        <ele>959</ele>
        <time>2020-11-11T13:24:07.000Z</time>
      </trkpt>
      <trkpt lat="42.91777" lon="0.34295">
        <ele>959</ele>
        <time>2020-11-11T13:24:08.000Z</time>
      </trkpt>
      <trkpt lat="42.9178" lon="0.34295">
        <ele>960</ele>
        <time>2020-11-11T13:24:09.000Z</time>
      </trkpt>
      <trkpt lat="42.91783" lon="0.34295">
        <ele>960</ele>
        <time>2020-11-11T13:24:10.000Z</time>
      </trkpt>
      <trkpt lat="42.91786" lon="0.34294">
        <ele>960</ele>
        <time>2020-11-11T13:24:11.000Z</time>
      </trkpt>
      <trkpt lat="42.91789" lon="0.34294">
        <ele>961</ele>
        <time>2020-11-11T13:24:12.000Z</time>
      </trkpt>
      <trkpt lat="42.91792" lon="0.34293">
        <ele>961</ele>
        <time>2020-11-11T13:24:13.000Z</time>
      </trkpt>
      <trkpt lat="42.9181" lon="0.34283">
        <ele>963</ele>
        <time>2020-11-11T13:24:18.000Z</time>
      </trkpt>
      <trkpt lat="42.91811" lon="0.3428">
        <ele>963</ele>
        <time>2020-11-11T13:24:19.000Z</time>
      </trkpt>
      <trkpt lat="42.91813" lon="0.34277">
        <ele>964</ele>
        <time>2020-11-11T13:24:20.000Z</time>
      </trkpt>
      <trkpt lat="42.91814" lon="0.34274">
        <ele>964</ele>
        <time>2020-11-11T13:24:21.000Z</time>
      </trkpt>
      <trkpt lat="42.91814" lon="0.34271">
        <ele>964</ele>
        <time>2020-11-11T13:24:22.000Z</time>
      </trkpt>
      <trkpt lat="42.91814" lon="0.34268">
        <ele>965</ele>
        <time>2020-11-11T13:24:23.000Z</time>
      </trkpt>
      <trkpt lat="42.91813" lon="0.34265">
        <ele>965</ele>
        <time>2020-11-11T13:24:24.000Z</time>
      </trkpt>
      <trkpt lat="42.91812" lon="0.34262">
        <ele>965</ele>
        <time>2020-11-11T13:24:25.000Z</time>
      </trkpt>
      <trkpt lat="42.91811" lon="0.3426">
        <ele>966</ele>
        <time>2020-11-11T13:24:26.000Z</time>
      </trkpt>
      <trkpt lat="42.91809" lon="0.34257">
        <ele>966</ele>
        <time>2020-11-11T13:24:27.000Z</time>
      </trkpt>
      <trkpt lat="42.91807" lon="0.34254">
        <ele>966</ele>
        <time>2020-11-11T13:24:28.000Z</time>
      </trkpt>
      <trkpt lat="42.91805" lon="0.34252">
        <ele>967</ele>
        <time>2020-11-11T13:24:29.000Z</time>
      </trkpt>
      <trkpt lat="42.91804" lon="0.34249">
        <ele>967</ele>
        <time>2020-11-11T13:24:30.000Z</time>
      </trkpt>
      <trkpt lat="42.91802" lon="0.34246">
        <ele>967</ele>
        <time>2020-11-11T13:24:31.000Z</time>
      </trkpt>
      <trkpt lat="42.918" lon="0.34243">
        <ele>968</ele>
        <time>2020-11-11T13:24:32.000Z</time>
      </trkpt>
      <trkpt lat="42.91798" lon="0.3424">
        <ele>968</ele>
        <time>2020-11-11T13:24:33.000Z</time>
      </trkpt>
      <trkpt lat="42.91796" lon="0.34237">
        <ele>968</ele>
        <time>2020-11-11T13:24:34.000Z</time>
      </trkpt>
      <trkpt lat="42.91794" lon="0.34235">
        <ele>969</ele>
        <time>2020-11-11T13:24:35.000Z</time>
      </trkpt>
      <trkpt lat="42.91793" lon="0.34232">
        <ele>969</ele>
        <time>2020-11-11T13:24:36.000Z</time>
      </trkpt>
      <trkpt lat="42.91791" lon="0.34229">
        <ele>969</ele>
        <time>2020-11-11T13:24:37.000Z</time>
      </trkpt>
      <trkpt lat="42.91789" lon="0.34227">
        <ele>969</ele>
        <time>2020-11-11T13:24:38.000Z</time>
      </trkpt>
      <trkpt lat="42.91787" lon="0.34223">
        <ele>969</ele>
        <time>2020-11-11T13:24:39.000Z</time>
      </trkpt>
      <trkpt lat="42.91786" lon="0.3422">
        <ele>970</ele>
        <time>2020-11-11T13:24:40.000Z</time>
      </trkpt>
      <trkpt lat="42.91784" lon="0.34216">
        <ele>970</ele>
        <time>2020-11-11T13:24:41.000Z</time>
      </trkpt>
      <trkpt lat="42.91783" lon="0.34212">
        <ele>971</ele>
        <time>2020-11-11T13:24:42.000Z</time>
      </trkpt>
      <trkpt lat="42.91782" lon="0.34207">
        <ele>971</ele>
        <time>2020-11-11T13:24:43.000Z</time>
      </trkpt>
      <trkpt lat="42.9178" lon="0.34203">
        <ele>971</ele>
        <time>2020-11-11T13:24:44.000Z</time>
      </trkpt>
      <trkpt lat="42.91779" lon="0.34199">
        <ele>972</ele>
        <time>2020-11-11T13:24:45.000Z</time>
      </trkpt>
      <trkpt lat="42.91778" lon="0.34196">
        <ele>972</ele>
        <time>2020-11-11T13:24:46.000Z</time>
      </trkpt>
      <trkpt lat="42.91777" lon="0.34192">
        <ele>973</ele>
        <time>2020-11-11T13:24:47.000Z</time>
      </trkpt>
      <trkpt lat="42.91777" lon="0.34187">
        <ele>973</ele>
        <time>2020-11-11T13:24:48.000Z</time>
      </trkpt>
      <trkpt lat="42.91776" lon="0.34183">
        <ele>973</ele>
        <time>2020-11-11T13:24:49.000Z</time>
      </trkpt>
      <trkpt lat="42.91776" lon="0.34178">
        <ele>974</ele>
        <time>2020-11-11T13:24:50.000Z</time>
      </trkpt>
      <trkpt lat="42.91775" lon="0.34174">
        <ele>974</ele>
        <time>2020-11-11T13:24:51.000Z</time>
      </trkpt>
      <trkpt lat="42.91775" lon="0.3417">
        <ele>975</ele>
        <time>2020-11-11T13:24:52.000Z</time>
      </trkpt>
      <trkpt lat="42.91775" lon="0.34166">
        <ele>975</ele>
        <time>2020-11-11T13:24:53.000Z</time>
      </trkpt>
      <trkpt lat="42.91774" lon="0.34162">
        <ele>976</ele>
        <time>2020-11-11T13:24:54.000Z</time>
      </trkpt>
      <trkpt lat="42.91774" lon="0.34158">
        <ele>976</ele>
        <time>2020-11-11T13:24:55.000Z</time>
      </trkpt>
      <trkpt lat="42.91773" lon="0.34155">
        <ele>976</ele>
        <time>2020-11-11T13:24:56.000Z</time>
      </trkpt>
      <trkpt lat="42.91773" lon="0.34151">
        <ele>977</ele>
        <time>2020-11-11T13:24:57.000Z</time>
      </trkpt>
      <trkpt lat="42.91773" lon="0.34148">
        <ele>977</ele>
        <time>2020-11-11T13:24:58.000Z</time>
      </trkpt>
      <trkpt lat="42.91772" lon="0.34145">
        <ele>978</ele>
        <time>2020-11-11T13:24:59.000Z</time>
      </trkpt>
      <trkpt lat="42.91772" lon="0.34141">
        <ele>978</ele>
        <time>2020-11-11T13:25:00.000Z</time>
      </trkpt>
      <trkpt lat="42.91772" lon="0.34137">
        <ele>978</ele>
        <time>2020-11-11T13:25:01.000Z</time>
      </trkpt>
      <trkpt lat="42.91771" lon="0.34133">
        <ele>979</ele>
        <time>2020-11-11T13:25:02.000Z</time>
      </trkpt>
      <trkpt lat="42.91771" lon="0.34128">
        <ele>979</ele>
        <time>2020-11-11T13:25:03.000Z</time>
      </trkpt>
      <trkpt lat="42.9177" lon="0.34123">
        <ele>980</ele>
        <time>2020-11-11T13:25:04.000Z</time>
      </trkpt>
      <trkpt lat="42.9177" lon="0.34118">
        <ele>980</ele>
        <time>2020-11-11T13:25:06.000Z</time>
      </trkpt>
      <trkpt lat="42.9177" lon="0.34112">
        <ele>980</ele>
        <time>2020-11-11T13:25:07.000Z</time>
      </trkpt>
      <trkpt lat="42.91769" lon="0.34106">
        <ele>980</ele>
        <time>2020-11-11T13:25:08.000Z</time>
      </trkpt>
      <trkpt lat="42.91769" lon="0.34101">
        <ele>981</ele>
        <time>2020-11-11T13:25:09.000Z</time>
      </trkpt>
      <trkpt lat="42.91769" lon="0.34095">
        <ele>981</ele>
        <time>2020-11-11T13:25:10.000Z</time>
      </trkpt>
      <trkpt lat="42.91769" lon="0.3409">
        <ele>982</ele>
        <time>2020-11-11T13:25:11.000Z</time>
      </trkpt>
      <trkpt lat="42.91769" lon="0.34086">
        <ele>982</ele>
        <time>2020-11-11T13:25:12.000Z</time>
      </trkpt>
      <trkpt lat="42.91769" lon="0.34082">
        <ele>983</ele>
        <time>2020-11-11T13:25:13.000Z</time>
      </trkpt>
      <trkpt lat="42.91769" lon="0.34078">
        <ele>983</ele>
        <time>2020-11-11T13:25:14.000Z</time>
      </trkpt>
      <trkpt lat="42.91769" lon="0.34074">
        <ele>984</ele>
        <time>2020-11-11T13:25:15.000Z</time>
      </trkpt>
      <trkpt lat="42.91769" lon="0.3407">
        <ele>984</ele>
        <time>2020-11-11T13:25:16.000Z</time>
      </trkpt>
      <trkpt lat="42.91769" lon="0.34067">
        <ele>985</ele>
        <time>2020-11-11T13:25:17.000Z</time>
      </trkpt>
      <trkpt lat="42.91768" lon="0.34063">
        <ele>985</ele>
        <time>2020-11-11T13:25:18.000Z</time>
      </trkpt>
      <trkpt lat="42.91768" lon="0.34059">
        <ele>985</ele>
        <time>2020-11-11T13:25:19.000Z</time>
      </trkpt>
      <trkpt lat="42.91767" lon="0.34054">
        <ele>986</ele>
        <time>2020-11-11T13:25:20.000Z</time>
      </trkpt>
      <trkpt lat="42.91767" lon="0.34049">
        <ele>986</ele>
        <time>2020-11-11T13:25:21.000Z</time>
      </trkpt>
      <trkpt lat="42.91767" lon="0.34044">
        <ele>986</ele>
        <time>2020-11-11T13:25:22.000Z</time>
      </trkpt>
      <trkpt lat="42.91766" lon="0.34039">
        <ele>987</ele>
        <time>2020-11-11T13:25:23.000Z</time>
      </trkpt>
      <trkpt lat="42.91765" lon="0.34035">
        <ele>987</ele>
        <time>2020-11-11T13:25:24.000Z</time>
      </trkpt>
      <trkpt lat="42.91764" lon="0.3403">
        <ele>987</ele>
        <time>2020-11-11T13:25:25.000Z</time>
      </trkpt>
      <trkpt lat="42.91763" lon="0.34026">
        <ele>988</ele>
        <time>2020-11-11T13:25:26.000Z</time>
      </trkpt>
      <trkpt lat="42.91762" lon="0.34022">
        <ele>988</ele>
        <time>2020-11-11T13:25:27.000Z</time>
      </trkpt>
      <trkpt lat="42.9176" lon="0.34018">
        <ele>988</ele>
        <time>2020-11-11T13:25:28.000Z</time>
      </trkpt>
      <trkpt lat="42.91758" lon="0.34014">
        <ele>989</ele>
        <time>2020-11-11T13:25:29.000Z</time>
      </trkpt>
      <trkpt lat="42.91757" lon="0.3401">
        <ele>989</ele>
        <time>2020-11-11T13:25:30.000Z</time>
      </trkpt>
      <trkpt lat="42.91755" lon="0.34006">
        <ele>990</ele>
        <time>2020-11-11T13:25:31.000Z</time>
      </trkpt>
      <trkpt lat="42.91754" lon="0.34002">
        <ele>990</ele>
        <time>2020-11-11T13:25:32.000Z</time>
      </trkpt>
      <trkpt lat="42.91753" lon="0.33998">
        <ele>990</ele>
        <time>2020-11-11T13:25:33.000Z</time>
      </trkpt>
      <trkpt lat="42.91752" lon="0.33993">
        <ele>991</ele>
        <time>2020-11-11T13:25:34.000Z</time>
      </trkpt>
      <trkpt lat="42.91751" lon="0.33989">
        <ele>991</ele>
        <time>2020-11-11T13:25:35.000Z</time>
      </trkpt>
      <trkpt lat="42.9175" lon="0.33985">
        <ele>991</ele>
        <time>2020-11-11T13:25:36.000Z</time>
      </trkpt>
      <trkpt lat="42.91748" lon="0.33982">
        <ele>992</ele>
        <time>2020-11-11T13:25:37.000Z</time>
      </trkpt>
      <trkpt lat="42.91747" lon="0.33978">
        <ele>992</ele>
        <time>2020-11-11T13:25:38.000Z</time>
      </trkpt>
      <trkpt lat="42.91745" lon="0.33975">
        <ele>992</ele>
        <time>2020-11-11T13:25:39.000Z</time>
      </trkpt>
      <trkpt lat="42.91743" lon="0.33971">
        <ele>993</ele>
        <time>2020-11-11T13:25:40.000Z</time>
      </trkpt>
      <trkpt lat="42.91741" lon="0.33968">
        <ele>993</ele>
        <time>2020-11-11T13:25:41.000Z</time>
      </trkpt>
      <trkpt lat="42.9174" lon="0.33965">
        <ele>993</ele>
        <time>2020-11-11T13:25:42.000Z</time>
      </trkpt>
      <trkpt lat="42.91738" lon="0.33962">
        <ele>994</ele>
        <time>2020-11-11T13:25:43.000Z</time>
      </trkpt>
      <trkpt lat="42.91737" lon="0.33959">
        <ele>994</ele>
        <time>2020-11-11T13:25:44.000Z</time>
      </trkpt>
      <trkpt lat="42.91735" lon="0.33956">
        <ele>994</ele>
        <time>2020-11-11T13:25:45.000Z</time>
      </trkpt>
      <trkpt lat="42.91734" lon="0.33952">
        <ele>995</ele>
        <time>2020-11-11T13:25:46.000Z</time>
      </trkpt>
      <trkpt lat="42.91732" lon="0.33948">
        <ele>995</ele>
        <time>2020-11-11T13:25:47.000Z</time>
      </trkpt>
      <trkpt lat="42.91731" lon="0.33945">
        <ele>995</ele>
        <time>2020-11-11T13:25:48.000Z</time>
      </trkpt>
      <trkpt lat="42.9173" lon="0.33941">
        <ele>996</ele>
        <time>2020-11-11T13:25:49.000Z</time>
      </trkpt>
      <trkpt lat="42.91729" lon="0.33937">
        <ele>996</ele>
        <time>2020-11-11T13:25:50.000Z</time>
      </trkpt>
      <trkpt lat="42.91727" lon="0.33932">
        <ele>997</ele>
        <time>2020-11-11T13:25:51.000Z</time>
      </trkpt>
      <trkpt lat="42.91726" lon="0.33928">
        <ele>997</ele>
        <time>2020-11-11T13:25:52.000Z</time>
      </trkpt>
      <trkpt lat="42.91724" lon="0.33924">
        <ele>997</ele>
        <time>2020-11-11T13:25:53.000Z</time>
      </trkpt>
      <trkpt lat="42.91723" lon="0.33921">
        <ele>998</ele>
        <time>2020-11-11T13:25:54.000Z</time>
      </trkpt>
      <trkpt lat="42.91723" lon="0.33917">
        <ele>998</ele>
        <time>2020-11-11T13:25:55.000Z</time>
      </trkpt>
      <trkpt lat="42.91722" lon="0.33913">
        <ele>998</ele>
        <time>2020-11-11T13:25:56.000Z</time>
      </trkpt>
      <trkpt lat="42.91722" lon="0.33908">
        <ele>999</ele>
        <time>2020-11-11T13:25:57.000Z</time>
      </trkpt>
      <trkpt lat="42.91722" lon="0.33904">
        <ele>999</ele>
        <time>2020-11-11T13:25:58.000Z</time>
      </trkpt>
      <trkpt lat="42.91721" lon="0.339">
        <ele>1000</ele>
        <time>2020-11-11T13:25:59.000Z</time>
      </trkpt>
      <trkpt lat="42.9172" lon="0.33897">
        <ele>1000</ele>
        <time>2020-11-11T13:26:00.000Z</time>
      </trkpt>
      <trkpt lat="42.91719" lon="0.33893">
        <ele>1000</ele>
        <time>2020-11-11T13:26:01.000Z</time>
      </trkpt>
      <trkpt lat="42.91718" lon="0.33889">
        <ele>1001</ele>
        <time>2020-11-11T13:26:02.000Z</time>
      </trkpt>
      <trkpt lat="42.91718" lon="0.33886">
        <ele>1001</ele>
        <time>2020-11-11T13:26:03.000Z</time>
      </trkpt>
      <trkpt lat="42.91717" lon="0.33882">
        <ele>1001</ele>
        <time>2020-11-11T13:26:04.000Z</time>
      </trkpt>
      <trkpt lat="42.91716" lon="0.33877">
        <ele>1002</ele>
        <time>2020-11-11T13:26:05.000Z</time>
      </trkpt>
      <trkpt lat="42.91715" lon="0.33873">
        <ele>1002</ele>
        <time>2020-11-11T13:26:06.000Z</time>
      </trkpt>
      <trkpt lat="42.91714" lon="0.33869">
        <ele>1002</ele>
        <time>2020-11-11T13:26:07.000Z</time>
      </trkpt>
      <trkpt lat="42.91713" lon="0.33865">
        <ele>1003</ele>
        <time>2020-11-11T13:26:08.000Z</time>
      </trkpt>
      <trkpt lat="42.91712" lon="0.33861">
        <ele>1003</ele>
        <time>2020-11-11T13:26:09.000Z</time>
      </trkpt>
      <trkpt lat="42.91711" lon="0.33856">
        <ele>1003</ele>
        <time>2020-11-11T13:26:10.000Z</time>
      </trkpt>
      <trkpt lat="42.9171" lon="0.33852">
        <ele>1004</ele>
        <time>2020-11-11T13:26:11.000Z</time>
      </trkpt>
      <trkpt lat="42.91709" lon="0.33847">
        <ele>1004</ele>
        <time>2020-11-11T13:26:12.000Z</time>
      </trkpt>
      <trkpt lat="42.91708" lon="0.33843">
        <ele>1004</ele>
        <time>2020-11-11T13:26:13.000Z</time>
      </trkpt>
      <trkpt lat="42.91708" lon="0.3384">
        <ele>1005</ele>
        <time>2020-11-11T13:26:14.000Z</time>
      </trkpt>
      <trkpt lat="42.91708" lon="0.33836">
        <ele>1005</ele>
        <time>2020-11-11T13:26:15.000Z</time>
      </trkpt>
      <trkpt lat="42.91709" lon="0.33832">
        <ele>1005</ele>
        <time>2020-11-11T13:26:16.000Z</time>
      </trkpt>
      <trkpt lat="42.9171" lon="0.33828">
        <ele>1006</ele>
        <time>2020-11-11T13:26:17.000Z</time>
      </trkpt>
      <trkpt lat="42.91711" lon="0.33825">
        <ele>1006</ele>
        <time>2020-11-11T13:26:18.000Z</time>
      </trkpt>
      <trkpt lat="42.91713" lon="0.33822">
        <ele>1006</ele>
        <time>2020-11-11T13:26:19.000Z</time>
      </trkpt>
      <trkpt lat="42.91715" lon="0.33819">
        <ele>1007</ele>
        <time>2020-11-11T13:26:20.000Z</time>
      </trkpt>
      <trkpt lat="42.91717" lon="0.33817">
        <ele>1007</ele>
        <time>2020-11-11T13:26:21.000Z</time>
      </trkpt>
      <trkpt lat="42.9172" lon="0.33815">
        <ele>1007</ele>
        <time>2020-11-11T13:26:22.000Z</time>
      </trkpt>
      <trkpt lat="42.91722" lon="0.33814">
        <ele>1007</ele>
        <time>2020-11-11T13:26:23.000Z</time>
      </trkpt>
      <trkpt lat="42.91725" lon="0.33812">
        <ele>1007</ele>
        <time>2020-11-11T13:26:24.000Z</time>
      </trkpt>
      <trkpt lat="42.91727" lon="0.33811">
        <ele>1007</ele>
        <time>2020-11-11T13:26:25.000Z</time>
      </trkpt>
      <trkpt lat="42.9173" lon="0.33809">
        <ele>1008</ele>
        <time>2020-11-11T13:26:26.000Z</time>
      </trkpt>
      <trkpt lat="42.91732" lon="0.33807">
        <ele>1008</ele>
        <time>2020-11-11T13:26:27.000Z</time>
      </trkpt>
      <trkpt lat="42.91734" lon="0.33805">
        <ele>1008</ele>
        <time>2020-11-11T13:26:28.000Z</time>
      </trkpt>
      <trkpt lat="42.91737" lon="0.33803">
        <ele>1009</ele>
        <time>2020-11-11T13:26:29.000Z</time>
      </trkpt>
      <trkpt lat="42.91739" lon="0.33802">
        <ele>1009</ele>
        <time>2020-11-11T13:26:30.000Z</time>
      </trkpt>
      <trkpt lat="42.91741" lon="0.338">
        <ele>1009</ele>
        <time>2020-11-11T13:26:31.000Z</time>
      </trkpt>
      <trkpt lat="42.91743" lon="0.33798">
        <ele>1010</ele>
        <time>2020-11-11T13:26:32.000Z</time>
      </trkpt>
      <trkpt lat="42.91746" lon="0.33797">
        <ele>1010</ele>
        <time>2020-11-11T13:26:33.000Z</time>
      </trkpt>
      <trkpt lat="42.91748" lon="0.33796">
        <ele>1010</ele>
        <time>2020-11-11T13:26:34.000Z</time>
      </trkpt>
      <trkpt lat="42.9175" lon="0.33795">
        <ele>1011</ele>
        <time>2020-11-11T13:26:35.000Z</time>
      </trkpt>
      <trkpt lat="42.91753" lon="0.33794">
        <ele>1011</ele>
        <time>2020-11-11T13:26:36.000Z</time>
      </trkpt>
      <trkpt lat="42.91756" lon="0.33792">
        <ele>1011</ele>
        <time>2020-11-11T13:26:37.000Z</time>
      </trkpt>
      <trkpt lat="42.91759" lon="0.33791">
        <ele>1012</ele>
        <time>2020-11-11T13:26:38.000Z</time>
      </trkpt>
      <trkpt lat="42.91762" lon="0.33789">
        <ele>1012</ele>
        <time>2020-11-11T13:26:39.000Z</time>
      </trkpt>
      <trkpt lat="42.91764" lon="0.33787">
        <ele>1012</ele>
        <time>2020-11-11T13:26:40.000Z</time>
      </trkpt>
      <trkpt lat="42.91767" lon="0.33785">
        <ele>1013</ele>
        <time>2020-11-11T13:26:41.000Z</time>
      </trkpt>
      <trkpt lat="42.9177" lon="0.33784">
        <ele>1013</ele>
        <time>2020-11-11T13:26:42.000Z</time>
      </trkpt>
      <trkpt lat="42.91772" lon="0.33782">
        <ele>1013</ele>
        <time>2020-11-11T13:26:43.000Z</time>
      </trkpt>
      <trkpt lat="42.91775" lon="0.33781">
        <ele>1014</ele>
        <time>2020-11-11T13:26:44.000Z</time>
      </trkpt>
      <trkpt lat="42.91778" lon="0.33779">
        <ele>1014</ele>
        <time>2020-11-11T13:26:45.000Z</time>
      </trkpt>
      <trkpt lat="42.91782" lon="0.33778">
        <ele>1014</ele>
        <time>2020-11-11T13:26:46.000Z</time>
      </trkpt>
      <trkpt lat="42.91785" lon="0.33775">
        <ele>1015</ele>
        <time>2020-11-11T13:26:47.000Z</time>
      </trkpt>
      <trkpt lat="42.91788" lon="0.33773">
        <ele>1015</ele>
        <time>2020-11-11T13:26:48.000Z</time>
      </trkpt>
      <trkpt lat="42.9179" lon="0.3377">
        <ele>1016</ele>
        <time>2020-11-11T13:26:49.000Z</time>
      </trkpt>
      <trkpt lat="42.91793" lon="0.33767">
        <ele>1016</ele>
        <time>2020-11-11T13:26:50.000Z</time>
      </trkpt>
      <trkpt lat="42.91795" lon="0.33764">
        <ele>1017</ele>
        <time>2020-11-11T13:26:51.000Z</time>
      </trkpt>
      <trkpt lat="42.91797" lon="0.33761">
        <ele>1017</ele>
        <time>2020-11-11T13:26:52.000Z</time>
      </trkpt>
      <trkpt lat="42.91799" lon="0.33759">
        <ele>1017</ele>
        <time>2020-11-11T13:26:53.000Z</time>
      </trkpt>
      <trkpt lat="42.91801" lon="0.33757">
        <ele>1018</ele>
        <time>2020-11-11T13:26:54.000Z</time>
      </trkpt>
      <trkpt lat="42.91802" lon="0.33754">
        <ele>1018</ele>
        <time>2020-11-11T13:26:55.000Z</time>
      </trkpt>
      <trkpt lat="42.91804" lon="0.33751">
        <ele>1018</ele>
        <time>2020-11-11T13:26:56.000Z</time>
      </trkpt>
      <trkpt lat="42.91806" lon="0.33748">
        <ele>1019</ele>
        <time>2020-11-11T13:26:57.000Z</time>
      </trkpt>
      <trkpt lat="42.91807" lon="0.33745">
        <ele>1019</ele>
        <time>2020-11-11T13:26:58.000Z</time>
      </trkpt>
      <trkpt lat="42.91809" lon="0.33742">
        <ele>1019</ele>
        <time>2020-11-11T13:26:59.000Z</time>
      </trkpt>
      <trkpt lat="42.91811" lon="0.33738">
        <ele>1020</ele>
        <time>2020-11-11T13:27:00.000Z</time>
      </trkpt>
      <trkpt lat="42.91812" lon="0.33734">
        <ele>1020</ele>
        <time>2020-11-11T13:27:01.000Z</time>
      </trkpt>
      <trkpt lat="42.91812" lon="0.33729">
        <ele>1020</ele>
        <time>2020-11-11T13:27:02.000Z</time>
      </trkpt>
      <trkpt lat="42.91813" lon="0.33725">
        <ele>1021</ele>
        <time>2020-11-11T13:27:03.000Z</time>
      </trkpt>
      <trkpt lat="42.91813" lon="0.33721">
        <ele>1021</ele>
        <time>2020-11-11T13:27:04.000Z</time>
      </trkpt>
      <trkpt lat="42.91814" lon="0.33717">
        <ele>1022</ele>
        <time>2020-11-11T13:27:05.000Z</time>
      </trkpt>
      <trkpt lat="42.91815" lon="0.33713">
        <ele>1022</ele>
        <time>2020-11-11T13:27:06.000Z</time>
      </trkpt>
      <trkpt lat="42.91815" lon="0.3371">
        <ele>1022</ele>
        <time>2020-11-11T13:27:07.000Z</time>
      </trkpt>
      <trkpt lat="42.91815" lon="0.33706">
        <ele>1023</ele>
        <time>2020-11-11T13:27:08.000Z</time>
      </trkpt>
      <trkpt lat="42.91815" lon="0.33699">
        <ele>1023</ele>
        <time>2020-11-11T13:27:10.000Z</time>
      </trkpt>
      <trkpt lat="42.91814" lon="0.33696">
        <ele>1024</ele>
        <time>2020-11-11T13:27:11.000Z</time>
      </trkpt>
      <trkpt lat="42.91814" lon="0.33691">
        <ele>1024</ele>
        <time>2020-11-11T13:27:12.000Z</time>
      </trkpt>
      <trkpt lat="42.91812" lon="0.33686">
        <ele>1025</ele>
        <time>2020-11-11T13:27:13.000Z</time>
      </trkpt>
      <trkpt lat="42.91811" lon="0.33682">
        <ele>1025</ele>
        <time>2020-11-11T13:27:14.000Z</time>
      </trkpt>
      <trkpt lat="42.9181" lon="0.33677">
        <ele>1025</ele>
        <time>2020-11-11T13:27:15.000Z</time>
      </trkpt>
      <trkpt lat="42.91809" lon="0.33674">
        <ele>1026</ele>
        <time>2020-11-11T13:27:16.000Z</time>
      </trkpt>
      <trkpt lat="42.91807" lon="0.3367">
        <ele>1026</ele>
        <time>2020-11-11T13:27:17.000Z</time>
      </trkpt>
      <trkpt lat="42.91805" lon="0.33666">
        <ele>1026</ele>
        <time>2020-11-11T13:27:18.000Z</time>
      </trkpt>
      <trkpt lat="42.91803" lon="0.33663">
        <ele>1027</ele>
        <time>2020-11-11T13:27:19.000Z</time>
      </trkpt>
      <trkpt lat="42.91801" lon="0.33661">
        <ele>1027</ele>
        <time>2020-11-11T13:27:20.000Z</time>
      </trkpt>
      <trkpt lat="42.91799" lon="0.33658">
        <ele>1027</ele>
        <time>2020-11-11T13:27:21.000Z</time>
      </trkpt>
      <trkpt lat="42.91797" lon="0.33655">
        <ele>1029</ele>
        <time>2020-11-11T13:27:22.000Z</time>
      </trkpt>
      <trkpt lat="42.91795" lon="0.33653">
        <ele>1029</ele>
        <time>2020-11-11T13:27:23.000Z</time>
      </trkpt>
      <trkpt lat="42.91792" lon="0.3365">
        <ele>1029</ele>
        <time>2020-11-11T13:27:24.000Z</time>
      </trkpt>
      <trkpt lat="42.9179" lon="0.33647">
        <ele>1030</ele>
        <time>2020-11-11T13:27:25.000Z</time>
      </trkpt>
      <trkpt lat="42.91787" lon="0.33645">
        <ele>1030</ele>
        <time>2020-11-11T13:27:26.000Z</time>
      </trkpt>
      <trkpt lat="42.91785" lon="0.33642">
        <ele>1031</ele>
        <time>2020-11-11T13:27:27.000Z</time>
      </trkpt>
      <trkpt lat="42.91782" lon="0.33638">
        <ele>1031</ele>
        <time>2020-11-11T13:27:28.000Z</time>
      </trkpt>
      <trkpt lat="42.9178" lon="0.33635">
        <ele>1031</ele>
        <time>2020-11-11T13:27:29.000Z</time>
      </trkpt>
      <trkpt lat="42.91778" lon="0.33632">
        <ele>1031</ele>
        <time>2020-11-11T13:27:30.000Z</time>
      </trkpt>
      <trkpt lat="42.91777" lon="0.33628">
        <ele>1032</ele>
        <time>2020-11-11T13:27:31.000Z</time>
      </trkpt>
      <trkpt lat="42.91776" lon="0.33624">
        <ele>1032</ele>
        <time>2020-11-11T13:27:32.000Z</time>
      </trkpt>
      <trkpt lat="42.91775" lon="0.3362">
        <ele>1033</ele>
        <time>2020-11-11T13:27:33.000Z</time>
      </trkpt>
      <trkpt lat="42.91775" lon="0.33616">
        <ele>1033</ele>
        <time>2020-11-11T13:27:34.000Z</time>
      </trkpt>
      <trkpt lat="42.91776" lon="0.33612">
        <ele>1034</ele>
        <time>2020-11-11T13:27:35.000Z</time>
      </trkpt>
      <trkpt lat="42.91777" lon="0.33609">
        <ele>1034</ele>
        <time>2020-11-11T13:27:36.000Z</time>
      </trkpt>
      <trkpt lat="42.91779" lon="0.33605">
        <ele>1035</ele>
        <time>2020-11-11T13:27:37.000Z</time>
      </trkpt>
      <trkpt lat="42.91781" lon="0.33602">
        <ele>1035</ele>
        <time>2020-11-11T13:27:38.000Z</time>
      </trkpt>
      <trkpt lat="42.91783" lon="0.336">
        <ele>1036</ele>
        <time>2020-11-11T13:27:39.000Z</time>
      </trkpt>
      <trkpt lat="42.91785" lon="0.33597">
        <ele>1036</ele>
        <time>2020-11-11T13:27:40.000Z</time>
      </trkpt>
      <trkpt lat="42.91788" lon="0.33594">
        <ele>1037</ele>
        <time>2020-11-11T13:27:41.000Z</time>
      </trkpt>
      <trkpt lat="42.91789" lon="0.33592">
        <ele>1037</ele>
        <time>2020-11-11T13:27:42.000Z</time>
      </trkpt>
      <trkpt lat="42.91791" lon="0.33589">
        <ele>1038</ele>
        <time>2020-11-11T13:27:43.000Z</time>
      </trkpt>
      <trkpt lat="42.91793" lon="0.33587">
        <ele>1038</ele>
        <time>2020-11-11T13:27:44.000Z</time>
      </trkpt>
      <trkpt lat="42.91794" lon="0.33585">
        <ele>1038</ele>
        <time>2020-11-11T13:27:45.000Z</time>
      </trkpt>
      <trkpt lat="42.91796" lon="0.33583">
        <ele>1038</ele>
        <time>2020-11-11T13:27:46.000Z</time>
      </trkpt>
      <trkpt lat="42.91798" lon="0.33581">
        <ele>1039</ele>
        <time>2020-11-11T13:27:47.000Z</time>
      </trkpt>
      <trkpt lat="42.918" lon="0.33578">
        <ele>1039</ele>
        <time>2020-11-11T13:27:48.000Z</time>
      </trkpt>
      <trkpt lat="42.91801" lon="0.33575">
        <ele>1040</ele>
        <time>2020-11-11T13:27:49.000Z</time>
      </trkpt>
      <trkpt lat="42.91802" lon="0.33572">
        <ele>1040</ele>
        <time>2020-11-11T13:27:50.000Z</time>
      </trkpt>
      <trkpt lat="42.91803" lon="0.33569">
        <ele>1041</ele>
        <time>2020-11-11T13:27:51.000Z</time>
      </trkpt>
      <trkpt lat="42.91804" lon="0.33565">
        <ele>1041</ele>
        <time>2020-11-11T13:27:52.000Z</time>
      </trkpt>
      <trkpt lat="42.91805" lon="0.33562">
        <ele>1042</ele>
        <time>2020-11-11T13:27:53.000Z</time>
      </trkpt>
      <trkpt lat="42.91806" lon="0.3356">
        <ele>1042</ele>
        <time>2020-11-11T13:27:54.000Z</time>
      </trkpt>
      <trkpt lat="42.91808" lon="0.33557">
        <ele>1043</ele>
        <time>2020-11-11T13:27:55.000Z</time>
      </trkpt>
      <trkpt lat="42.91809" lon="0.33554">
        <ele>1043</ele>
        <time>2020-11-11T13:27:56.000Z</time>
      </trkpt>
      <trkpt lat="42.91811" lon="0.33551">
        <ele>1044</ele>
        <time>2020-11-11T13:27:57.000Z</time>
      </trkpt>
      <trkpt lat="42.91813" lon="0.33547">
        <ele>1044</ele>
        <time>2020-11-11T13:27:58.000Z</time>
      </trkpt>
      <trkpt lat="42.91815" lon="0.33544">
        <ele>1045</ele>
        <time>2020-11-11T13:27:59.000Z</time>
      </trkpt>
      <trkpt lat="42.91816" lon="0.33541">
        <ele>1045</ele>
        <time>2020-11-11T13:28:00.000Z</time>
      </trkpt>
      <trkpt lat="42.91817" lon="0.33537">
        <ele>1046</ele>
        <time>2020-11-11T13:28:01.000Z</time>
      </trkpt>
      <trkpt lat="42.91818" lon="0.33534">
        <ele>1046</ele>
        <time>2020-11-11T13:28:02.000Z</time>
      </trkpt>
      <trkpt lat="42.9182" lon="0.3353">
        <ele>1047</ele>
        <time>2020-11-11T13:28:03.000Z</time>
      </trkpt>
      <trkpt lat="42.91821" lon="0.33526">
        <ele>1047</ele>
        <time>2020-11-11T13:28:04.000Z</time>
      </trkpt>
      <trkpt lat="42.91823" lon="0.33522">
        <ele>1048</ele>
        <time>2020-11-11T13:28:05.000Z</time>
      </trkpt>
      <trkpt lat="42.91824" lon="0.33519">
        <ele>1048</ele>
        <time>2020-11-11T13:28:06.000Z</time>
      </trkpt>
      <trkpt lat="42.91826" lon="0.33515">
        <ele>1049</ele>
        <time>2020-11-11T13:28:07.000Z</time>
      </trkpt>
      <trkpt lat="42.91827" lon="0.33512">
        <ele>1049</ele>
        <time>2020-11-11T13:28:08.000Z</time>
      </trkpt>
      <trkpt lat="42.91829" lon="0.33508">
        <ele>1050</ele>
        <time>2020-11-11T13:28:09.000Z</time>
      </trkpt>
      <trkpt lat="42.9183" lon="0.33504">
        <ele>1050</ele>
        <time>2020-11-11T13:28:10.000Z</time>
      </trkpt>
      <trkpt lat="42.91831" lon="0.33501">
        <ele>1051</ele>
        <time>2020-11-11T13:28:11.000Z</time>
      </trkpt>
      <trkpt lat="42.91833" lon="0.33498">
        <ele>1051</ele>
        <time>2020-11-11T13:28:12.000Z</time>
      </trkpt>
      <trkpt lat="42.91835" lon="0.33494">
        <ele>1052</ele>
        <time>2020-11-11T13:28:13.000Z</time>
      </trkpt>
      <trkpt lat="42.91837" lon="0.33491">
        <ele>1052</ele>
        <time>2020-11-11T13:28:14.000Z</time>
      </trkpt>
      <trkpt lat="42.91839" lon="0.33487">
        <ele>1053</ele>
        <time>2020-11-11T13:28:15.000Z</time>
      </trkpt>
      <trkpt lat="42.91841" lon="0.33484">
        <ele>1053</ele>
        <time>2020-11-11T13:28:16.000Z</time>
      </trkpt>
      <trkpt lat="42.91842" lon="0.3348">
        <ele>1054</ele>
        <time>2020-11-11T13:28:17.000Z</time>
      </trkpt>
      <trkpt lat="42.91844" lon="0.33476">
        <ele>1054</ele>
        <time>2020-11-11T13:28:18.000Z</time>
      </trkpt>
      <trkpt lat="42.91845" lon="0.33472">
        <ele>1055</ele>
        <time>2020-11-11T13:28:19.000Z</time>
      </trkpt>
      <trkpt lat="42.91846" lon="0.33468">
        <ele>1055</ele>
        <time>2020-11-11T13:28:20.000Z</time>
      </trkpt>
      <trkpt lat="42.91847" lon="0.33464">
        <ele>1055</ele>
        <time>2020-11-11T13:28:21.000Z</time>
      </trkpt>
      <trkpt lat="42.91848" lon="0.3346">
        <ele>1055</ele>
        <time>2020-11-11T13:28:22.000Z</time>
      </trkpt>
      <trkpt lat="42.91849" lon="0.33457">
        <ele>1056</ele>
        <time>2020-11-11T13:28:23.000Z</time>
      </trkpt>
      <trkpt lat="42.9185" lon="0.33453">
        <ele>1056</ele>
        <time>2020-11-11T13:28:24.000Z</time>
      </trkpt>
      <trkpt lat="42.91851" lon="0.33449">
        <ele>1057</ele>
        <time>2020-11-11T13:28:25.000Z</time>
      </trkpt>
      <trkpt lat="42.91852" lon="0.33446">
        <ele>1057</ele>
        <time>2020-11-11T13:28:26.000Z</time>
      </trkpt>
      <trkpt lat="42.91852" lon="0.33442">
        <ele>1057</ele>
        <time>2020-11-11T13:28:27.000Z</time>
      </trkpt>
      <trkpt lat="42.91852" lon="0.33438">
        <ele>1058</ele>
        <time>2020-11-11T13:28:28.000Z</time>
      </trkpt>
      <trkpt lat="42.91852" lon="0.33433">
        <ele>1058</ele>
        <time>2020-11-11T13:28:29.000Z</time>
      </trkpt>
      <trkpt lat="42.91851" lon="0.33429">
        <ele>1059</ele>
        <time>2020-11-11T13:28:30.000Z</time>
      </trkpt>
      <trkpt lat="42.9185" lon="0.33425">
        <ele>1059</ele>
        <time>2020-11-11T13:28:31.000Z</time>
      </trkpt>
      <trkpt lat="42.91846" lon="0.33414">
        <ele>1060</ele>
        <time>2020-11-11T13:28:33.000Z</time>
      </trkpt>
      <trkpt lat="42.91844" lon="0.33411">
        <ele>1061</ele>
        <time>2020-11-11T13:28:34.000Z</time>
      </trkpt>
      <trkpt lat="42.91842" lon="0.33407">
        <ele>1061</ele>
        <time>2020-11-11T13:28:35.000Z</time>
      </trkpt>
      <trkpt lat="42.9184" lon="0.33404">
        <ele>1062</ele>
        <time>2020-11-11T13:28:36.000Z</time>
      </trkpt>
      <trkpt lat="42.91838" lon="0.33401">
        <ele>1062</ele>
        <time>2020-11-11T13:28:37.000Z</time>
      </trkpt>
      <trkpt lat="42.91836" lon="0.33398">
        <ele>1063</ele>
        <time>2020-11-11T13:28:38.000Z</time>
      </trkpt>
      <trkpt lat="42.91835" lon="0.33394">
        <ele>1063</ele>
        <time>2020-11-11T13:28:39.000Z</time>
      </trkpt>
      <trkpt lat="42.91833" lon="0.3339">
        <ele>1064</ele>
        <time>2020-11-11T13:28:40.000Z</time>
      </trkpt>
      <trkpt lat="42.91832" lon="0.33387">
        <ele>1064</ele>
        <time>2020-11-11T13:28:41.000Z</time>
      </trkpt>
      <trkpt lat="42.91831" lon="0.33383">
        <ele>1064</ele>
        <time>2020-11-11T13:28:42.000Z</time>
      </trkpt>
      <trkpt lat="42.9183" lon="0.3338">
        <ele>1064</ele>
        <time>2020-11-11T13:28:43.000Z</time>
      </trkpt>
      <trkpt lat="42.91828" lon="0.33377">
        <ele>1064</ele>
        <time>2020-11-11T13:28:44.000Z</time>
      </trkpt>
      <trkpt lat="42.91826" lon="0.33373">
        <ele>1066</ele>
        <time>2020-11-11T13:28:45.000Z</time>
      </trkpt>
      <trkpt lat="42.91824" lon="0.33371">
        <ele>1066</ele>
        <time>2020-11-11T13:28:46.000Z</time>
      </trkpt>
      <trkpt lat="42.91822" lon="0.33369">
        <ele>1066</ele>
        <time>2020-11-11T13:28:47.000Z</time>
      </trkpt>
      <trkpt lat="42.9182" lon="0.33366">
        <ele>1066</ele>
        <time>2020-11-11T13:28:48.000Z</time>
      </trkpt>
      <trkpt lat="42.91819" lon="0.33364">
        <ele>1067</ele>
        <time>2020-11-11T13:28:49.000Z</time>
      </trkpt>
      <trkpt lat="42.91817" lon="0.33361">
        <ele>1067</ele>
        <time>2020-11-11T13:28:50.000Z</time>
      </trkpt>
      <trkpt lat="42.91816" lon="0.33359">
        <ele>1068</ele>
        <time>2020-11-11T13:28:51.000Z</time>
      </trkpt>
      <trkpt lat="42.91815" lon="0.33356">
        <ele>1068</ele>
        <time>2020-11-11T13:28:52.000Z</time>
      </trkpt>
      <trkpt lat="42.91814" lon="0.33353">
        <ele>1069</ele>
        <time>2020-11-11T13:28:53.000Z</time>
      </trkpt>
      <trkpt lat="42.91813" lon="0.3335">
        <ele>1069</ele>
        <time>2020-11-11T13:28:54.000Z</time>
      </trkpt>
      <trkpt lat="42.91813" lon="0.33348">
        <ele>1070</ele>
        <time>2020-11-11T13:28:55.000Z</time>
      </trkpt>
      <trkpt lat="42.91813" lon="0.33345">
        <ele>1070</ele>
        <time>2020-11-11T13:28:56.000Z</time>
      </trkpt>
      <trkpt lat="42.91814" lon="0.33342">
        <ele>1071</ele>
        <time>2020-11-11T13:28:57.000Z</time>
      </trkpt>
      <trkpt lat="42.91815" lon="0.3334">
        <ele>1071</ele>
        <time>2020-11-11T13:28:58.000Z</time>
      </trkpt>
      <trkpt lat="42.91816" lon="0.33338">
        <ele>1072</ele>
        <time>2020-11-11T13:28:59.000Z</time>
      </trkpt>
      <trkpt lat="42.91818" lon="0.33335">
        <ele>1072</ele>
        <time>2020-11-11T13:29:00.000Z</time>
      </trkpt>
      <trkpt lat="42.9182" lon="0.33333">
        <ele>1073</ele>
        <time>2020-11-11T13:29:01.000Z</time>
      </trkpt>
      <trkpt lat="42.91822" lon="0.3333">
        <ele>1073</ele>
        <time>2020-11-11T13:29:02.000Z</time>
      </trkpt>
      <trkpt lat="42.91823" lon="0.33327">
        <ele>1074</ele>
        <time>2020-11-11T13:29:03.000Z</time>
      </trkpt>
      <trkpt lat="42.91826" lon="0.33324">
        <ele>1074</ele>
        <time>2020-11-11T13:29:04.000Z</time>
      </trkpt>
      <trkpt lat="42.91828" lon="0.3332">
        <ele>1075</ele>
        <time>2020-11-11T13:29:05.000Z</time>
      </trkpt>
      <trkpt lat="42.9183" lon="0.33316">
        <ele>1075</ele>
        <time>2020-11-11T13:29:06.000Z</time>
      </trkpt>
      <trkpt lat="42.91832" lon="0.33312">
        <ele>1075</ele>
        <time>2020-11-11T13:29:07.000Z</time>
      </trkpt>
      <trkpt lat="42.91834" lon="0.33308">
        <ele>1076</ele>
        <time>2020-11-11T13:29:08.000Z</time>
      </trkpt>
      <trkpt lat="42.91835" lon="0.33303">
        <ele>1076</ele>
        <time>2020-11-11T13:29:09.000Z</time>
      </trkpt>
      <trkpt lat="42.91836" lon="0.33299">
        <ele>1076</ele>
        <time>2020-11-11T13:29:10.000Z</time>
      </trkpt>
      <trkpt lat="42.91836" lon="0.33295">
        <ele>1077</ele>
        <time>2020-11-11T13:29:11.000Z</time>
      </trkpt>
      <trkpt lat="42.91837" lon="0.33291">
        <ele>1077</ele>
        <time>2020-11-11T13:29:12.000Z</time>
      </trkpt>
      <trkpt lat="42.91837" lon="0.33286">
        <ele>1077</ele>
        <time>2020-11-11T13:29:13.000Z</time>
      </trkpt>
      <trkpt lat="42.91837" lon="0.33282">
        <ele>1077</ele>
        <time>2020-11-11T13:29:14.000Z</time>
      </trkpt>
      <trkpt lat="42.91838" lon="0.33278">
        <ele>1078</ele>
        <time>2020-11-11T13:29:15.000Z</time>
      </trkpt>
      <trkpt lat="42.91838" lon="0.33275">
        <ele>1078</ele>
        <time>2020-11-11T13:29:16.000Z</time>
      </trkpt>
      <trkpt lat="42.91839" lon="0.33271">
        <ele>1078</ele>
        <time>2020-11-11T13:29:17.000Z</time>
      </trkpt>
      <trkpt lat="42.9184" lon="0.33268">
        <ele>1079</ele>
        <time>2020-11-11T13:29:18.000Z</time>
      </trkpt>
      <trkpt lat="42.91841" lon="0.33265">
        <ele>1079</ele>
        <time>2020-11-11T13:29:19.000Z</time>
      </trkpt>
      <trkpt lat="42.91841" lon="0.33262">
        <ele>1080</ele>
        <time>2020-11-11T13:29:20.000Z</time>
      </trkpt>
      <trkpt lat="42.91842" lon="0.33259">
        <ele>1080</ele>
        <time>2020-11-11T13:29:21.000Z</time>
      </trkpt>
      <trkpt lat="42.91842" lon="0.33255">
        <ele>1080</ele>
        <time>2020-11-11T13:29:22.000Z</time>
      </trkpt>
      <trkpt lat="42.91843" lon="0.33251">
        <ele>1081</ele>
        <time>2020-11-11T13:29:23.000Z</time>
      </trkpt>
      <trkpt lat="42.91843" lon="0.33247">
        <ele>1081</ele>
        <time>2020-11-11T13:29:24.000Z</time>
      </trkpt>
      <trkpt lat="42.91843" lon="0.33243">
        <ele>1081</ele>
        <time>2020-11-11T13:29:25.000Z</time>
      </trkpt>
      <trkpt lat="42.91842" lon="0.33238">
        <ele>1083</ele>
        <time>2020-11-11T13:29:26.000Z</time>
      </trkpt>
      <trkpt lat="42.91842" lon="0.33234">
        <ele>1083</ele>
        <time>2020-11-11T13:29:27.000Z</time>
      </trkpt>
      <trkpt lat="42.91843" lon="0.33229">
        <ele>1083</ele>
        <time>2020-11-11T13:29:28.000Z</time>
      </trkpt>
      <trkpt lat="42.91843" lon="0.33224">
        <ele>1083</ele>
        <time>2020-11-11T13:29:29.000Z</time>
      </trkpt>
      <trkpt lat="42.91844" lon="0.33219">
        <ele>1084</ele>
        <time>2020-11-11T13:29:30.000Z</time>
      </trkpt>
      <trkpt lat="42.91845" lon="0.33215">
        <ele>1084</ele>
        <time>2020-11-11T13:29:31.000Z</time>
      </trkpt>
      <trkpt lat="42.91846" lon="0.33211">
        <ele>1085</ele>
        <time>2020-11-11T13:29:32.000Z</time>
      </trkpt>
      <trkpt lat="42.91847" lon="0.33207">
        <ele>1085</ele>
        <time>2020-11-11T13:29:33.000Z</time>
      </trkpt>
      <trkpt lat="42.91848" lon="0.33204">
        <ele>1086</ele>
        <time>2020-11-11T13:29:34.000Z</time>
      </trkpt>
      <trkpt lat="42.91849" lon="0.33201">
        <ele>1086</ele>
        <time>2020-11-11T13:29:35.000Z</time>
      </trkpt>
      <trkpt lat="42.91851" lon="0.33199">
        <ele>1087</ele>
        <time>2020-11-11T13:29:36.000Z</time>
      </trkpt>
      <trkpt lat="42.91852" lon="0.33196">
        <ele>1087</ele>
        <time>2020-11-11T13:29:37.000Z</time>
      </trkpt>
      <trkpt lat="42.91853" lon="0.33193">
        <ele>1088</ele>
        <time>2020-11-11T13:29:38.000Z</time>
      </trkpt>
      <trkpt lat="42.91853" lon="0.33189">
        <ele>1088</ele>
        <time>2020-11-11T13:29:39.000Z</time>
      </trkpt>
      <trkpt lat="42.91854" lon="0.33185">
        <ele>1089</ele>
        <time>2020-11-11T13:29:40.000Z</time>
      </trkpt>
      <trkpt lat="42.91854" lon="0.33181">
        <ele>1089</ele>
        <time>2020-11-11T13:29:41.000Z</time>
      </trkpt>
      <trkpt lat="42.91854" lon="0.33178">
        <ele>1090</ele>
        <time>2020-11-11T13:29:42.000Z</time>
      </trkpt>
      <trkpt lat="42.91855" lon="0.33175">
        <ele>1090</ele>
        <time>2020-11-11T13:29:43.000Z</time>
      </trkpt>
      <trkpt lat="42.91856" lon="0.33172">
        <ele>1091</ele>
        <time>2020-11-11T13:29:44.000Z</time>
      </trkpt>
      <trkpt lat="42.91856" lon="0.33169">
        <ele>1091</ele>
        <time>2020-11-11T13:29:45.000Z</time>
      </trkpt>
      <trkpt lat="42.91857" lon="0.33165">
        <ele>1092</ele>
        <time>2020-11-11T13:29:46.000Z</time>
      </trkpt>
      <trkpt lat="42.91857" lon="0.33162">
        <ele>1092</ele>
        <time>2020-11-11T13:29:47.000Z</time>
      </trkpt>
      <trkpt lat="42.91857" lon="0.33158">
        <ele>1092</ele>
        <time>2020-11-11T13:29:48.000Z</time>
      </trkpt>
      <trkpt lat="42.91858" lon="0.33155">
        <ele>1093</ele>
        <time>2020-11-11T13:29:49.000Z</time>
      </trkpt>
      <trkpt lat="42.91858" lon="0.33153">
        <ele>1093</ele>
        <time>2020-11-11T13:29:50.000Z</time>
      </trkpt>
      <trkpt lat="42.91858" lon="0.33151">
        <ele>1093</ele>
        <time>2020-11-11T13:29:51.000Z</time>
      </trkpt>
      <trkpt lat="42.91857" lon="0.33149">
        <ele>1094</ele>
        <time>2020-11-11T13:29:52.000Z</time>
      </trkpt>
      <trkpt lat="42.91856" lon="0.33148">
        <ele>1094</ele>
        <time>2020-11-11T13:29:53.000Z</time>
      </trkpt>
      <trkpt lat="42.91855" lon="0.33147">
        <ele>1094</ele>
        <time>2020-11-11T13:29:54.000Z</time>
      </trkpt>
      <trkpt lat="42.91854" lon="0.33147">
        <ele>1094</ele>
        <time>2020-11-11T13:29:55.000Z</time>
      </trkpt>
      <trkpt lat="42.91854" lon="0.33148">
        <ele>1095</ele>
        <time>2020-11-11T13:29:56.000Z</time>
      </trkpt>
      <trkpt lat="42.91853" lon="0.33149">
        <ele>1095</ele>
        <time>2020-11-11T13:29:57.000Z</time>
      </trkpt>
      <trkpt lat="42.91853" lon="0.3315">
        <ele>1095</ele>
        <time>2020-11-11T13:29:58.000Z</time>
      </trkpt>
      <trkpt lat="42.91853" lon="0.33151">
        <ele>1095</ele>
        <time>2020-11-11T13:29:59.000Z</time>
      </trkpt>
      <trkpt lat="42.91853" lon="0.33154">
        <ele>1095</ele>
        <time>2020-11-11T13:30:01.000Z</time>
      </trkpt>
      <trkpt lat="42.91852" lon="0.33157">
        <ele>1095</ele>
        <time>2020-11-11T13:30:02.000Z</time>
      </trkpt>
      <trkpt lat="42.9185" lon="0.33159">
        <ele>1095</ele>
        <time>2020-11-11T13:30:03.000Z</time>
      </trkpt>
      <trkpt lat="42.91849" lon="0.33162">
        <ele>1095</ele>
        <time>2020-11-11T13:30:04.000Z</time>
      </trkpt>
      <trkpt lat="42.91848" lon="0.33165">
        <ele>1095</ele>
        <time>2020-11-11T13:30:05.000Z</time>
      </trkpt>
      <trkpt lat="42.91846" lon="0.33168">
        <ele>1095</ele>
        <time>2020-11-11T13:30:06.000Z</time>
      </trkpt>
      <trkpt lat="42.91845" lon="0.33171">
        <ele>1095</ele>
        <time>2020-11-11T13:30:07.000Z</time>
      </trkpt>
      <trkpt lat="42.91843" lon="0.33174">
        <ele>1095</ele>
        <time>2020-11-11T13:30:08.000Z</time>
      </trkpt>
      <trkpt lat="42.91841" lon="0.33177">
        <ele>1095</ele>
        <time>2020-11-11T13:30:09.000Z</time>
      </trkpt>
      <trkpt lat="42.9184" lon="0.33179">
        <ele>1094</ele>
        <time>2020-11-11T13:30:10.000Z</time>
      </trkpt>
      <trkpt lat="42.91839" lon="0.33182">
        <ele>1094</ele>
        <time>2020-11-11T13:30:11.000Z</time>
      </trkpt>
      <trkpt lat="42.91838" lon="0.33184">
        <ele>1094</ele>
        <time>2020-11-11T13:30:12.000Z</time>
      </trkpt>
      <trkpt lat="42.91838" lon="0.33186">
        <ele>1094</ele>
        <time>2020-11-11T13:30:13.000Z</time>
      </trkpt>
      <trkpt lat="42.91838" lon="0.33188">
        <ele>1094</ele>
        <time>2020-11-11T13:30:14.000Z</time>
      </trkpt>
      <trkpt lat="42.91837" lon="0.3319">
        <ele>1094</ele>
        <time>2020-11-11T13:30:15.000Z</time>
      </trkpt>
      <trkpt lat="42.91837" lon="0.33191">
        <ele>1094</ele>
        <time>2020-11-11T13:30:16.000Z</time>
      </trkpt>
      <trkpt lat="42.91837" lon="0.33193">
        <ele>1094</ele>
        <time>2020-11-11T13:30:17.000Z</time>
      </trkpt>
      <trkpt lat="42.91837" lon="0.33194">
        <ele>1094</ele>
        <time>2020-11-11T13:30:18.000Z</time>
      </trkpt>
      <trkpt lat="42.91837" lon="0.33196">
        <ele>1094</ele>
        <time>2020-11-11T13:30:19.000Z</time>
      </trkpt>
      <trkpt lat="42.91836" lon="0.33198">
        <ele>1094</ele>
        <time>2020-11-11T13:30:20.000Z</time>
      </trkpt>
      <trkpt lat="42.91835" lon="0.332">
        <ele>1094</ele>
        <time>2020-11-11T13:30:21.000Z</time>
      </trkpt>
      <trkpt lat="42.91834" lon="0.33202">
        <ele>1094</ele>
        <time>2020-11-11T13:30:22.000Z</time>
      </trkpt>
      <trkpt lat="42.91832" lon="0.33204">
        <ele>1094</ele>
        <time>2020-11-11T13:30:23.000Z</time>
      </trkpt>
      <trkpt lat="42.91831" lon="0.33206">
        <ele>1094</ele>
        <time>2020-11-11T13:30:24.000Z</time>
      </trkpt>
      <trkpt lat="42.91829" lon="0.33208">
        <ele>1094</ele>
        <time>2020-11-11T13:30:25.000Z</time>
      </trkpt>
      <trkpt lat="42.91828" lon="0.3321">
        <ele>1094</ele>
        <time>2020-11-11T13:30:26.000Z</time>
      </trkpt>
      <trkpt lat="42.91827" lon="0.33213">
        <ele>1094</ele>
        <time>2020-11-11T13:30:27.000Z</time>
      </trkpt>
      <trkpt lat="42.91826" lon="0.33216">
        <ele>1094</ele>
        <time>2020-11-11T13:30:28.000Z</time>
      </trkpt>
      <trkpt lat="42.91825" lon="0.33218">
        <ele>1094</ele>
        <time>2020-11-11T13:30:29.000Z</time>
      </trkpt>
      <trkpt lat="42.91822" lon="0.33223">
        <ele>1094</ele>
        <time>2020-11-11T13:30:31.000Z</time>
      </trkpt>
      <trkpt lat="42.91821" lon="0.33226">
        <ele>1094</ele>
        <time>2020-11-11T13:30:32.000Z</time>
      </trkpt>
      <trkpt lat="42.91819" lon="0.33229">
        <ele>1094</ele>
        <time>2020-11-11T13:30:33.000Z</time>
      </trkpt>
      <trkpt lat="42.91817" lon="0.33232">
        <ele>1094</ele>
        <time>2020-11-11T13:30:34.000Z</time>
      </trkpt>
      <trkpt lat="42.91814" lon="0.33235">
        <ele>1094</ele>
        <time>2020-11-11T13:30:35.000Z</time>
      </trkpt>
      <trkpt lat="42.91811" lon="0.33238">
        <ele>1094</ele>
        <time>2020-11-11T13:30:36.000Z</time>
      </trkpt>
      <trkpt lat="42.91808" lon="0.33242">
        <ele>1094</ele>
        <time>2020-11-11T13:30:37.000Z</time>
      </trkpt>
      <trkpt lat="42.91805" lon="0.33245">
        <ele>1095</ele>
        <time>2020-11-11T13:30:38.000Z</time>
      </trkpt>
      <trkpt lat="42.91802" lon="0.33248">
        <ele>1095</ele>
        <time>2020-11-11T13:30:39.000Z</time>
      </trkpt>
      <trkpt lat="42.91799" lon="0.3325">
        <ele>1095</ele>
        <time>2020-11-11T13:30:40.000Z</time>
      </trkpt>
      <trkpt lat="42.91797" lon="0.33253">
        <ele>1095</ele>
        <time>2020-11-11T13:30:41.000Z</time>
      </trkpt>
      <trkpt lat="42.91794" lon="0.33255">
        <ele>1095</ele>
        <time>2020-11-11T13:30:42.000Z</time>
      </trkpt>
      <trkpt lat="42.91791" lon="0.33259">
        <ele>1095</ele>
        <time>2020-11-11T13:30:43.000Z</time>
      </trkpt>
      <trkpt lat="42.91788" lon="0.33263">
        <ele>1095</ele>
        <time>2020-11-11T13:30:44.000Z</time>
      </trkpt>
      <trkpt lat="42.91786" lon="0.33267">
        <ele>1095</ele>
        <time>2020-11-11T13:30:45.000Z</time>
      </trkpt>
      <trkpt lat="42.91784" lon="0.33272">
        <ele>1095</ele>
        <time>2020-11-11T13:30:46.000Z</time>
      </trkpt>
      <trkpt lat="42.91782" lon="0.33276">
        <ele>1095</ele>
        <time>2020-11-11T13:30:47.000Z</time>
      </trkpt>
      <trkpt lat="42.91781" lon="0.33281">
        <ele>1095</ele>
        <time>2020-11-11T13:30:48.000Z</time>
      </trkpt>
      <trkpt lat="42.9178" lon="0.33285">
        <ele>1095</ele>
        <time>2020-11-11T13:30:49.000Z</time>
      </trkpt>
      <trkpt lat="42.91779" lon="0.33289">
        <ele>1094</ele>
        <time>2020-11-11T13:30:50.000Z</time>
      </trkpt>
      <trkpt lat="42.9178" lon="0.33294">
        <ele>1094</ele>
        <time>2020-11-11T13:30:51.000Z</time>
      </trkpt>
      <trkpt lat="42.9178" lon="0.33298">
        <ele>1094</ele>
        <time>2020-11-11T13:30:52.000Z</time>
      </trkpt>
      <trkpt lat="42.91782" lon="0.33303">
        <ele>1094</ele>
        <time>2020-11-11T13:30:53.000Z</time>
      </trkpt>
      <trkpt lat="42.91783" lon="0.33307">
        <ele>1094</ele>
        <time>2020-11-11T13:30:54.000Z</time>
      </trkpt>
      <trkpt lat="42.91784" lon="0.33312">
        <ele>1094</ele>
        <time>2020-11-11T13:30:55.000Z</time>
      </trkpt>
      <trkpt lat="42.91784" lon="0.33316">
        <ele>1094</ele>
        <time>2020-11-11T13:30:56.000Z</time>
      </trkpt>
      <trkpt lat="42.91784" lon="0.3332">
        <ele>1094</ele>
        <time>2020-11-11T13:30:57.000Z</time>
      </trkpt>
      <trkpt lat="42.91785" lon="0.33325">
        <ele>1094</ele>
        <time>2020-11-11T13:30:58.000Z</time>
      </trkpt>
      <trkpt lat="42.91786" lon="0.33329">
        <ele>1094</ele>
        <time>2020-11-11T13:30:59.000Z</time>
      </trkpt>
      <trkpt lat="42.91786" lon="0.33334">
        <ele>1094</ele>
        <time>2020-11-11T13:31:00.000Z</time>
      </trkpt>
      <trkpt lat="42.91787" lon="0.33338">
        <ele>1094</ele>
        <time>2020-11-11T13:31:01.000Z</time>
      </trkpt>
      <trkpt lat="42.91787" lon="0.33343">
        <ele>1094</ele>
        <time>2020-11-11T13:31:02.000Z</time>
      </trkpt>
      <trkpt lat="42.91788" lon="0.33348">
        <ele>1094</ele>
        <time>2020-11-11T13:31:03.000Z</time>
      </trkpt>
      <trkpt lat="42.91787" lon="0.33353">
        <ele>1094</ele>
        <time>2020-11-11T13:31:04.000Z</time>
      </trkpt>
      <trkpt lat="42.91787" lon="0.33358">
        <ele>1094</ele>
        <time>2020-11-11T13:31:05.000Z</time>
      </trkpt>
      <trkpt lat="42.91787" lon="0.33363">
        <ele>1094</ele>
        <time>2020-11-11T13:31:06.000Z</time>
      </trkpt>
      <trkpt lat="42.91786" lon="0.33368">
        <ele>1094</ele>
        <time>2020-11-11T13:31:07.000Z</time>
      </trkpt>
      <trkpt lat="42.91784" lon="0.33372">
        <ele>1094</ele>
        <time>2020-11-11T13:31:08.000Z</time>
      </trkpt>
      <trkpt lat="42.91783" lon="0.33376">
        <ele>1095</ele>
        <time>2020-11-11T13:31:09.000Z</time>
      </trkpt>
      <trkpt lat="42.91781" lon="0.33381">
        <ele>1095</ele>
        <time>2020-11-11T13:31:10.000Z</time>
      </trkpt>
      <trkpt lat="42.91778" lon="0.33385">
        <ele>1095</ele>
        <time>2020-11-11T13:31:11.000Z</time>
      </trkpt>
      <trkpt lat="42.91775" lon="0.33389">
        <ele>1095</ele>
        <time>2020-11-11T13:31:12.000Z</time>
      </trkpt>
      <trkpt lat="42.91772" lon="0.33394">
        <ele>1095</ele>
        <time>2020-11-11T13:31:13.000Z</time>
      </trkpt>
      <trkpt lat="42.91769" lon="0.33399">
        <ele>1095</ele>
        <time>2020-11-11T13:31:14.000Z</time>
      </trkpt>
      <trkpt lat="42.91766" lon="0.33404">
        <ele>1095</ele>
        <time>2020-11-11T13:31:15.000Z</time>
      </trkpt>
      <trkpt lat="42.91763" lon="0.33409">
        <ele>1095</ele>
        <time>2020-11-11T13:31:16.000Z</time>
      </trkpt>
      <trkpt lat="42.9176" lon="0.33413">
        <ele>1095</ele>
        <time>2020-11-11T13:31:17.000Z</time>
      </trkpt>
      <trkpt lat="42.91757" lon="0.33418">
        <ele>1095</ele>
        <time>2020-11-11T13:31:18.000Z</time>
      </trkpt>
      <trkpt lat="42.91755" lon="0.33422">
        <ele>1095</ele>
        <time>2020-11-11T13:31:19.000Z</time>
      </trkpt>
      <trkpt lat="42.91753" lon="0.33427">
        <ele>1096</ele>
        <time>2020-11-11T13:31:20.000Z</time>
      </trkpt>
      <trkpt lat="42.91751" lon="0.33431">
        <ele>1096</ele>
        <time>2020-11-11T13:31:21.000Z</time>
      </trkpt>
      <trkpt lat="42.9175" lon="0.33435">
        <ele>1096</ele>
        <time>2020-11-11T13:31:22.000Z</time>
      </trkpt>
      <trkpt lat="42.91748" lon="0.3344">
        <ele>1096</ele>
        <time>2020-11-11T13:31:23.000Z</time>
      </trkpt>
      <trkpt lat="42.91746" lon="0.33444">
        <ele>1096</ele>
        <time>2020-11-11T13:31:24.000Z</time>
      </trkpt>
      <trkpt lat="42.91744" lon="0.33449">
        <ele>1097</ele>
        <time>2020-11-11T13:31:25.000Z</time>
      </trkpt>
      <trkpt lat="42.91741" lon="0.33453">
        <ele>1097</ele>
        <time>2020-11-11T13:31:26.000Z</time>
      </trkpt>
      <trkpt lat="42.91738" lon="0.33457">
        <ele>1097</ele>
        <time>2020-11-11T13:31:27.000Z</time>
      </trkpt>
      <trkpt lat="42.91736" lon="0.33462">
        <ele>1097</ele>
        <time>2020-11-11T13:31:28.000Z</time>
      </trkpt>
      <trkpt lat="42.91734" lon="0.33466">
        <ele>1098</ele>
        <time>2020-11-11T13:31:29.000Z</time>
      </trkpt>
      <trkpt lat="42.91731" lon="0.33471">
        <ele>1098</ele>
        <time>2020-11-11T13:31:30.000Z</time>
      </trkpt>
      <trkpt lat="42.91729" lon="0.33475">
        <ele>1098</ele>
        <time>2020-11-11T13:31:31.000Z</time>
      </trkpt>
      <trkpt lat="42.91727" lon="0.3348">
        <ele>1098</ele>
        <time>2020-11-11T13:31:32.000Z</time>
      </trkpt>
      <trkpt lat="42.91725" lon="0.33484">
        <ele>1099</ele>
        <time>2020-11-11T13:31:33.000Z</time>
      </trkpt>
      <trkpt lat="42.91723" lon="0.33489">
        <ele>1099</ele>
        <time>2020-11-11T13:31:34.000Z</time>
      </trkpt>
      <trkpt lat="42.9172" lon="0.33493">
        <ele>1099</ele>
        <time>2020-11-11T13:31:35.000Z</time>
      </trkpt>
      <trkpt lat="42.91718" lon="0.33497">
        <ele>1100</ele>
        <time>2020-11-11T13:31:36.000Z</time>
      </trkpt>
      <trkpt lat="42.91716" lon="0.33501">
        <ele>1100</ele>
        <time>2020-11-11T13:31:37.000Z</time>
      </trkpt>
      <trkpt lat="42.91713" lon="0.33505">
        <ele>1100</ele>
        <time>2020-11-11T13:31:38.000Z</time>
      </trkpt>
      <trkpt lat="42.9171" lon="0.33509">
        <ele>1100</ele>
        <time>2020-11-11T13:31:39.000Z</time>
      </trkpt>
      <trkpt lat="42.91708" lon="0.33513">
        <ele>1101</ele>
        <time>2020-11-11T13:31:40.000Z</time>
      </trkpt>
      <trkpt lat="42.91705" lon="0.33517">
        <ele>1101</ele>
        <time>2020-11-11T13:31:41.000Z</time>
      </trkpt>
      <trkpt lat="42.91703" lon="0.33521">
        <ele>1101</ele>
        <time>2020-11-11T13:31:42.000Z</time>
      </trkpt>
      <trkpt lat="42.917" lon="0.33525">
        <ele>1101</ele>
        <time>2020-11-11T13:31:43.000Z</time>
      </trkpt>
      <trkpt lat="42.91698" lon="0.3353">
        <ele>1101</ele>
        <time>2020-11-11T13:31:44.000Z</time>
      </trkpt>
      <trkpt lat="42.91696" lon="0.33535">
        <ele>1101</ele>
        <time>2020-11-11T13:31:45.000Z</time>
      </trkpt>
      <trkpt lat="42.91693" lon="0.3354">
        <ele>1101</ele>
        <time>2020-11-11T13:31:46.000Z</time>
      </trkpt>
      <trkpt lat="42.91691" lon="0.33546">
        <ele>1101</ele>
        <time>2020-11-11T13:31:47.000Z</time>
      </trkpt>
      <trkpt lat="42.91689" lon="0.33552">
        <ele>1101</ele>
        <time>2020-11-11T13:31:48.000Z</time>
      </trkpt>
      <trkpt lat="42.91687" lon="0.33558">
        <ele>1101</ele>
        <time>2020-11-11T13:31:49.000Z</time>
      </trkpt>
      <trkpt lat="42.91686" lon="0.33564">
        <ele>1101</ele>
        <time>2020-11-11T13:31:50.000Z</time>
      </trkpt>
      <trkpt lat="42.91686" lon="0.3357">
        <ele>1102</ele>
        <time>2020-11-11T13:31:51.000Z</time>
      </trkpt>
      <trkpt lat="42.91686" lon="0.33577">
        <ele>1102</ele>
        <time>2020-11-11T13:31:52.000Z</time>
      </trkpt>
      <trkpt lat="42.91686" lon="0.33583">
        <ele>1102</ele>
        <time>2020-11-11T13:31:53.000Z</time>
      </trkpt>
      <trkpt lat="42.91686" lon="0.33589">
        <ele>1102</ele>
        <time>2020-11-11T13:31:54.000Z</time>
      </trkpt>
      <trkpt lat="42.91686" lon="0.33594">
        <ele>1103</ele>
        <time>2020-11-11T13:31:55.000Z</time>
      </trkpt>
      <trkpt lat="42.91685" lon="0.336">
        <ele>1103</ele>
        <time>2020-11-11T13:31:56.000Z</time>
      </trkpt>
      <trkpt lat="42.91684" lon="0.33605">
        <ele>1103</ele>
        <time>2020-11-11T13:31:57.000Z</time>
      </trkpt>
      <trkpt lat="42.91683" lon="0.3361">
        <ele>1103</ele>
        <time>2020-11-11T13:31:58.000Z</time>
      </trkpt>
      <trkpt lat="42.91682" lon="0.33615">
        <ele>1103</ele>
        <time>2020-11-11T13:31:59.000Z</time>
      </trkpt>
      <trkpt lat="42.9168" lon="0.3362">
        <ele>1103</ele>
        <time>2020-11-11T13:32:00.000Z</time>
      </trkpt>
      <trkpt lat="42.91677" lon="0.33624">
        <ele>1104</ele>
        <time>2020-11-11T13:32:01.000Z</time>
      </trkpt>
      <trkpt lat="42.91675" lon="0.33628">
        <ele>1104</ele>
        <time>2020-11-11T13:32:02.000Z</time>
      </trkpt>
      <trkpt lat="42.91672" lon="0.33632">
        <ele>1104</ele>
        <time>2020-11-11T13:32:03.000Z</time>
      </trkpt>
      <trkpt lat="42.91669" lon="0.33636">
        <ele>1104</ele>
        <time>2020-11-11T13:32:04.000Z</time>
      </trkpt>
      <trkpt lat="42.91666" lon="0.33641">
        <ele>1104</ele>
        <time>2020-11-11T13:32:05.000Z</time>
      </trkpt>
      <trkpt lat="42.91662" lon="0.33645">
        <ele>1104</ele>
        <time>2020-11-11T13:32:06.000Z</time>
      </trkpt>
      <trkpt lat="42.91659" lon="0.33649">
        <ele>1103</ele>
        <time>2020-11-11T13:32:07.000Z</time>
      </trkpt>
      <trkpt lat="42.91656" lon="0.33653">
        <ele>1103</ele>
        <time>2020-11-11T13:32:08.000Z</time>
      </trkpt>
      <trkpt lat="42.91653" lon="0.33656">
        <ele>1103</ele>
        <time>2020-11-11T13:32:09.000Z</time>
      </trkpt>
      <trkpt lat="42.91649" lon="0.33659">
        <ele>1103</ele>
        <time>2020-11-11T13:32:10.000Z</time>
      </trkpt>
      <trkpt lat="42.91646" lon="0.33662">
        <ele>1103</ele>
        <time>2020-11-11T13:32:11.000Z</time>
      </trkpt>
      <trkpt lat="42.91643" lon="0.33664">
        <ele>1103</ele>
        <time>2020-11-11T13:32:12.000Z</time>
      </trkpt>
      <trkpt lat="42.91641" lon="0.33667">
        <ele>1102</ele>
        <time>2020-11-11T13:32:13.000Z</time>
      </trkpt>
      <trkpt lat="42.91639" lon="0.33669">
        <ele>1102</ele>
        <time>2020-11-11T13:32:14.000Z</time>
      </trkpt>
      <trkpt lat="42.91637" lon="0.33671">
        <ele>1102</ele>
        <time>2020-11-11T13:32:15.000Z</time>
      </trkpt>
      <trkpt lat="42.91635" lon="0.33672">
        <ele>1102</ele>
        <time>2020-11-11T13:32:16.000Z</time>
      </trkpt>
      <trkpt lat="42.91634" lon="0.33674">
        <ele>1102</ele>
        <time>2020-11-11T13:32:17.000Z</time>
      </trkpt>
      <trkpt lat="42.91632" lon="0.33675">
        <ele>1102</ele>
        <time>2020-11-11T13:32:18.000Z</time>
      </trkpt>
      <trkpt lat="42.91631" lon="0.33676">
        <ele>1102</ele>
        <time>2020-11-11T13:32:19.000Z</time>
      </trkpt>
      <trkpt lat="42.9163" lon="0.33678">
        <ele>1102</ele>
        <time>2020-11-11T13:32:20.000Z</time>
      </trkpt>
      <trkpt lat="42.91628" lon="0.3368">
        <ele>1102</ele>
        <time>2020-11-11T13:32:21.000Z</time>
      </trkpt>
      <trkpt lat="42.91627" lon="0.33682">
        <ele>1102</ele>
        <time>2020-11-11T13:32:22.000Z</time>
      </trkpt>
      <trkpt lat="42.91626" lon="0.33683">
        <ele>1102</ele>
        <time>2020-11-11T13:32:23.000Z</time>
      </trkpt>
      <trkpt lat="42.91625" lon="0.33685">
        <ele>1102</ele>
        <time>2020-11-11T13:32:24.000Z</time>
      </trkpt>
      <trkpt lat="42.91624" lon="0.33688">
        <ele>1102</ele>
        <time>2020-11-11T13:32:25.000Z</time>
      </trkpt>
      <trkpt lat="42.91623" lon="0.3369">
        <ele>1102</ele>
        <time>2020-11-11T13:32:26.000Z</time>
      </trkpt>
      <trkpt lat="42.91622" lon="0.33694">
        <ele>1102</ele>
        <time>2020-11-11T13:32:27.000Z</time>
      </trkpt>
      <trkpt lat="42.9162" lon="0.33697">
        <ele>1102</ele>
        <time>2020-11-11T13:32:28.000Z</time>
      </trkpt>
      <trkpt lat="42.91598" lon="0.33785">
        <ele>1099</ele>
        <time>2020-11-11T13:32:42.000Z</time>
      </trkpt>
      <trkpt lat="42.91598" lon="0.33792">
        <ele>1099</ele>
        <time>2020-11-11T13:32:43.000Z</time>
      </trkpt>
      <trkpt lat="42.91599" lon="0.33798">
        <ele>1099</ele>
        <time>2020-11-11T13:32:44.000Z</time>
      </trkpt>
      <trkpt lat="42.91599" lon="0.33803">
        <ele>1099</ele>
        <time>2020-11-11T13:32:45.000Z</time>
      </trkpt>
      <trkpt lat="42.91599" lon="0.33821">
        <ele>1099</ele>
        <time>2020-11-11T13:32:48.000Z</time>
      </trkpt>
      <trkpt lat="42.916" lon="0.33826">
        <ele>1099</ele>
        <time>2020-11-11T13:32:49.000Z</time>
      </trkpt>
      <trkpt lat="42.916" lon="0.3383">
        <ele>1099</ele>
        <time>2020-11-11T13:32:50.000Z</time>
      </trkpt>
      <trkpt lat="42.916" lon="0.33834">
        <ele>1099</ele>
        <time>2020-11-11T13:32:51.000Z</time>
      </trkpt>
      <trkpt lat="42.916" lon="0.33837">
        <ele>1099</ele>
        <time>2020-11-11T13:32:52.000Z</time>
      </trkpt>
      <trkpt lat="42.916" lon="0.33841">
        <ele>1099</ele>
        <time>2020-11-11T13:32:53.000Z</time>
      </trkpt>
      <trkpt lat="42.91599" lon="0.33844">
        <ele>1099</ele>
        <time>2020-11-11T13:32:54.000Z</time>
      </trkpt>
      <trkpt lat="42.91599" lon="0.33848">
        <ele>1099</ele>
        <time>2020-11-11T13:32:55.000Z</time>
      </trkpt>
      <trkpt lat="42.91599" lon="0.33851">
        <ele>1099</ele>
        <time>2020-11-11T13:32:56.000Z</time>
      </trkpt>
      <trkpt lat="42.91598" lon="0.33855">
        <ele>1099</ele>
        <time>2020-11-11T13:32:57.000Z</time>
      </trkpt>
      <trkpt lat="42.91598" lon="0.33858">
        <ele>1099</ele>
        <time>2020-11-11T13:32:58.000Z</time>
      </trkpt>
      <trkpt lat="42.91598" lon="0.33861">
        <ele>1099</ele>
        <time>2020-11-11T13:32:59.000Z</time>
      </trkpt>
      <trkpt lat="42.91598" lon="0.33864">
        <ele>1099</ele>
        <time>2020-11-11T13:33:00.000Z</time>
      </trkpt>
      <trkpt lat="42.91599" lon="0.33868">
        <ele>1099</ele>
        <time>2020-11-11T13:33:01.000Z</time>
      </trkpt>
      <trkpt lat="42.91599" lon="0.33872">
        <ele>1099</ele>
        <time>2020-11-11T13:33:02.000Z</time>
      </trkpt>
      <trkpt lat="42.916" lon="0.33877">
        <ele>1099</ele>
        <time>2020-11-11T13:33:03.000Z</time>
      </trkpt>
      <trkpt lat="42.916" lon="0.33881">
        <ele>1099</ele>
        <time>2020-11-11T13:33:04.000Z</time>
      </trkpt>
      <trkpt lat="42.916" lon="0.33886">
        <ele>1099</ele>
        <time>2020-11-11T13:33:05.000Z</time>
      </trkpt>
      <trkpt lat="42.916" lon="0.33891">
        <ele>1099</ele>
        <time>2020-11-11T13:33:06.000Z</time>
      </trkpt>
      <trkpt lat="42.916" lon="0.33896">
        <ele>1099</ele>
        <time>2020-11-11T13:33:07.000Z</time>
      </trkpt>
      <trkpt lat="42.916" lon="0.33901">
        <ele>1099</ele>
        <time>2020-11-11T13:33:08.000Z</time>
      </trkpt>
      <trkpt lat="42.916" lon="0.33905">
        <ele>1099</ele>
        <time>2020-11-11T13:33:09.000Z</time>
      </trkpt>
      <trkpt lat="42.91601" lon="0.3391">
        <ele>1099</ele>
        <time>2020-11-11T13:33:10.000Z</time>
      </trkpt>
      <trkpt lat="42.91602" lon="0.33914">
        <ele>1099</ele>
        <time>2020-11-11T13:33:11.000Z</time>
      </trkpt>
      <trkpt lat="42.91602" lon="0.33919">
        <ele>1099</ele>
        <time>2020-11-11T13:33:12.000Z</time>
      </trkpt>
      <trkpt lat="42.91602" lon="0.33923">
        <ele>1099</ele>
        <time>2020-11-11T13:33:13.000Z</time>
      </trkpt>
      <trkpt lat="42.91602" lon="0.33929">
        <ele>1099</ele>
        <time>2020-11-11T13:33:14.000Z</time>
      </trkpt>
      <trkpt lat="42.91603" lon="0.33934">
        <ele>1099</ele>
        <time>2020-11-11T13:33:15.000Z</time>
      </trkpt>
      <trkpt lat="42.91603" lon="0.3394">
        <ele>1099</ele>
        <time>2020-11-11T13:33:16.000Z</time>
      </trkpt>
      <trkpt lat="42.91604" lon="0.33946">
        <ele>1099</ele>
        <time>2020-11-11T13:33:17.000Z</time>
      </trkpt>
      <trkpt lat="42.91604" lon="0.33951">
        <ele>1099</ele>
        <time>2020-11-11T13:33:18.000Z</time>
      </trkpt>
      <trkpt lat="42.91604" lon="0.33957">
        <ele>1099</ele>
        <time>2020-11-11T13:33:19.000Z</time>
      </trkpt>
      <trkpt lat="42.91603" lon="0.33962">
        <ele>1099</ele>
        <time>2020-11-11T13:33:20.000Z</time>
      </trkpt>
      <trkpt lat="42.91603" lon="0.33967">
        <ele>1099</ele>
        <time>2020-11-11T13:33:21.000Z</time>
      </trkpt>
      <trkpt lat="42.91603" lon="0.33972">
        <ele>1099</ele>
        <time>2020-11-11T13:33:22.000Z</time>
      </trkpt>
      <trkpt lat="42.91603" lon="0.33977">
        <ele>1099</ele>
        <time>2020-11-11T13:33:23.000Z</time>
      </trkpt>
      <trkpt lat="42.91603" lon="0.33982">
        <ele>1099</ele>
        <time>2020-11-11T13:33:24.000Z</time>
      </trkpt>
      <trkpt lat="42.91602" lon="0.33986">
        <ele>1099</ele>
        <time>2020-11-11T13:33:25.000Z</time>
      </trkpt>
      <trkpt lat="42.91601" lon="0.3399">
        <ele>1099</ele>
        <time>2020-11-11T13:33:26.000Z</time>
      </trkpt>
      <trkpt lat="42.91601" lon="0.33994">
        <ele>1099</ele>
        <time>2020-11-11T13:33:27.000Z</time>
      </trkpt>
      <trkpt lat="42.91599" lon="0.33998">
        <ele>1099</ele>
        <time>2020-11-11T13:33:28.000Z</time>
      </trkpt>
      <trkpt lat="42.91598" lon="0.34001">
        <ele>1099</ele>
        <time>2020-11-11T13:33:29.000Z</time>
      </trkpt>
      <trkpt lat="42.91597" lon="0.34004">
        <ele>1099</ele>
        <time>2020-11-11T13:33:30.000Z</time>
      </trkpt>
      <trkpt lat="42.91595" lon="0.34008">
        <ele>1099</ele>
        <time>2020-11-11T13:33:31.000Z</time>
      </trkpt>
      <trkpt lat="42.91593" lon="0.34011">
        <ele>1099</ele>
        <time>2020-11-11T13:33:32.000Z</time>
      </trkpt>
      <trkpt lat="42.91591" lon="0.34015">
        <ele>1099</ele>
        <time>2020-11-11T13:33:33.000Z</time>
      </trkpt>
      <trkpt lat="42.91589" lon="0.34019">
        <ele>1099</ele>
        <time>2020-11-11T13:33:34.000Z</time>
      </trkpt>
      <trkpt lat="42.91586" lon="0.34022">
        <ele>1100</ele>
        <time>2020-11-11T13:33:35.000Z</time>
      </trkpt>
      <trkpt lat="42.91584" lon="0.34025">
        <ele>1100</ele>
        <time>2020-11-11T13:33:36.000Z</time>
      </trkpt>
      <trkpt lat="42.91581" lon="0.34028">
        <ele>1100</ele>
        <time>2020-11-11T13:33:37.000Z</time>
      </trkpt>
      <trkpt lat="42.91578" lon="0.3403">
        <ele>1100</ele>
        <time>2020-11-11T13:33:38.000Z</time>
      </trkpt>
      <trkpt lat="42.91576" lon="0.34033">
        <ele>1100</ele>
        <time>2020-11-11T13:33:39.000Z</time>
      </trkpt>
      <trkpt lat="42.91573" lon="0.34036">
        <ele>1100</ele>
        <time>2020-11-11T13:33:40.000Z</time>
      </trkpt>
      <trkpt lat="42.91571" lon="0.34039">
        <ele>1100</ele>
        <time>2020-11-11T13:33:41.000Z</time>
      </trkpt>
      <trkpt lat="42.91567" lon="0.34042">
        <ele>1100</ele>
        <time>2020-11-11T13:33:42.000Z</time>
      </trkpt>
      <trkpt lat="42.91563" lon="0.34044">
        <ele>1100</ele>
        <time>2020-11-11T13:33:43.000Z</time>
      </trkpt>
      <trkpt lat="42.91559" lon="0.34046">
        <ele>1100</ele>
        <time>2020-11-11T13:33:44.000Z</time>
      </trkpt>
      <trkpt lat="42.91555" lon="0.34048">
        <ele>1100</ele>
        <time>2020-11-11T13:33:45.000Z</time>
      </trkpt>
      <trkpt lat="42.91551" lon="0.3405">
        <ele>1100</ele>
        <time>2020-11-11T13:33:46.000Z</time>
      </trkpt>
      <trkpt lat="42.91547" lon="0.34052">
        <ele>1100</ele>
        <time>2020-11-11T13:33:47.000Z</time>
      </trkpt>
      <trkpt lat="42.91543" lon="0.34054">
        <ele>1100</ele>
        <time>2020-11-11T13:33:48.000Z</time>
      </trkpt>
      <trkpt lat="42.91539" lon="0.34055">
        <ele>1100</ele>
        <time>2020-11-11T13:33:49.000Z</time>
      </trkpt>
      <trkpt lat="42.91536" lon="0.34057">
        <ele>1100</ele>
        <time>2020-11-11T13:33:50.000Z</time>
      </trkpt>
      <trkpt lat="42.91533" lon="0.34059">
        <ele>1100</ele>
        <time>2020-11-11T13:33:51.000Z</time>
      </trkpt>
      <trkpt lat="42.91531" lon="0.34062">
        <ele>1100</ele>
        <time>2020-11-11T13:33:52.000Z</time>
      </trkpt>
      <trkpt lat="42.91529" lon="0.34065">
        <ele>1100</ele>
        <time>2020-11-11T13:33:53.000Z</time>
      </trkpt>
      <trkpt lat="42.91501" lon="0.34107">
        <ele>1098</ele>
        <time>2020-11-11T13:34:00.000Z</time>
      </trkpt>
      <trkpt lat="42.91497" lon="0.34112">
        <ele>1097</ele>
        <time>2020-11-11T13:34:01.000Z</time>
      </trkpt>
      <trkpt lat="42.91494" lon="0.34116">
        <ele>1097</ele>
        <time>2020-11-11T13:34:02.000Z</time>
      </trkpt>
      <trkpt lat="42.9149" lon="0.3412">
        <ele>1097</ele>
        <time>2020-11-11T13:34:03.000Z</time>
      </trkpt>
      <trkpt lat="42.91487" lon="0.34123">
        <ele>1097</ele>
        <time>2020-11-11T13:34:04.000Z</time>
      </trkpt>
      <trkpt lat="42.91483" lon="0.34126">
        <ele>1097</ele>
        <time>2020-11-11T13:34:05.000Z</time>
      </trkpt>
      <trkpt lat="42.9148" lon="0.34129">
        <ele>1097</ele>
        <time>2020-11-11T13:34:06.000Z</time>
      </trkpt>
      <trkpt lat="42.91478" lon="0.34132">
        <ele>1097</ele>
        <time>2020-11-11T13:34:07.000Z</time>
      </trkpt>
      <trkpt lat="42.91475" lon="0.34134">
        <ele>1097</ele>
        <time>2020-11-11T13:34:08.000Z</time>
      </trkpt>
      <trkpt lat="42.91473" lon="0.34136">
        <ele>1097</ele>
        <time>2020-11-11T13:34:09.000Z</time>
      </trkpt>
      <trkpt lat="42.9147" lon="0.34138">
        <ele>1097</ele>
        <time>2020-11-11T13:34:10.000Z</time>
      </trkpt>
      <trkpt lat="42.91467" lon="0.34141">
        <ele>1097</ele>
        <time>2020-11-11T13:34:11.000Z</time>
      </trkpt>
      <trkpt lat="42.91464" lon="0.34144">
        <ele>1097</ele>
        <time>2020-11-11T13:34:12.000Z</time>
      </trkpt>
      <trkpt lat="42.91461" lon="0.34147">
        <ele>1097</ele>
        <time>2020-11-11T13:34:13.000Z</time>
      </trkpt>
      <trkpt lat="42.91458" lon="0.3415">
        <ele>1097</ele>
        <time>2020-11-11T13:34:14.000Z</time>
      </trkpt>
      <trkpt lat="42.91455" lon="0.34154">
        <ele>1097</ele>
        <time>2020-11-11T13:34:15.000Z</time>
      </trkpt>
      <trkpt lat="42.91415" lon="0.34188">
        <ele>1098</ele>
        <time>2020-11-11T13:34:25.000Z</time>
      </trkpt>
      <trkpt lat="42.91412" lon="0.3419">
        <ele>1098</ele>
        <time>2020-11-11T13:34:26.000Z</time>
      </trkpt>
      <trkpt lat="42.9141" lon="0.34191">
        <ele>1098</ele>
        <time>2020-11-11T13:34:27.000Z</time>
      </trkpt>
      <trkpt lat="42.91407" lon="0.34193">
        <ele>1099</ele>
        <time>2020-11-11T13:34:28.000Z</time>
      </trkpt>
      <trkpt lat="42.91406" lon="0.34194">
        <ele>1099</ele>
        <time>2020-11-11T13:34:29.000Z</time>
      </trkpt>
      <trkpt lat="42.91404" lon="0.34195">
        <ele>1099</ele>
        <time>2020-11-11T13:34:30.000Z</time>
      </trkpt>
      <trkpt lat="42.91403" lon="0.34197">
        <ele>1099</ele>
        <time>2020-11-11T13:34:31.000Z</time>
      </trkpt>
      <trkpt lat="42.91402" lon="0.34198">
        <ele>1099</ele>
        <time>2020-11-11T13:34:32.000Z</time>
      </trkpt>
      <trkpt lat="42.91401" lon="0.34199">
        <ele>1099</ele>
        <time>2020-11-11T13:34:33.000Z</time>
      </trkpt>
      <trkpt lat="42.91401" lon="0.342">
        <ele>1099</ele>
        <time>2020-11-11T13:34:34.000Z</time>
      </trkpt>
      <trkpt lat="42.914" lon="0.34201">
        <ele>1099</ele>
        <time>2020-11-11T13:34:35.000Z</time>
      </trkpt>
      <trkpt lat="42.914" lon="0.34201">
        <ele>1099</ele>
        <time>2020-11-11T13:34:36.000Z</time>
      </trkpt>
      <trkpt lat="42.914" lon="0.34201">
        <ele>1099</ele>
        <time>2020-11-11T13:34:37.000Z</time>
      </trkpt>
      <trkpt lat="42.91399" lon="0.34202">
        <ele>1099</ele>
        <time>2020-11-11T13:34:40.000Z</time>
      </trkpt>
      <trkpt lat="42.91399" lon="0.34202">
        <ele>1099</ele>
        <time>2020-11-11T13:34:43.000Z</time>
      </trkpt>
      <trkpt lat="42.91399" lon="0.34202">
        <ele>1099</ele>
        <time>2020-11-11T13:34:44.000Z</time>
      </trkpt>
      <trkpt lat="42.91399" lon="0.34202">
        <ele>1099</ele>
        <time>2020-11-11T13:34:45.000Z</time>
      </trkpt>
      <trkpt lat="42.91399" lon="0.34202">
        <ele>1099</ele>
        <time>2020-11-11T13:34:46.000Z</time>
      </trkpt>
      <trkpt lat="42.91399" lon="0.34201">
        <ele>1099</ele>
        <time>2020-11-11T13:34:56.000Z</time>
      </trkpt>
      <trkpt lat="42.91398" lon="0.34201">
        <ele>1099</ele>
        <time>2020-11-11T13:34:57.000Z</time>
      </trkpt>
      <trkpt lat="42.91397" lon="0.342">
        <ele>1099</ele>
        <time>2020-11-11T13:34:58.000Z</time>
      </trkpt>
      <trkpt lat="42.91395" lon="0.342">
        <ele>1099</ele>
        <time>2020-11-11T13:34:59.000Z</time>
      </trkpt>
      <trkpt lat="42.91392" lon="0.34199">
        <ele>1099</ele>
        <time>2020-11-11T13:35:00.000Z</time>
      </trkpt>
      <trkpt lat="42.91389" lon="0.34198">
        <ele>1099</ele>
        <time>2020-11-11T13:35:01.000Z</time>
      </trkpt>
      <trkpt lat="42.91387" lon="0.34197">
        <ele>1099</ele>
        <time>2020-11-11T13:35:02.000Z</time>
      </trkpt>
      <trkpt lat="42.91384" lon="0.34195">
        <ele>1099</ele>
        <time>2020-11-11T13:35:03.000Z</time>
      </trkpt>
      <trkpt lat="42.91381" lon="0.34194">
        <ele>1099</ele>
        <time>2020-11-11T13:35:04.000Z</time>
      </trkpt>
      <trkpt lat="42.91378" lon="0.34192">
        <ele>1099</ele>
        <time>2020-11-11T13:35:05.000Z</time>
      </trkpt>
      <trkpt lat="42.91376" lon="0.3419">
        <ele>1099</ele>
        <time>2020-11-11T13:35:06.000Z</time>
      </trkpt>
      <trkpt lat="42.91374" lon="0.34188">
        <ele>1099</ele>
        <time>2020-11-11T13:35:07.000Z</time>
      </trkpt>
      <trkpt lat="42.91371" lon="0.34185">
        <ele>1097</ele>
        <time>2020-11-11T13:35:08.000Z</time>
      </trkpt>
      <trkpt lat="42.91369" lon="0.34182">
        <ele>1097</ele>
        <time>2020-11-11T13:35:09.000Z</time>
      </trkpt>
      <trkpt lat="42.91366" lon="0.34179">
        <ele>1097</ele>
        <time>2020-11-11T13:35:10.000Z</time>
      </trkpt>
      <trkpt lat="42.91363" lon="0.34176">
        <ele>1096</ele>
        <time>2020-11-11T13:35:11.000Z</time>
      </trkpt>
      <trkpt lat="42.9136" lon="0.34172">
        <ele>1096</ele>
        <time>2020-11-11T13:35:12.000Z</time>
      </trkpt>
      <trkpt lat="42.91357" lon="0.34169">
        <ele>1096</ele>
        <time>2020-11-11T13:35:13.000Z</time>
      </trkpt>
      <trkpt lat="42.91354" lon="0.34165">
        <ele>1095</ele>
        <time>2020-11-11T13:35:14.000Z</time>
      </trkpt>
      <trkpt lat="42.91352" lon="0.34161">
        <ele>1095</ele>
        <time>2020-11-11T13:35:15.000Z</time>
      </trkpt>
      <trkpt lat="42.91349" lon="0.34157">
        <ele>1094</ele>
        <time>2020-11-11T13:35:16.000Z</time>
      </trkpt>
      <trkpt lat="42.91346" lon="0.34153">
        <ele>1094</ele>
        <time>2020-11-11T13:35:17.000Z</time>
      </trkpt>
      <trkpt lat="42.91344" lon="0.34149">
        <ele>1092</ele>
        <time>2020-11-11T13:35:18.000Z</time>
      </trkpt>
      <trkpt lat="42.91342" lon="0.34144">
        <ele>1091</ele>
        <time>2020-11-11T13:35:19.000Z</time>
      </trkpt>
      <trkpt lat="42.9134" lon="0.34139">
        <ele>1090</ele>
        <time>2020-11-11T13:35:20.000Z</time>
      </trkpt>
      <trkpt lat="42.91338" lon="0.34134">
        <ele>1090</ele>
        <time>2020-11-11T13:35:21.000Z</time>
      </trkpt>
      <trkpt lat="42.91336" lon="0.34129">
        <ele>1089</ele>
        <time>2020-11-11T13:35:22.000Z</time>
      </trkpt>
      <trkpt lat="42.91334" lon="0.34124">
        <ele>1088</ele>
        <time>2020-11-11T13:35:23.000Z</time>
      </trkpt>
      <trkpt lat="42.91332" lon="0.34118">
        <ele>1086</ele>
        <time>2020-11-11T13:35:24.000Z</time>
      </trkpt>
      <trkpt lat="42.91329" lon="0.34112">
        <ele>1085</ele>
        <time>2020-11-11T13:35:25.000Z</time>
      </trkpt>
      <trkpt lat="42.91327" lon="0.34107">
        <ele>1084</ele>
        <time>2020-11-11T13:35:26.000Z</time>
      </trkpt>
      <trkpt lat="42.91324" lon="0.34102">
        <ele>1083</ele>
        <time>2020-11-11T13:35:27.000Z</time>
      </trkpt>
      <trkpt lat="42.91322" lon="0.34097">
        <ele>1082</ele>
        <time>2020-11-11T13:35:28.000Z</time>
      </trkpt>
      <trkpt lat="42.91319" lon="0.34092">
        <ele>1080</ele>
        <time>2020-11-11T13:35:29.000Z</time>
      </trkpt>
      <trkpt lat="42.91316" lon="0.34088">
        <ele>1079</ele>
        <time>2020-11-11T13:35:30.000Z</time>
      </trkpt>
      <trkpt lat="42.91313" lon="0.34083">
        <ele>1078</ele>
        <time>2020-11-11T13:35:31.000Z</time>
      </trkpt>
      <trkpt lat="42.91309" lon="0.34078">
        <ele>1076</ele>
        <time>2020-11-11T13:35:32.000Z</time>
      </trkpt>
      <trkpt lat="42.91305" lon="0.34073">
        <ele>1075</ele>
        <time>2020-11-11T13:35:33.000Z</time>
      </trkpt>
      <trkpt lat="42.91301" lon="0.34068">
        <ele>1073</ele>
        <time>2020-11-11T13:35:34.000Z</time>
      </trkpt>
      <trkpt lat="42.91297" lon="0.34063">
        <ele>1071</ele>
        <time>2020-11-11T13:35:35.000Z</time>
      </trkpt>
      <trkpt lat="42.91293" lon="0.34059">
        <ele>1070</ele>
        <time>2020-11-11T13:35:36.000Z</time>
      </trkpt>
      <trkpt lat="42.91288" lon="0.34054">
        <ele>1068</ele>
        <time>2020-11-11T13:35:37.000Z</time>
      </trkpt>
      <trkpt lat="42.91284" lon="0.3405">
        <ele>1067</ele>
        <time>2020-11-11T13:35:38.000Z</time>
      </trkpt>
      <trkpt lat="42.9128" lon="0.34046">
        <ele>1066</ele>
        <time>2020-11-11T13:35:39.000Z</time>
      </trkpt>
      <trkpt lat="42.91277" lon="0.34043">
        <ele>1065</ele>
        <time>2020-11-11T13:35:40.000Z</time>
      </trkpt>
      <trkpt lat="42.91273" lon="0.34039">
        <ele>1064</ele>
        <time>2020-11-11T13:35:41.000Z</time>
      </trkpt>
      <trkpt lat="42.91269" lon="0.34036">
        <ele>1062</ele>
        <time>2020-11-11T13:35:42.000Z</time>
      </trkpt>
      <trkpt lat="42.91266" lon="0.34032">
        <ele>1061</ele>
        <time>2020-11-11T13:35:43.000Z</time>
      </trkpt>
      <trkpt lat="42.91237" lon="0.33996">
        <ele>1054</ele>
        <time>2020-11-11T13:35:54.000Z</time>
      </trkpt>
      <trkpt lat="42.91237" lon="0.33994">
        <ele>1053</ele>
        <time>2020-11-11T13:35:55.000Z</time>
      </trkpt>
      <trkpt lat="42.91237" lon="0.33993">
        <ele>1053</ele>
        <time>2020-11-11T13:35:56.000Z</time>
      </trkpt>
      <trkpt lat="42.91237" lon="0.33993">
        <ele>1053</ele>
        <time>2020-11-11T13:35:57.000Z</time>
      </trkpt>
      <trkpt lat="42.91237" lon="0.33992">
        <ele>1053</ele>
        <time>2020-11-11T13:35:58.000Z</time>
      </trkpt>
      <trkpt lat="42.91237" lon="0.33992">
        <ele>1053</ele>
        <time>2020-11-11T13:35:59.000Z</time>
      </trkpt>
      <trkpt lat="42.91237" lon="0.33992">
        <ele>1053</ele>
        <time>2020-11-11T13:36:00.000Z</time>
      </trkpt>
      <trkpt lat="42.91237" lon="0.33992">
        <ele>1053</ele>
        <time>2020-11-11T13:36:01.000Z</time>
      </trkpt>
      <trkpt lat="42.91237" lon="0.33992">
        <ele>1053</ele>
        <time>2020-11-11T13:36:02.000Z</time>
      </trkpt>
      <trkpt lat="42.91237" lon="0.33992">
        <ele>1052</ele>
        <time>2020-11-11T13:36:03.000Z</time>
      </trkpt>
      <trkpt lat="42.91236" lon="0.33991">
        <ele>1052</ele>
        <time>2020-11-11T13:36:04.000Z</time>
      </trkpt>
      <trkpt lat="42.91236" lon="0.33991">
        <ele>1052</ele>
        <time>2020-11-11T13:36:05.000Z</time>
      </trkpt>
      <trkpt lat="42.91235" lon="0.33992">
        <ele>1052</ele>
        <time>2020-11-11T13:36:07.000Z</time>
      </trkpt>
      <trkpt lat="42.91235" lon="0.33991">
        <ele>1052</ele>
        <time>2020-11-11T13:36:09.000Z</time>
      </trkpt>
      <trkpt lat="42.91235" lon="0.33992">
        <ele>1052</ele>
        <time>2020-11-11T13:36:10.000Z</time>
      </trkpt>
      <trkpt lat="42.91235" lon="0.33992">
        <ele>1052</ele>
        <time>2020-11-11T13:36:11.000Z</time>
      </trkpt>
      <trkpt lat="42.91235" lon="0.33992">
        <ele>1051</ele>
        <time>2020-11-11T13:36:12.000Z</time>
      </trkpt>
      <trkpt lat="42.91235" lon="0.33992">
        <ele>1051</ele>
        <time>2020-11-11T13:36:13.000Z</time>
      </trkpt>
      <trkpt lat="42.91234" lon="0.33994">
        <ele>1051</ele>
        <time>2020-11-11T13:36:15.000Z</time>
      </trkpt>
      <trkpt lat="42.91234" lon="0.33994">
        <ele>1051</ele>
        <time>2020-11-11T13:36:16.000Z</time>
      </trkpt>
      <trkpt lat="42.91234" lon="0.33993">
        <ele>1051</ele>
        <time>2020-11-11T13:36:18.000Z</time>
      </trkpt>
      <trkpt lat="42.91234" lon="0.33993">
        <ele>1051</ele>
        <time>2020-11-11T13:36:19.000Z</time>
      </trkpt>
      <trkpt lat="42.91234" lon="0.33993">
        <ele>1051</ele>
        <time>2020-11-11T13:36:20.000Z</time>
      </trkpt>
      <trkpt lat="42.91235" lon="0.33992">
        <ele>1051</ele>
        <time>2020-11-11T13:36:22.000Z</time>
      </trkpt>
      <trkpt lat="42.91235" lon="0.33992">
        <ele>1050</ele>
        <time>2020-11-11T13:36:23.000Z</time>
      </trkpt>
      <trkpt lat="42.91235" lon="0.33992">
        <ele>1050</ele>
        <time>2020-11-11T13:36:24.000Z</time>
      </trkpt>
      <trkpt lat="42.91236" lon="0.33992">
        <ele>1050</ele>
        <time>2020-11-11T13:36:25.000Z</time>
      </trkpt>
      <trkpt lat="42.91236" lon="0.33991">
        <ele>1050</ele>
        <time>2020-11-11T13:36:26.000Z</time>
      </trkpt>
      <trkpt lat="42.91236" lon="0.33991">
        <ele>1050</ele>
        <time>2020-11-11T13:36:27.000Z</time>
      </trkpt>
      <trkpt lat="42.91237" lon="0.33991">
        <ele>1050</ele>
        <time>2020-11-11T13:36:31.000Z</time>
      </trkpt>
      <trkpt lat="42.91237" lon="0.33991">
        <ele>1050</ele>
        <time>2020-11-11T13:36:32.000Z</time>
      </trkpt>
      <trkpt lat="42.91235" lon="0.33991">
        <ele>1050</ele>
        <time>2020-11-11T13:37:04.000Z</time>
      </trkpt>
      <trkpt lat="42.91235" lon="0.34012">
        <ele>1045</ele>
        <time>2020-11-11T13:37:20.000Z</time>
      </trkpt>
      <trkpt lat="42.91235" lon="0.34015">
        <ele>1044</ele>
        <time>2020-11-11T13:37:21.000Z</time>
      </trkpt>
      <trkpt lat="42.91235" lon="0.34018">
        <ele>1044</ele>
        <time>2020-11-11T13:37:22.000Z</time>
      </trkpt>
      <trkpt lat="42.91234" lon="0.34021">
        <ele>1044</ele>
        <time>2020-11-11T13:37:23.000Z</time>
      </trkpt>
      <trkpt lat="42.91234" lon="0.34024">
        <ele>1043</ele>
        <time>2020-11-11T13:37:24.000Z</time>
      </trkpt>
      <trkpt lat="42.91234" lon="0.34026">
        <ele>1043</ele>
        <time>2020-11-11T13:37:25.000Z</time>
      </trkpt>
      <trkpt lat="42.91234" lon="0.34028">
        <ele>1043</ele>
        <time>2020-11-11T13:37:26.000Z</time>
      </trkpt>
      <trkpt lat="42.91235" lon="0.3403">
        <ele>1043</ele>
        <time>2020-11-11T13:37:27.000Z</time>
      </trkpt>
      <trkpt lat="42.91235" lon="0.34031">
        <ele>1042</ele>
        <time>2020-11-11T13:37:28.000Z</time>
      </trkpt>
      <trkpt lat="42.91235" lon="0.34033">
        <ele>1042</ele>
        <time>2020-11-11T13:37:29.000Z</time>
      </trkpt>
      <trkpt lat="42.91236" lon="0.34035">
        <ele>1042</ele>
        <time>2020-11-11T13:37:30.000Z</time>
      </trkpt>
      <trkpt lat="42.91236" lon="0.34037">
        <ele>1042</ele>
        <time>2020-11-11T13:37:31.000Z</time>
      </trkpt>
      <trkpt lat="42.91237" lon="0.34039">
        <ele>1042</ele>
        <time>2020-11-11T13:37:32.000Z</time>
      </trkpt>
      <trkpt lat="42.91237" lon="0.34043">
        <ele>1042</ele>
        <time>2020-11-11T13:37:33.000Z</time>
      </trkpt>
      <trkpt lat="42.9124" lon="0.34066">
        <ele>1040</ele>
        <time>2020-11-11T13:37:38.000Z</time>
      </trkpt>
      <trkpt lat="42.91241" lon="0.34071">
        <ele>1039</ele>
        <time>2020-11-11T13:37:39.000Z</time>
      </trkpt>
      <trkpt lat="42.91241" lon="0.34075">
        <ele>1039</ele>
        <time>2020-11-11T13:37:40.000Z</time>
      </trkpt>
      <trkpt lat="42.91241" lon="0.34079">
        <ele>1038</ele>
        <time>2020-11-11T13:37:41.000Z</time>
      </trkpt>
      <trkpt lat="42.91241" lon="0.34082">
        <ele>1038</ele>
        <time>2020-11-11T13:37:42.000Z</time>
      </trkpt>
      <trkpt lat="42.91241" lon="0.34086">
        <ele>1038</ele>
        <time>2020-11-11T13:37:43.000Z</time>
      </trkpt>
      <trkpt lat="42.9124" lon="0.34089">
        <ele>1037</ele>
        <time>2020-11-11T13:37:44.000Z</time>
      </trkpt>
      <trkpt lat="42.9124" lon="0.34092">
        <ele>1037</ele>
        <time>2020-11-11T13:37:45.000Z</time>
      </trkpt>
      <trkpt lat="42.91239" lon="0.34095">
        <ele>1037</ele>
        <time>2020-11-11T13:37:46.000Z</time>
      </trkpt>
      <trkpt lat="42.91239" lon="0.34097">
        <ele>1037</ele>
        <time>2020-11-11T13:37:47.000Z</time>
      </trkpt>
      <trkpt lat="42.91238" lon="0.34099">
        <ele>1036</ele>
        <time>2020-11-11T13:37:48.000Z</time>
      </trkpt>
      <trkpt lat="42.91237" lon="0.34099">
        <ele>1036</ele>
        <time>2020-11-11T13:37:49.000Z</time>
      </trkpt>
      <trkpt lat="42.91236" lon="0.34099">
        <ele>1036</ele>
        <time>2020-11-11T13:37:50.000Z</time>
      </trkpt>
      <trkpt lat="42.91236" lon="0.34098">
        <ele>1036</ele>
        <time>2020-11-11T13:37:51.000Z</time>
      </trkpt>
      <trkpt lat="42.91235" lon="0.34097">
        <ele>1035</ele>
        <time>2020-11-11T13:37:52.000Z</time>
      </trkpt>
      <trkpt lat="42.91234" lon="0.34095">
        <ele>1035</ele>
        <time>2020-11-11T13:37:53.000Z</time>
      </trkpt>
      <trkpt lat="42.91233" lon="0.34093">
        <ele>1034</ele>
        <time>2020-11-11T13:37:54.000Z</time>
      </trkpt>
      <trkpt lat="42.91231" lon="0.34091">
        <ele>1034</ele>
        <time>2020-11-11T13:37:55.000Z</time>
      </trkpt>
      <trkpt lat="42.91229" lon="0.34088">
        <ele>1033</ele>
        <time>2020-11-11T13:37:56.000Z</time>
      </trkpt>
      <trkpt lat="42.91227" lon="0.34085">
        <ele>1033</ele>
        <time>2020-11-11T13:37:57.000Z</time>
      </trkpt>
      <trkpt lat="42.91225" lon="0.34082">
        <ele>1032</ele>
        <time>2020-11-11T13:37:58.000Z</time>
      </trkpt>
      <trkpt lat="42.91223" lon="0.34078">
        <ele>1032</ele>
        <time>2020-11-11T13:37:59.000Z</time>
      </trkpt>
      <trkpt lat="42.9122" lon="0.34074">
        <ele>1031</ele>
        <time>2020-11-11T13:38:00.000Z</time>
      </trkpt>
      <trkpt lat="42.91218" lon="0.3407">
        <ele>1031</ele>
        <time>2020-11-11T13:38:01.000Z</time>
      </trkpt>
      <trkpt lat="42.91216" lon="0.34066">
        <ele>1030</ele>
        <time>2020-11-11T13:38:02.000Z</time>
      </trkpt>
      <trkpt lat="42.91213" lon="0.34062">
        <ele>1030</ele>
        <time>2020-11-11T13:38:03.000Z</time>
      </trkpt>
      <trkpt lat="42.91211" lon="0.34057">
        <ele>1030</ele>
        <time>2020-11-11T13:38:04.000Z</time>
      </trkpt>
      <trkpt lat="42.91208" lon="0.34052">
        <ele>1029</ele>
        <time>2020-11-11T13:38:05.000Z</time>
      </trkpt>
      <trkpt lat="42.91206" lon="0.34047">
        <ele>1029</ele>
        <time>2020-11-11T13:38:06.000Z</time>
      </trkpt>
      <trkpt lat="42.91203" lon="0.34041">
        <ele>1029</ele>
        <time>2020-11-11T13:38:07.000Z</time>
      </trkpt>
      <trkpt lat="42.91201" lon="0.34036">
        <ele>1029</ele>
        <time>2020-11-11T13:38:08.000Z</time>
      </trkpt>
      <trkpt lat="42.91199" lon="0.34031">
        <ele>1028</ele>
        <time>2020-11-11T13:38:09.000Z</time>
      </trkpt>
      <trkpt lat="42.91196" lon="0.34026">
        <ele>1028</ele>
        <time>2020-11-11T13:38:10.000Z</time>
      </trkpt>
      <trkpt lat="42.91193" lon="0.34021">
        <ele>1028</ele>
        <time>2020-11-11T13:38:11.000Z</time>
      </trkpt>
      <trkpt lat="42.91191" lon="0.34017">
        <ele>1028</ele>
        <time>2020-11-11T13:38:12.000Z</time>
      </trkpt>
      <trkpt lat="42.91188" lon="0.34012">
        <ele>1027</ele>
        <time>2020-11-11T13:38:13.000Z</time>
      </trkpt>
      <trkpt lat="42.91186" lon="0.34007">
        <ele>1027</ele>
        <time>2020-11-11T13:38:14.000Z</time>
      </trkpt>
      <trkpt lat="42.91183" lon="0.34002">
        <ele>1027</ele>
        <time>2020-11-11T13:38:15.000Z</time>
      </trkpt>
      <trkpt lat="42.91181" lon="0.33998">
        <ele>1026</ele>
        <time>2020-11-11T13:38:16.000Z</time>
      </trkpt>
      <trkpt lat="42.91179" lon="0.33993">
        <ele>1026</ele>
        <time>2020-11-11T13:38:17.000Z</time>
      </trkpt>
      <trkpt lat="42.91176" lon="0.33988">
        <ele>1026</ele>
        <time>2020-11-11T13:38:18.000Z</time>
      </trkpt>
      <trkpt lat="42.91173" lon="0.33982">
        <ele>1025</ele>
        <time>2020-11-11T13:38:19.000Z</time>
      </trkpt>
      <trkpt lat="42.91169" lon="0.33976">
        <ele>1025</ele>
        <time>2020-11-11T13:38:20.000Z</time>
      </trkpt>
      <trkpt lat="42.91166" lon="0.33969">
        <ele>1024</ele>
        <time>2020-11-11T13:38:21.000Z</time>
      </trkpt>
      <trkpt lat="42.91164" lon="0.33962">
        <ele>1023</ele>
        <time>2020-11-11T13:38:22.000Z</time>
      </trkpt>
      <trkpt lat="42.91162" lon="0.33954">
        <ele>1022</ele>
        <time>2020-11-11T13:38:23.000Z</time>
      </trkpt>
      <trkpt lat="42.9116" lon="0.33946">
        <ele>1021</ele>
        <time>2020-11-11T13:38:24.000Z</time>
      </trkpt>
      <trkpt lat="42.91159" lon="0.33938">
        <ele>1021</ele>
        <time>2020-11-11T13:38:25.000Z</time>
      </trkpt>
      <trkpt lat="42.91158" lon="0.3393">
        <ele>1020</ele>
        <time>2020-11-11T13:38:26.000Z</time>
      </trkpt>
      <trkpt lat="42.91157" lon="0.33922">
        <ele>1020</ele>
        <time>2020-11-11T13:38:27.000Z</time>
      </trkpt>
      <trkpt lat="42.91157" lon="0.33915">
        <ele>1019</ele>
        <time>2020-11-11T13:38:28.000Z</time>
      </trkpt>
      <trkpt lat="42.91156" lon="0.33907">
        <ele>1019</ele>
        <time>2020-11-11T13:38:29.000Z</time>
      </trkpt>
      <trkpt lat="42.91155" lon="0.33899">
        <ele>1018</ele>
        <time>2020-11-11T13:38:30.000Z</time>
      </trkpt>
      <trkpt lat="42.91153" lon="0.33892">
        <ele>1018</ele>
        <time>2020-11-11T13:38:31.000Z</time>
      </trkpt>
      <trkpt lat="42.91152" lon="0.33884">
        <ele>1016</ele>
        <time>2020-11-11T13:38:32.000Z</time>
      </trkpt>
      <trkpt lat="42.9115" lon="0.33875">
        <ele>1016</ele>
        <time>2020-11-11T13:38:33.000Z</time>
      </trkpt>
      <trkpt lat="42.91148" lon="0.33867">
        <ele>1015</ele>
        <time>2020-11-11T13:38:34.000Z</time>
      </trkpt>
      <trkpt lat="42.91143" lon="0.33852">
        <ele>1014</ele>
        <time>2020-11-11T13:38:36.000Z</time>
      </trkpt>
      <trkpt lat="42.91141" lon="0.33847">
        <ele>1014</ele>
        <time>2020-11-11T13:38:37.000Z</time>
      </trkpt>
      <trkpt lat="42.91139" lon="0.33842">
        <ele>1013</ele>
        <time>2020-11-11T13:38:38.000Z</time>
      </trkpt>
      <trkpt lat="42.91137" lon="0.33837">
        <ele>1013</ele>
        <time>2020-11-11T13:38:39.000Z</time>
      </trkpt>
      <trkpt lat="42.91134" lon="0.33833">
        <ele>1012</ele>
        <time>2020-11-11T13:38:40.000Z</time>
      </trkpt>
      <trkpt lat="42.91132" lon="0.3383">
        <ele>1012</ele>
        <time>2020-11-11T13:38:41.000Z</time>
      </trkpt>
      <trkpt lat="42.9113" lon="0.33828">
        <ele>1010</ele>
        <time>2020-11-11T13:38:42.000Z</time>
      </trkpt>
      <trkpt lat="42.91128" lon="0.33828">
        <ele>1010</ele>
        <time>2020-11-11T13:38:43.000Z</time>
      </trkpt>
      <trkpt lat="42.91127" lon="0.33828">
        <ele>1009</ele>
        <time>2020-11-11T13:38:44.000Z</time>
      </trkpt>
      <trkpt lat="42.91126" lon="0.3383">
        <ele>1009</ele>
        <time>2020-11-11T13:38:45.000Z</time>
      </trkpt>
      <trkpt lat="42.91127" lon="0.33832">
        <ele>1009</ele>
        <time>2020-11-11T13:38:46.000Z</time>
      </trkpt>
      <trkpt lat="42.91128" lon="0.33835">
        <ele>1009</ele>
        <time>2020-11-11T13:38:47.000Z</time>
      </trkpt>
      <trkpt lat="42.91131" lon="0.33838">
        <ele>1009</ele>
        <time>2020-11-11T13:38:48.000Z</time>
      </trkpt>
      <trkpt lat="42.91133" lon="0.33841">
        <ele>1009</ele>
        <time>2020-11-11T13:38:49.000Z</time>
      </trkpt>
      <trkpt lat="42.91136" lon="0.33844">
        <ele>1009</ele>
        <time>2020-11-11T13:38:50.000Z</time>
      </trkpt>
      <trkpt lat="42.91138" lon="0.33847">
        <ele>1009</ele>
        <time>2020-11-11T13:38:51.000Z</time>
      </trkpt>
      <trkpt lat="42.9114" lon="0.3385">
        <ele>1009</ele>
        <time>2020-11-11T13:38:52.000Z</time>
      </trkpt>
      <trkpt lat="42.91141" lon="0.33853">
        <ele>1009</ele>
        <time>2020-11-11T13:38:53.000Z</time>
      </trkpt>
      <trkpt lat="42.91142" lon="0.33857">
        <ele>1009</ele>
        <time>2020-11-11T13:38:54.000Z</time>
      </trkpt>
      <trkpt lat="42.91143" lon="0.33861">
        <ele>1009</ele>
        <time>2020-11-11T13:38:55.000Z</time>
      </trkpt>
      <trkpt lat="42.91144" lon="0.33865">
        <ele>1009</ele>
        <time>2020-11-11T13:38:56.000Z</time>
      </trkpt>
      <trkpt lat="42.91145" lon="0.33869">
        <ele>1009</ele>
        <time>2020-11-11T13:38:57.000Z</time>
      </trkpt>
      <trkpt lat="42.91145" lon="0.33873">
        <ele>1009</ele>
        <time>2020-11-11T13:38:58.000Z</time>
      </trkpt>
      <trkpt lat="42.91144" lon="0.33878">
        <ele>1007</ele>
        <time>2020-11-11T13:38:59.000Z</time>
      </trkpt>
      <trkpt lat="42.91144" lon="0.33883">
        <ele>1007</ele>
        <time>2020-11-11T13:39:00.000Z</time>
      </trkpt>
      <trkpt lat="42.91143" lon="0.33888">
        <ele>1007</ele>
        <time>2020-11-11T13:39:01.000Z</time>
      </trkpt>
      <trkpt lat="42.91142" lon="0.33894">
        <ele>1007</ele>
        <time>2020-11-11T13:39:02.000Z</time>
      </trkpt>
      <trkpt lat="42.91141" lon="0.33899">
        <ele>1007</ele>
        <time>2020-11-11T13:39:03.000Z</time>
      </trkpt>
      <trkpt lat="42.9114" lon="0.33905">
        <ele>1006</ele>
        <time>2020-11-11T13:39:04.000Z</time>
      </trkpt>
      <trkpt lat="42.91138" lon="0.33912">
        <ele>1006</ele>
        <time>2020-11-11T13:39:05.000Z</time>
      </trkpt>
      <trkpt lat="42.91128" lon="0.33945">
        <ele>1003</ele>
        <time>2020-11-11T13:39:09.000Z</time>
      </trkpt>
      <trkpt lat="42.91126" lon="0.33954">
        <ele>1002</ele>
        <time>2020-11-11T13:39:10.000Z</time>
      </trkpt>
      <trkpt lat="42.91125" lon="0.33962">
        <ele>1002</ele>
        <time>2020-11-11T13:39:11.000Z</time>
      </trkpt>
      <trkpt lat="42.91124" lon="0.3397">
        <ele>1000</ele>
        <time>2020-11-11T13:39:12.000Z</time>
      </trkpt>
      <trkpt lat="42.91124" lon="0.33978">
        <ele>1000</ele>
        <time>2020-11-11T13:39:13.000Z</time>
      </trkpt>
      <trkpt lat="42.91124" lon="0.33985">
        <ele>999</ele>
        <time>2020-11-11T13:39:14.000Z</time>
      </trkpt>
      <trkpt lat="42.91124" lon="0.33992">
        <ele>999</ele>
        <time>2020-11-11T13:39:15.000Z</time>
      </trkpt>
      <trkpt lat="42.91124" lon="0.33999">
        <ele>998</ele>
        <time>2020-11-11T13:39:16.000Z</time>
      </trkpt>
      <trkpt lat="42.91124" lon="0.34004">
        <ele>998</ele>
        <time>2020-11-11T13:39:17.000Z</time>
      </trkpt>
      <trkpt lat="42.91123" lon="0.34008">
        <ele>997</ele>
        <time>2020-11-11T13:39:18.000Z</time>
      </trkpt>
      <trkpt lat="42.91121" lon="0.3401">
        <ele>997</ele>
        <time>2020-11-11T13:39:19.000Z</time>
      </trkpt>
      <trkpt lat="42.9112" lon="0.34011">
        <ele>995</ele>
        <time>2020-11-11T13:39:20.000Z</time>
      </trkpt>
      <trkpt lat="42.91119" lon="0.3401">
        <ele>995</ele>
        <time>2020-11-11T13:39:21.000Z</time>
      </trkpt>
      <trkpt lat="42.91117" lon="0.34009">
        <ele>994</ele>
        <time>2020-11-11T13:39:22.000Z</time>
      </trkpt>
      <trkpt lat="42.91116" lon="0.34007">
        <ele>994</ele>
        <time>2020-11-11T13:39:23.000Z</time>
      </trkpt>
      <trkpt lat="42.91114" lon="0.34006">
        <ele>993</ele>
        <time>2020-11-11T13:39:24.000Z</time>
      </trkpt>
      <trkpt lat="42.91113" lon="0.34006">
        <ele>993</ele>
        <time>2020-11-11T13:39:25.000Z</time>
      </trkpt>
      <trkpt lat="42.91112" lon="0.34007">
        <ele>992</ele>
        <time>2020-11-11T13:39:26.000Z</time>
      </trkpt>
      <trkpt lat="42.91112" lon="0.34009">
        <ele>992</ele>
        <time>2020-11-11T13:39:27.000Z</time>
      </trkpt>
      <trkpt lat="42.91112" lon="0.34012">
        <ele>991</ele>
        <time>2020-11-11T13:39:28.000Z</time>
      </trkpt>
      <trkpt lat="42.91113" lon="0.34015">
        <ele>991</ele>
        <time>2020-11-11T13:39:29.000Z</time>
      </trkpt>
      <trkpt lat="42.91114" lon="0.34019">
        <ele>989</ele>
        <time>2020-11-11T13:39:30.000Z</time>
      </trkpt>
      <trkpt lat="42.91115" lon="0.34023">
        <ele>989</ele>
        <time>2020-11-11T13:39:31.000Z</time>
      </trkpt>
      <trkpt lat="42.91117" lon="0.34029">
        <ele>988</ele>
        <time>2020-11-11T13:39:32.000Z</time>
      </trkpt>
      <trkpt lat="42.9112" lon="0.34034">
        <ele>988</ele>
        <time>2020-11-11T13:39:33.000Z</time>
      </trkpt>
      <trkpt lat="42.91121" lon="0.34039">
        <ele>987</ele>
        <time>2020-11-11T13:39:34.000Z</time>
      </trkpt>
      <trkpt lat="42.91123" lon="0.34044">
        <ele>987</ele>
        <time>2020-11-11T13:39:35.000Z</time>
      </trkpt>
      <trkpt lat="42.91124" lon="0.34048">
        <ele>985</ele>
        <time>2020-11-11T13:39:36.000Z</time>
      </trkpt>
      <trkpt lat="42.91126" lon="0.34051">
        <ele>985</ele>
        <time>2020-11-11T13:39:37.000Z</time>
      </trkpt>
      <trkpt lat="42.91127" lon="0.34055">
        <ele>984</ele>
        <time>2020-11-11T13:39:38.000Z</time>
      </trkpt>
      <trkpt lat="42.91127" lon="0.34057">
        <ele>984</ele>
        <time>2020-11-11T13:39:39.000Z</time>
      </trkpt>
      <trkpt lat="42.91125" lon="0.34059">
        <ele>983</ele>
        <time>2020-11-11T13:39:40.000Z</time>
      </trkpt>
      <trkpt lat="42.91122" lon="0.34059">
        <ele>982</ele>
        <time>2020-11-11T13:39:41.000Z</time>
      </trkpt>
      <trkpt lat="42.91056" lon="0.33946">
        <ele>963</ele>
        <time>2020-11-11T13:39:58.000Z</time>
      </trkpt>
      <trkpt lat="42.91057" lon="0.33937">
        <ele>962</ele>
        <time>2020-11-11T13:39:59.000Z</time>
      </trkpt>
      <trkpt lat="42.91057" lon="0.33929">
        <ele>961</ele>
        <time>2020-11-11T13:40:00.000Z</time>
      </trkpt>
      <trkpt lat="42.91057" lon="0.33923">
        <ele>960</ele>
        <time>2020-11-11T13:40:01.000Z</time>
      </trkpt>
      <trkpt lat="42.91056" lon="0.33919">
        <ele>959</ele>
        <time>2020-11-11T13:40:02.000Z</time>
      </trkpt>
      <trkpt lat="42.91053" lon="0.33918">
        <ele>958</ele>
        <time>2020-11-11T13:40:03.000Z</time>
      </trkpt>
      <trkpt lat="42.9105" lon="0.33918">
        <ele>957</ele>
        <time>2020-11-11T13:40:04.000Z</time>
      </trkpt>
      <trkpt lat="42.91047" lon="0.3392">
        <ele>956</ele>
        <time>2020-11-11T13:40:05.000Z</time>
      </trkpt>
      <trkpt lat="42.91044" lon="0.33924">
        <ele>955</ele>
        <time>2020-11-11T13:40:06.000Z</time>
      </trkpt>
      <trkpt lat="42.91041" lon="0.33928">
        <ele>953</ele>
        <time>2020-11-11T13:40:07.000Z</time>
      </trkpt>
      <trkpt lat="42.91038" lon="0.33932">
        <ele>952</ele>
        <time>2020-11-11T13:40:08.000Z</time>
      </trkpt>
      <trkpt lat="42.91035" lon="0.33937">
        <ele>952</ele>
        <time>2020-11-11T13:40:09.000Z</time>
      </trkpt>
      <trkpt lat="42.91032" lon="0.33942">
        <ele>951</ele>
        <time>2020-11-11T13:40:10.000Z</time>
      </trkpt>
      <trkpt lat="42.91029" lon="0.33947">
        <ele>950</ele>
        <time>2020-11-11T13:40:11.000Z</time>
      </trkpt>
      <trkpt lat="42.91027" lon="0.33952">
        <ele>949</ele>
        <time>2020-11-11T13:40:12.000Z</time>
      </trkpt>
      <trkpt lat="42.91025" lon="0.33958">
        <ele>949</ele>
        <time>2020-11-11T13:40:13.000Z</time>
      </trkpt>
      <trkpt lat="42.91023" lon="0.33962">
        <ele>948</ele>
        <time>2020-11-11T13:40:14.000Z</time>
      </trkpt>
      <trkpt lat="42.91021" lon="0.33965">
        <ele>948</ele>
        <time>2020-11-11T13:40:15.000Z</time>
      </trkpt>
      <trkpt lat="42.91019" lon="0.33967">
        <ele>946</ele>
        <time>2020-11-11T13:40:16.000Z</time>
      </trkpt>
      <trkpt lat="42.91017" lon="0.33967">
        <ele>945</ele>
        <time>2020-11-11T13:40:17.000Z</time>
      </trkpt>
      <trkpt lat="42.91016" lon="0.33965">
        <ele>945</ele>
        <time>2020-11-11T13:40:18.000Z</time>
      </trkpt>
      <trkpt lat="42.91015" lon="0.33962">
        <ele>944</ele>
        <time>2020-11-11T13:40:19.000Z</time>
      </trkpt>
      <trkpt lat="42.91015" lon="0.33959">
        <ele>943</ele>
        <time>2020-11-11T13:40:20.000Z</time>
      </trkpt>
      <trkpt lat="42.91015" lon="0.33954">
        <ele>942</ele>
        <time>2020-11-11T13:40:21.000Z</time>
      </trkpt>
      <trkpt lat="42.91015" lon="0.33949">
        <ele>941</ele>
        <time>2020-11-11T13:40:22.000Z</time>
      </trkpt>
      <trkpt lat="42.91016" lon="0.33944">
        <ele>941</ele>
        <time>2020-11-11T13:40:23.000Z</time>
      </trkpt>
      <trkpt lat="42.91018" lon="0.33938">
        <ele>940</ele>
        <time>2020-11-11T13:40:24.000Z</time>
      </trkpt>
      <trkpt lat="42.91019" lon="0.33932">
        <ele>939</ele>
        <time>2020-11-11T13:40:25.000Z</time>
      </trkpt>
      <trkpt lat="42.91021" lon="0.33926">
        <ele>938</ele>
        <time>2020-11-11T13:40:26.000Z</time>
      </trkpt>
      <trkpt lat="42.91023" lon="0.3392">
        <ele>937</ele>
        <time>2020-11-11T13:40:27.000Z</time>
      </trkpt>
      <trkpt lat="42.91024" lon="0.33915">
        <ele>936</ele>
        <time>2020-11-11T13:40:28.000Z</time>
      </trkpt>
      <trkpt lat="42.91025" lon="0.33909">
        <ele>935</ele>
        <time>2020-11-11T13:40:29.000Z</time>
      </trkpt>
      <trkpt lat="42.91025" lon="0.33905">
        <ele>935</ele>
        <time>2020-11-11T13:40:30.000Z</time>
      </trkpt>
      <trkpt lat="42.91024" lon="0.339">
        <ele>934</ele>
        <time>2020-11-11T13:40:31.000Z</time>
      </trkpt>
      <trkpt lat="42.91022" lon="0.33896">
        <ele>934</ele>
        <time>2020-11-11T13:40:32.000Z</time>
      </trkpt>
      <trkpt lat="42.9102" lon="0.33892">
        <ele>933</ele>
        <time>2020-11-11T13:40:33.000Z</time>
      </trkpt>
      <trkpt lat="42.91018" lon="0.33887">
        <ele>933</ele>
        <time>2020-11-11T13:40:34.000Z</time>
      </trkpt>
      <trkpt lat="42.91016" lon="0.33883">
        <ele>932</ele>
        <time>2020-11-11T13:40:35.000Z</time>
      </trkpt>
      <trkpt lat="42.91014" lon="0.33878">
        <ele>932</ele>
        <time>2020-11-11T13:40:36.000Z</time>
      </trkpt>
      <trkpt lat="42.91011" lon="0.33873">
        <ele>931</ele>
        <time>2020-11-11T13:40:37.000Z</time>
      </trkpt>
      <trkpt lat="42.91009" lon="0.33869">
        <ele>931</ele>
        <time>2020-11-11T13:40:38.000Z</time>
      </trkpt>
      <trkpt lat="42.91007" lon="0.33864">
        <ele>930</ele>
        <time>2020-11-11T13:40:39.000Z</time>
      </trkpt>
      <trkpt lat="42.90989" lon="0.3384">
        <ele>928</ele>
        <time>2020-11-11T13:40:49.000Z</time>
      </trkpt>
      <trkpt lat="42.90989" lon="0.3384">
        <ele>928</ele>
        <time>2020-11-11T13:40:50.000Z</time>
      </trkpt>
      <trkpt lat="42.90988" lon="0.3384">
        <ele>928</ele>
        <time>2020-11-11T13:40:51.000Z</time>
      </trkpt>
      <trkpt lat="42.90988" lon="0.3384">
        <ele>928</ele>
        <time>2020-11-11T13:40:52.000Z</time>
      </trkpt>
      <trkpt lat="42.90987" lon="0.3384">
        <ele>928</ele>
        <time>2020-11-11T13:40:53.000Z</time>
      </trkpt>
      <trkpt lat="42.90987" lon="0.3384">
        <ele>928</ele>
        <time>2020-11-11T13:40:54.000Z</time>
      </trkpt>
      <trkpt lat="42.90986" lon="0.33839">
        <ele>928</ele>
        <time>2020-11-11T13:40:55.000Z</time>
      </trkpt>
      <trkpt lat="42.90986" lon="0.33838">
        <ele>928</ele>
        <time>2020-11-11T13:40:56.000Z</time>
      </trkpt>
      <trkpt lat="42.90985" lon="0.33837">
        <ele>928</ele>
        <time>2020-11-11T13:40:57.000Z</time>
      </trkpt>
      <trkpt lat="42.90985" lon="0.33837">
        <ele>928</ele>
        <time>2020-11-11T13:40:58.000Z</time>
      </trkpt>
      <trkpt lat="42.90985" lon="0.33837">
        <ele>928</ele>
        <time>2020-11-11T13:40:59.000Z</time>
      </trkpt>
      <trkpt lat="42.90984" lon="0.33837">
        <ele>927</ele>
        <time>2020-11-11T13:41:00.000Z</time>
      </trkpt>
      <trkpt lat="42.90983" lon="0.33838">
        <ele>927</ele>
        <time>2020-11-11T13:41:01.000Z</time>
      </trkpt>
      <trkpt lat="42.90983" lon="0.33839">
        <ele>927</ele>
        <time>2020-11-11T13:41:02.000Z</time>
      </trkpt>
      <trkpt lat="42.90983" lon="0.33839">
        <ele>927</ele>
        <time>2020-11-11T13:41:03.000Z</time>
      </trkpt>
      <trkpt lat="42.90983" lon="0.33839">
        <ele>927</ele>
        <time>2020-11-11T13:41:04.000Z</time>
      </trkpt>
      <trkpt lat="42.90983" lon="0.33839">
        <ele>927</ele>
        <time>2020-11-11T13:41:05.000Z</time>
      </trkpt>
      <trkpt lat="42.90983" lon="0.3384">
        <ele>927</ele>
        <time>2020-11-11T13:41:06.000Z</time>
      </trkpt>
      <trkpt lat="42.90983" lon="0.3384">
        <ele>927</ele>
        <time>2020-11-11T13:41:07.000Z</time>
      </trkpt>
      <trkpt lat="42.90982" lon="0.3384">
        <ele>927</ele>
        <time>2020-11-11T13:41:09.000Z</time>
      </trkpt>
      <trkpt lat="42.90982" lon="0.3384">
        <ele>927</ele>
        <time>2020-11-11T13:41:10.000Z</time>
      </trkpt>
      <trkpt lat="42.90982" lon="0.3384">
        <ele>927</ele>
        <time>2020-11-11T13:41:11.000Z</time>
      </trkpt>
      <trkpt lat="42.90983" lon="0.3384">
        <ele>927</ele>
        <time>2020-11-11T13:41:12.000Z</time>
      </trkpt>
      <trkpt lat="42.90984" lon="0.33841">
        <ele>927</ele>
        <time>2020-11-11T13:41:14.000Z</time>
      </trkpt>
      <trkpt lat="42.90984" lon="0.33841">
        <ele>927</ele>
        <time>2020-11-11T13:41:16.000Z</time>
      </trkpt>
      <trkpt lat="42.90983" lon="0.33841">
        <ele>927</ele>
        <time>2020-11-11T13:41:18.000Z</time>
      </trkpt>
      <trkpt lat="42.90983" lon="0.33841">
        <ele>927</ele>
        <time>2020-11-11T13:41:19.000Z</time>
      </trkpt>
      <trkpt lat="42.90982" lon="0.33841">
        <ele>927</ele>
        <time>2020-11-11T13:41:20.000Z</time>
      </trkpt>
      <trkpt lat="42.90981" lon="0.33841">
        <ele>927</ele>
        <time>2020-11-11T13:41:22.000Z</time>
      </trkpt>
      <trkpt lat="42.90981" lon="0.33841">
        <ele>927</ele>
        <time>2020-11-11T13:41:23.000Z</time>
      </trkpt>
      <trkpt lat="42.90982" lon="0.33841">
        <ele>927</ele>
        <time>2020-11-11T13:41:24.000Z</time>
      </trkpt>
      <trkpt lat="42.90982" lon="0.33842">
        <ele>927</ele>
        <time>2020-11-11T13:41:25.000Z</time>
      </trkpt>
      <trkpt lat="42.90983" lon="0.33842">
        <ele>927</ele>
        <time>2020-11-11T13:41:26.000Z</time>
      </trkpt>
      <trkpt lat="42.90984" lon="0.33841">
        <ele>927</ele>
        <time>2020-11-11T13:41:27.000Z</time>
      </trkpt>
      <trkpt lat="42.90984" lon="0.33841">
        <ele>927</ele>
        <time>2020-11-11T13:41:28.000Z</time>
      </trkpt>
      <trkpt lat="42.90986" lon="0.3384">
        <ele>927</ele>
        <time>2020-11-11T13:41:57.000Z</time>
      </trkpt>
      <trkpt lat="42.90982" lon="0.33822">
        <ele>927</ele>
        <time>2020-11-11T13:42:10.000Z</time>
      </trkpt>
      <trkpt lat="42.90982" lon="0.33818">
        <ele>927</ele>
        <time>2020-11-11T13:42:11.000Z</time>
      </trkpt>
      <trkpt lat="42.90981" lon="0.33814">
        <ele>927</ele>
        <time>2020-11-11T13:42:12.000Z</time>
      </trkpt>
      <trkpt lat="42.90981" lon="0.33809">
        <ele>927</ele>
        <time>2020-11-11T13:42:13.000Z</time>
      </trkpt>
      <trkpt lat="42.90981" lon="0.33804">
        <ele>927</ele>
        <time>2020-11-11T13:42:14.000Z</time>
      </trkpt>
      <trkpt lat="42.90981" lon="0.33799">
        <ele>927</ele>
        <time>2020-11-11T13:42:15.000Z</time>
      </trkpt>
      <trkpt lat="42.90981" lon="0.33794">
        <ele>927</ele>
        <time>2020-11-11T13:42:16.000Z</time>
      </trkpt>
      <trkpt lat="42.9098" lon="0.33788">
        <ele>927</ele>
        <time>2020-11-11T13:42:17.000Z</time>
      </trkpt>
      <trkpt lat="42.9098" lon="0.33782">
        <ele>925</ele>
        <time>2020-11-11T13:42:18.000Z</time>
      </trkpt>
      <trkpt lat="42.9098" lon="0.33776">
        <ele>925</ele>
        <time>2020-11-11T13:42:19.000Z</time>
      </trkpt>
      <trkpt lat="42.90979" lon="0.33769">
        <ele>925</ele>
        <time>2020-11-11T13:42:20.000Z</time>
      </trkpt>
      <trkpt lat="42.90979" lon="0.33761">
        <ele>924</ele>
        <time>2020-11-11T13:42:21.000Z</time>
      </trkpt>
      <trkpt lat="42.90978" lon="0.33745">
        <ele>924</ele>
        <time>2020-11-11T13:42:23.000Z</time>
      </trkpt>
      <trkpt lat="42.90978" lon="0.33737">
        <ele>923</ele>
        <time>2020-11-11T13:42:24.000Z</time>
      </trkpt>
      <trkpt lat="42.90978" lon="0.33729">
        <ele>923</ele>
        <time>2020-11-11T13:42:25.000Z</time>
      </trkpt>
      <trkpt lat="42.90979" lon="0.3372">
        <ele>923</ele>
        <time>2020-11-11T13:42:26.000Z</time>
      </trkpt>
      <trkpt lat="42.9098" lon="0.33712">
        <ele>922</ele>
        <time>2020-11-11T13:42:27.000Z</time>
      </trkpt>
      <trkpt lat="42.90982" lon="0.33703">
        <ele>922</ele>
        <time>2020-11-11T13:42:28.000Z</time>
      </trkpt>
      <trkpt lat="42.90983" lon="0.33694">
        <ele>922</ele>
        <time>2020-11-11T13:42:29.000Z</time>
      </trkpt>
      <trkpt lat="42.90985" lon="0.33685">
        <ele>921</ele>
        <time>2020-11-11T13:42:30.000Z</time>
      </trkpt>
      <trkpt lat="42.90987" lon="0.33676">
        <ele>921</ele>
        <time>2020-11-11T13:42:31.000Z</time>
      </trkpt>
      <trkpt lat="42.90989" lon="0.33667">
        <ele>921</ele>
        <time>2020-11-11T13:42:32.000Z</time>
      </trkpt>
      <trkpt lat="42.9099" lon="0.33657">
        <ele>920</ele>
        <time>2020-11-11T13:42:33.000Z</time>
      </trkpt>
      <trkpt lat="42.90991" lon="0.33647">
        <ele>920</ele>
        <time>2020-11-11T13:42:34.000Z</time>
      </trkpt>
      <trkpt lat="42.90992" lon="0.33637">
        <ele>920</ele>
        <time>2020-11-11T13:42:35.000Z</time>
      </trkpt>
      <trkpt lat="42.90993" lon="0.33628">
        <ele>920</ele>
        <time>2020-11-11T13:42:36.000Z</time>
      </trkpt>
      <trkpt lat="42.90993" lon="0.33619">
        <ele>920</ele>
        <time>2020-11-11T13:42:37.000Z</time>
      </trkpt>
      <trkpt lat="42.90994" lon="0.33611">
        <ele>919</ele>
        <time>2020-11-11T13:42:38.000Z</time>
      </trkpt>
      <trkpt lat="42.90995" lon="0.33603">
        <ele>919</ele>
        <time>2020-11-11T13:42:39.000Z</time>
      </trkpt>
      <trkpt lat="42.90996" lon="0.33597">
        <ele>919</ele>
        <time>2020-11-11T13:42:40.000Z</time>
      </trkpt>
      <trkpt lat="42.90997" lon="0.33592">
        <ele>918</ele>
        <time>2020-11-11T13:42:41.000Z</time>
      </trkpt>
      <trkpt lat="42.90996" lon="0.33589">
        <ele>918</ele>
        <time>2020-11-11T13:42:42.000Z</time>
      </trkpt>
      <trkpt lat="42.90996" lon="0.33587">
        <ele>918</ele>
        <time>2020-11-11T13:42:43.000Z</time>
      </trkpt>
      <trkpt lat="42.90994" lon="0.33587">
        <ele>917</ele>
        <time>2020-11-11T13:42:44.000Z</time>
      </trkpt>
      <trkpt lat="42.90993" lon="0.33588">
        <ele>917</ele>
        <time>2020-11-11T13:42:45.000Z</time>
      </trkpt>
      <trkpt lat="42.90991" lon="0.33591">
        <ele>916</ele>
        <time>2020-11-11T13:42:46.000Z</time>
      </trkpt>
      <trkpt lat="42.90989" lon="0.33596">
        <ele>916</ele>
        <time>2020-11-11T13:42:47.000Z</time>
      </trkpt>
      <trkpt lat="42.90987" lon="0.33603">
        <ele>915</ele>
        <time>2020-11-11T13:42:48.000Z</time>
      </trkpt>
      <trkpt lat="42.90985" lon="0.3361">
        <ele>914</ele>
        <time>2020-11-11T13:42:49.000Z</time>
      </trkpt>
      <trkpt lat="42.90983" lon="0.33618">
        <ele>913</ele>
        <time>2020-11-11T13:42:50.000Z</time>
      </trkpt>
      <trkpt lat="42.90978" lon="0.33635">
        <ele>912</ele>
        <time>2020-11-11T13:42:52.000Z</time>
      </trkpt>
      <trkpt lat="42.90974" lon="0.33645">
        <ele>911</ele>
        <time>2020-11-11T13:42:53.000Z</time>
      </trkpt>
      <trkpt lat="42.9097" lon="0.33654">
        <ele>910</ele>
        <time>2020-11-11T13:42:54.000Z</time>
      </trkpt>
      <trkpt lat="42.90965" lon="0.33664">
        <ele>910</ele>
        <time>2020-11-11T13:42:55.000Z</time>
      </trkpt>
      <trkpt lat="42.90939" lon="0.33749">
        <ele>904</ele>
        <time>2020-11-11T13:43:02.000Z</time>
      </trkpt>
      <trkpt lat="42.90938" lon="0.33764">
        <ele>902</ele>
        <time>2020-11-11T13:43:03.000Z</time>
      </trkpt>
      <trkpt lat="42.90937" lon="0.33779">
        <ele>901</ele>
        <time>2020-11-11T13:43:04.000Z</time>
      </trkpt>
      <trkpt lat="42.90937" lon="0.33795">
        <ele>900</ele>
        <time>2020-11-11T13:43:05.000Z</time>
      </trkpt>
      <trkpt lat="42.90937" lon="0.33811">
        <ele>899</ele>
        <time>2020-11-11T13:43:06.000Z</time>
      </trkpt>
      <trkpt lat="42.90938" lon="0.33827">
        <ele>898</ele>
        <time>2020-11-11T13:43:07.000Z</time>
      </trkpt>
      <trkpt lat="42.9094" lon="0.33842">
        <ele>897</ele>
        <time>2020-11-11T13:43:08.000Z</time>
      </trkpt>
      <trkpt lat="42.90942" lon="0.33857">
        <ele>896</ele>
        <time>2020-11-11T13:43:09.000Z</time>
      </trkpt>
      <trkpt lat="42.90943" lon="0.33871">
        <ele>895</ele>
        <time>2020-11-11T13:43:10.000Z</time>
      </trkpt>
      <trkpt lat="42.90943" lon="0.33886">
        <ele>894</ele>
        <time>2020-11-11T13:43:11.000Z</time>
      </trkpt>
      <trkpt lat="42.90942" lon="0.339">
        <ele>893</ele>
        <time>2020-11-11T13:43:12.000Z</time>
      </trkpt>
      <trkpt lat="42.9094" lon="0.33915">
        <ele>892</ele>
        <time>2020-11-11T13:43:13.000Z</time>
      </trkpt>
      <trkpt lat="42.90937" lon="0.33929">
        <ele>891</ele>
        <time>2020-11-11T13:43:14.000Z</time>
      </trkpt>
      <trkpt lat="42.90934" lon="0.33943">
        <ele>890</ele>
        <time>2020-11-11T13:43:15.000Z</time>
      </trkpt>
      <trkpt lat="42.9093" lon="0.33958">
        <ele>889</ele>
        <time>2020-11-11T13:43:16.000Z</time>
      </trkpt>
      <trkpt lat="42.90927" lon="0.33973">
        <ele>889</ele>
        <time>2020-11-11T13:43:17.000Z</time>
      </trkpt>
      <trkpt lat="42.90926" lon="0.33988">
        <ele>887</ele>
        <time>2020-11-11T13:43:18.000Z</time>
      </trkpt>
      <trkpt lat="42.90925" lon="0.34003">
        <ele>887</ele>
        <time>2020-11-11T13:43:20.000Z</time>
      </trkpt>
      <trkpt lat="42.90927" lon="0.34024">
        <ele>886</ele>
        <time>2020-11-11T13:43:21.000Z</time>
      </trkpt>
      <trkpt lat="42.9093" lon="0.34042">
        <ele>885</ele>
        <time>2020-11-11T13:43:22.000Z</time>
      </trkpt>
      <trkpt lat="42.90933" lon="0.34058">
        <ele>883</ele>
        <time>2020-11-11T13:43:23.000Z</time>
      </trkpt>
      <trkpt lat="42.90937" lon="0.34073">
        <ele>883</ele>
        <time>2020-11-11T13:43:24.000Z</time>
      </trkpt>
      <trkpt lat="42.90941" lon="0.34086">
        <ele>882</ele>
        <time>2020-11-11T13:43:25.000Z</time>
      </trkpt>
      <trkpt lat="42.90944" lon="0.34096">
        <ele>882</ele>
        <time>2020-11-11T13:43:26.000Z</time>
      </trkpt>
      <trkpt lat="42.90947" lon="0.34105">
        <ele>880</ele>
        <time>2020-11-11T13:43:27.000Z</time>
      </trkpt>
      <trkpt lat="42.90948" lon="0.34113">
        <ele>879</ele>
        <time>2020-11-11T13:43:28.000Z</time>
      </trkpt>
      <trkpt lat="42.90948" lon="0.34122">
        <ele>878</ele>
        <time>2020-11-11T13:43:29.000Z</time>
      </trkpt>
      <trkpt lat="42.90947" lon="0.34129">
        <ele>877</ele>
        <time>2020-11-11T13:43:30.000Z</time>
      </trkpt>
      <trkpt lat="42.90944" lon="0.34135">
        <ele>876</ele>
        <time>2020-11-11T13:43:31.000Z</time>
      </trkpt>
      <trkpt lat="42.90941" lon="0.34142">
        <ele>875</ele>
        <time>2020-11-11T13:43:32.000Z</time>
      </trkpt>
      <trkpt lat="42.90936" lon="0.34148">
        <ele>874</ele>
        <time>2020-11-11T13:43:33.000Z</time>
      </trkpt>
      <trkpt lat="42.9093" lon="0.34154">
        <ele>873</ele>
        <time>2020-11-11T13:43:34.000Z</time>
      </trkpt>
      <trkpt lat="42.90924" lon="0.34161">
        <ele>872</ele>
        <time>2020-11-11T13:43:35.000Z</time>
      </trkpt>
      <trkpt lat="42.90917" lon="0.34169">
        <ele>871</ele>
        <time>2020-11-11T13:43:36.000Z</time>
      </trkpt>
      <trkpt lat="42.90911" lon="0.34178">
        <ele>870</ele>
        <time>2020-11-11T13:43:37.000Z</time>
      </trkpt>
      <trkpt lat="42.90904" lon="0.34187">
        <ele>869</ele>
        <time>2020-11-11T13:43:38.000Z</time>
      </trkpt>
      <trkpt lat="42.90897" lon="0.34198">
        <ele>868</ele>
        <time>2020-11-11T13:43:39.000Z</time>
      </trkpt>
      <trkpt lat="42.9089" lon="0.34209">
        <ele>868</ele>
        <time>2020-11-11T13:43:40.000Z</time>
      </trkpt>
      <trkpt lat="42.90883" lon="0.3422">
        <ele>867</ele>
        <time>2020-11-11T13:43:41.000Z</time>
      </trkpt>
      <trkpt lat="42.90876" lon="0.34233">
        <ele>866</ele>
        <time>2020-11-11T13:43:42.000Z</time>
      </trkpt>
      <trkpt lat="42.90869" lon="0.34246">
        <ele>864</ele>
        <time>2020-11-11T13:43:43.000Z</time>
      </trkpt>
      <trkpt lat="42.90861" lon="0.34259">
        <ele>863</ele>
        <time>2020-11-11T13:43:44.000Z</time>
      </trkpt>
      <trkpt lat="42.90854" lon="0.34272">
        <ele>862</ele>
        <time>2020-11-11T13:43:45.000Z</time>
      </trkpt>
      <trkpt lat="42.90846" lon="0.34286">
        <ele>861</ele>
        <time>2020-11-11T13:43:46.000Z</time>
      </trkpt>
      <trkpt lat="42.90838" lon="0.34299">
        <ele>860</ele>
        <time>2020-11-11T13:43:47.000Z</time>
      </trkpt>
      <trkpt lat="42.9083" lon="0.34312">
        <ele>859</ele>
        <time>2020-11-11T13:43:48.000Z</time>
      </trkpt>
      <trkpt lat="42.90823" lon="0.34327">
        <ele>858</ele>
        <time>2020-11-11T13:43:49.000Z</time>
      </trkpt>
      <trkpt lat="42.90818" lon="0.34343">
        <ele>857</ele>
        <time>2020-11-11T13:43:50.000Z</time>
      </trkpt>
      <trkpt lat="42.90815" lon="0.34359">
        <ele>856</ele>
        <time>2020-11-11T13:43:51.000Z</time>
      </trkpt>
      <trkpt lat="42.90811" lon="0.34373">
        <ele>854</ele>
        <time>2020-11-11T13:43:52.000Z</time>
      </trkpt>
      <trkpt lat="42.90808" lon="0.34387">
        <ele>853</ele>
        <time>2020-11-11T13:43:53.000Z</time>
      </trkpt>
      <trkpt lat="42.90804" lon="0.34399">
        <ele>852</ele>
        <time>2020-11-11T13:43:54.000Z</time>
      </trkpt>
      <trkpt lat="42.90799" lon="0.34411">
        <ele>851</ele>
        <time>2020-11-11T13:43:55.000Z</time>
      </trkpt>
      <trkpt lat="42.90793" lon="0.34422">
        <ele>849</ele>
        <time>2020-11-11T13:43:56.000Z</time>
      </trkpt>
      <trkpt lat="42.90785" lon="0.34435">
        <ele>848</ele>
        <time>2020-11-11T13:43:57.000Z</time>
      </trkpt>
      <trkpt lat="42.90777" lon="0.34449">
        <ele>847</ele>
        <time>2020-11-11T13:43:58.000Z</time>
      </trkpt>
      <trkpt lat="42.9077" lon="0.34462">
        <ele>846</ele>
        <time>2020-11-11T13:43:59.000Z</time>
      </trkpt>
      <trkpt lat="42.90762" lon="0.34476">
        <ele>845</ele>
        <time>2020-11-11T13:44:00.000Z</time>
      </trkpt>
      <trkpt lat="42.90755" lon="0.3449">
        <ele>844</ele>
        <time>2020-11-11T13:44:01.000Z</time>
      </trkpt>
      <trkpt lat="42.90748" lon="0.34505">
        <ele>842</ele>
        <time>2020-11-11T13:44:02.000Z</time>
      </trkpt>
      <trkpt lat="42.90741" lon="0.3452">
        <ele>841</ele>
        <time>2020-11-11T13:44:03.000Z</time>
      </trkpt>
      <trkpt lat="42.90735" lon="0.34535">
        <ele>840</ele>
        <time>2020-11-11T13:44:04.000Z</time>
      </trkpt>
      <trkpt lat="42.90729" lon="0.34551">
        <ele>839</ele>
        <time>2020-11-11T13:44:05.000Z</time>
      </trkpt>
      <trkpt lat="42.90725" lon="0.34565">
        <ele>838</ele>
        <time>2020-11-11T13:44:06.000Z</time>
      </trkpt>
      <trkpt lat="42.90722" lon="0.34579">
        <ele>838</ele>
        <time>2020-11-11T13:44:07.000Z</time>
      </trkpt>
      <trkpt lat="42.90719" lon="0.3459">
        <ele>837</ele>
        <time>2020-11-11T13:44:08.000Z</time>
      </trkpt>
      <trkpt lat="42.90716" lon="0.34599">
        <ele>837</ele>
        <time>2020-11-11T13:44:09.000Z</time>
      </trkpt>
      <trkpt lat="42.90713" lon="0.34604">
        <ele>836</ele>
        <time>2020-11-11T13:44:10.000Z</time>
      </trkpt>
      <trkpt lat="42.90709" lon="0.34607">
        <ele>836</ele>
        <time>2020-11-11T13:44:11.000Z</time>
      </trkpt>
      <trkpt lat="42.90706" lon="0.34607">
        <ele>834</ele>
        <time>2020-11-11T13:44:12.000Z</time>
      </trkpt>
      <trkpt lat="42.90702" lon="0.34604">
        <ele>834</ele>
        <time>2020-11-11T13:44:13.000Z</time>
      </trkpt>
      <trkpt lat="42.90698" lon="0.34591">
        <ele>833</ele>
        <time>2020-11-11T13:44:15.000Z</time>
      </trkpt>
      <trkpt lat="42.90696" lon="0.34582">
        <ele>832</ele>
        <time>2020-11-11T13:44:16.000Z</time>
      </trkpt>
      <trkpt lat="42.90695" lon="0.3457">
        <ele>832</ele>
        <time>2020-11-11T13:44:17.000Z</time>
      </trkpt>
      <trkpt lat="42.90695" lon="0.34559">
        <ele>831</ele>
        <time>2020-11-11T13:44:18.000Z</time>
      </trkpt>
      <trkpt lat="42.90694" lon="0.34547">
        <ele>831</ele>
        <time>2020-11-11T13:44:19.000Z</time>
      </trkpt>
      <trkpt lat="42.90694" lon="0.34534">
        <ele>830</ele>
        <time>2020-11-11T13:44:20.000Z</time>
      </trkpt>
      <trkpt lat="42.90695" lon="0.34521">
        <ele>830</ele>
        <time>2020-11-11T13:44:21.000Z</time>
      </trkpt>
      <trkpt lat="42.90696" lon="0.34509">
        <ele>828</ele>
        <time>2020-11-11T13:44:22.000Z</time>
      </trkpt>
      <trkpt lat="42.90697" lon="0.34496">
        <ele>828</ele>
        <time>2020-11-11T13:44:23.000Z</time>
      </trkpt>
      <trkpt lat="42.90699" lon="0.34482">
        <ele>827</ele>
        <time>2020-11-11T13:44:24.000Z</time>
      </trkpt>
      <trkpt lat="42.907" lon="0.34468">
        <ele>826</ele>
        <time>2020-11-11T13:44:25.000Z</time>
      </trkpt>
      <trkpt lat="42.90702" lon="0.34454">
        <ele>825</ele>
        <time>2020-11-11T13:44:26.000Z</time>
      </trkpt>
      <trkpt lat="42.90704" lon="0.3444">
        <ele>824</ele>
        <time>2020-11-11T13:44:27.000Z</time>
      </trkpt>
      <trkpt lat="42.90707" lon="0.34427">
        <ele>823</ele>
        <time>2020-11-11T13:44:28.000Z</time>
      </trkpt>
      <trkpt lat="42.90709" lon="0.34414">
        <ele>823</ele>
        <time>2020-11-11T13:44:29.000Z</time>
      </trkpt>
      <trkpt lat="42.90711" lon="0.34403">
        <ele>822</ele>
        <time>2020-11-11T13:44:30.000Z</time>
      </trkpt>
      <trkpt lat="42.90713" lon="0.34394">
        <ele>822</ele>
        <time>2020-11-11T13:44:31.000Z</time>
      </trkpt>
      <trkpt lat="42.90715" lon="0.34385">
        <ele>821</ele>
        <time>2020-11-11T13:44:32.000Z</time>
      </trkpt>
      <trkpt lat="42.90715" lon="0.34379">
        <ele>821</ele>
        <time>2020-11-11T13:44:33.000Z</time>
      </trkpt>
      <trkpt lat="42.90715" lon="0.34374">
        <ele>819</ele>
        <time>2020-11-11T13:44:34.000Z</time>
      </trkpt>
      <trkpt lat="42.90713" lon="0.3437">
        <ele>819</ele>
        <time>2020-11-11T13:44:35.000Z</time>
      </trkpt>
      <trkpt lat="42.90711" lon="0.34369">
        <ele>818</ele>
        <time>2020-11-11T13:44:36.000Z</time>
      </trkpt>
      <trkpt lat="42.90708" lon="0.3437">
        <ele>818</ele>
        <time>2020-11-11T13:44:37.000Z</time>
      </trkpt>
      <trkpt lat="42.90705" lon="0.34373">
        <ele>817</ele>
        <time>2020-11-11T13:44:38.000Z</time>
      </trkpt>
      <trkpt lat="42.90701" lon="0.34379">
        <ele>817</ele>
        <time>2020-11-11T13:44:39.000Z</time>
      </trkpt>
      <trkpt lat="42.90696" lon="0.34385">
        <ele>815</ele>
        <time>2020-11-11T13:44:40.000Z</time>
      </trkpt>
      <trkpt lat="42.90692" lon="0.34392">
        <ele>815</ele>
        <time>2020-11-11T13:44:41.000Z</time>
      </trkpt>
      <trkpt lat="42.90687" lon="0.34401">
        <ele>814</ele>
        <time>2020-11-11T13:44:42.000Z</time>
      </trkpt>
      <trkpt lat="42.90683" lon="0.34411">
        <ele>813</ele>
        <time>2020-11-11T13:44:43.000Z</time>
      </trkpt>
      <trkpt lat="42.90677" lon="0.34421">
        <ele>812</ele>
        <time>2020-11-11T13:44:44.000Z</time>
      </trkpt>
      <trkpt lat="42.90672" lon="0.34431">
        <ele>811</ele>
        <time>2020-11-11T13:44:45.000Z</time>
      </trkpt>
      <trkpt lat="42.90666" lon="0.34441">
        <ele>810</ele>
        <time>2020-11-11T13:44:46.000Z</time>
      </trkpt>
      <trkpt lat="42.9066" lon="0.34452">
        <ele>809</ele>
        <time>2020-11-11T13:44:47.000Z</time>
      </trkpt>
      <trkpt lat="42.90654" lon="0.34463">
        <ele>809</ele>
        <time>2020-11-11T13:44:48.000Z</time>
      </trkpt>
      <trkpt lat="42.90648" lon="0.34477">
        <ele>807</ele>
        <time>2020-11-11T13:44:49.000Z</time>
      </trkpt>
      <trkpt lat="42.90643" lon="0.34491">
        <ele>806</ele>
        <time>2020-11-11T13:44:50.000Z</time>
      </trkpt>
      <trkpt lat="42.90638" lon="0.34507">
        <ele>805</ele>
        <time>2020-11-11T13:44:51.000Z</time>
      </trkpt>
      <trkpt lat="42.90635" lon="0.34525">
        <ele>804</ele>
        <time>2020-11-11T13:44:52.000Z</time>
      </trkpt>
      <trkpt lat="42.90631" lon="0.34544">
        <ele>803</ele>
        <time>2020-11-11T13:44:53.000Z</time>
      </trkpt>
      <trkpt lat="42.90628" lon="0.34563">
        <ele>802</ele>
        <time>2020-11-11T13:44:54.000Z</time>
      </trkpt>
      <trkpt lat="42.90625" lon="0.34583">
        <ele>800</ele>
        <time>2020-11-11T13:44:55.000Z</time>
      </trkpt>
      <trkpt lat="42.90622" lon="0.34602">
        <ele>799</ele>
        <time>2020-11-11T13:44:56.000Z</time>
      </trkpt>
      <trkpt lat="42.9062" lon="0.34622">
        <ele>798</ele>
        <time>2020-11-11T13:44:57.000Z</time>
      </trkpt>
      <trkpt lat="42.90618" lon="0.34642">
        <ele>797</ele>
        <time>2020-11-11T13:44:58.000Z</time>
      </trkpt>
      <trkpt lat="42.90615" lon="0.34661">
        <ele>796</ele>
        <time>2020-11-11T13:44:59.000Z</time>
      </trkpt>
      <trkpt lat="42.90614" lon="0.3468">
        <ele>795</ele>
        <time>2020-11-11T13:45:00.000Z</time>
      </trkpt>
      <trkpt lat="42.90612" lon="0.34698">
        <ele>794</ele>
        <time>2020-11-11T13:45:01.000Z</time>
      </trkpt>
      <trkpt lat="42.90611" lon="0.34715">
        <ele>792</ele>
        <time>2020-11-11T13:45:02.000Z</time>
      </trkpt>
      <trkpt lat="42.9061" lon="0.34733">
        <ele>792</ele>
        <time>2020-11-11T13:45:03.000Z</time>
      </trkpt>
      <trkpt lat="42.90611" lon="0.3475">
        <ele>791</ele>
        <time>2020-11-11T13:45:04.000Z</time>
      </trkpt>
      <trkpt lat="42.90613" lon="0.34767">
        <ele>790</ele>
        <time>2020-11-11T13:45:05.000Z</time>
      </trkpt>
      <trkpt lat="42.90614" lon="0.34783">
        <ele>789</ele>
        <time>2020-11-11T13:45:06.000Z</time>
      </trkpt>
      <trkpt lat="42.90615" lon="0.34798">
        <ele>788</ele>
        <time>2020-11-11T13:45:07.000Z</time>
      </trkpt>
      <trkpt lat="42.90613" lon="0.34811">
        <ele>788</ele>
        <time>2020-11-11T13:45:08.000Z</time>
      </trkpt>
      <trkpt lat="42.90609" lon="0.34824">
        <ele>786</ele>
        <time>2020-11-11T13:45:09.000Z</time>
      </trkpt>
      <trkpt lat="42.90605" lon="0.34838">
        <ele>786</ele>
        <time>2020-11-11T13:45:10.000Z</time>
      </trkpt>
      <trkpt lat="42.90601" lon="0.34848">
        <ele>785</ele>
        <time>2020-11-11T13:45:11.000Z</time>
      </trkpt>
      <trkpt lat="42.90596" lon="0.34858">
        <ele>784</ele>
        <time>2020-11-11T13:45:12.000Z</time>
      </trkpt>
      <trkpt lat="42.90592" lon="0.34868">
        <ele>783</ele>
        <time>2020-11-11T13:45:13.000Z</time>
      </trkpt>
      <trkpt lat="42.90588" lon="0.3488">
        <ele>782</ele>
        <time>2020-11-11T13:45:14.000Z</time>
      </trkpt>
      <trkpt lat="42.90584" lon="0.34893">
        <ele>781</ele>
        <time>2020-11-11T13:45:15.000Z</time>
      </trkpt>
      <trkpt lat="42.90581" lon="0.34906">
        <ele>780</ele>
        <time>2020-11-11T13:45:16.000Z</time>
      </trkpt>
      <trkpt lat="42.90578" lon="0.34922">
        <ele>779</ele>
        <time>2020-11-11T13:45:17.000Z</time>
      </trkpt>
      <trkpt lat="42.90577" lon="0.34936">
        <ele>777</ele>
        <time>2020-11-11T13:45:18.000Z</time>
      </trkpt>
      <trkpt lat="42.90575" lon="0.34952">
        <ele>776</ele>
        <time>2020-11-11T13:45:19.000Z</time>
      </trkpt>
      <trkpt lat="42.90573" lon="0.34969">
        <ele>775</ele>
        <time>2020-11-11T13:45:20.000Z</time>
      </trkpt>
      <trkpt lat="42.90571" lon="0.34985">
        <ele>774</ele>
        <time>2020-11-11T13:45:21.000Z</time>
      </trkpt>
      <trkpt lat="42.90567" lon="0.35002">
        <ele>772</ele>
        <time>2020-11-11T13:45:22.000Z</time>
      </trkpt>
      <trkpt lat="42.90564" lon="0.3502">
        <ele>771</ele>
        <time>2020-11-11T13:45:23.000Z</time>
      </trkpt>
      <trkpt lat="42.9056" lon="0.35038">
        <ele>769</ele>
        <time>2020-11-11T13:45:24.000Z</time>
      </trkpt>
      <trkpt lat="42.90557" lon="0.35055">
        <ele>768</ele>
        <time>2020-11-11T13:45:25.000Z</time>
      </trkpt>
      <trkpt lat="42.90555" lon="0.35073">
        <ele>767</ele>
        <time>2020-11-11T13:45:26.000Z</time>
      </trkpt>
      <trkpt lat="42.90553" lon="0.3509">
        <ele>766</ele>
        <time>2020-11-11T13:45:27.000Z</time>
      </trkpt>
      <trkpt lat="42.90551" lon="0.35107">
        <ele>765</ele>
        <time>2020-11-11T13:45:28.000Z</time>
      </trkpt>
      <trkpt lat="42.90549" lon="0.35122">
        <ele>765</ele>
        <time>2020-11-11T13:45:29.000Z</time>
      </trkpt>
      <trkpt lat="42.90546" lon="0.35137">
        <ele>764</ele>
        <time>2020-11-11T13:45:30.000Z</time>
      </trkpt>
      <trkpt lat="42.90526" lon="0.35195">
        <ele>760</ele>
        <time>2020-11-11T13:45:33.000Z</time>
      </trkpt>
      <trkpt lat="42.9052" lon="0.3521">
        <ele>759</ele>
        <time>2020-11-11T13:45:34.000Z</time>
      </trkpt>
      <trkpt lat="42.90514" lon="0.35225">
        <ele>758</ele>
        <time>2020-11-11T13:45:35.000Z</time>
      </trkpt>
      <trkpt lat="42.90508" lon="0.35241">
        <ele>756</ele>
        <time>2020-11-11T13:45:36.000Z</time>
      </trkpt>
      <trkpt lat="42.90504" lon="0.35257">
        <ele>754</ele>
        <time>2020-11-11T13:45:37.000Z</time>
      </trkpt>
      <trkpt lat="42.905" lon="0.35274">
        <ele>752</ele>
        <time>2020-11-11T13:45:38.000Z</time>
      </trkpt>
      <trkpt lat="42.90497" lon="0.35292">
        <ele>751</ele>
        <time>2020-11-11T13:45:39.000Z</time>
      </trkpt>
      <trkpt lat="42.90494" lon="0.3531">
        <ele>750</ele>
        <time>2020-11-11T13:45:40.000Z</time>
      </trkpt>
      <trkpt lat="42.90491" lon="0.35328">
        <ele>748</ele>
        <time>2020-11-11T13:45:41.000Z</time>
      </trkpt>
      <trkpt lat="42.90488" lon="0.35346">
        <ele>747</ele>
        <time>2020-11-11T13:45:42.000Z</time>
      </trkpt>
      <trkpt lat="42.90484" lon="0.35364">
        <ele>746</ele>
        <time>2020-11-11T13:45:43.000Z</time>
      </trkpt>
      <trkpt lat="42.90481" lon="0.35382">
        <ele>745</ele>
        <time>2020-11-11T13:45:44.000Z</time>
      </trkpt>
      <trkpt lat="42.90478" lon="0.354">
        <ele>744</ele>
        <time>2020-11-11T13:45:45.000Z</time>
      </trkpt>
      <trkpt lat="42.90474" lon="0.35417">
        <ele>743</ele>
        <time>2020-11-11T13:45:46.000Z</time>
      </trkpt>
      <trkpt lat="42.90471" lon="0.35433">
        <ele>742</ele>
        <time>2020-11-11T13:45:47.000Z</time>
      </trkpt>
      <trkpt lat="42.90468" lon="0.35449">
        <ele>741</ele>
        <time>2020-11-11T13:45:48.000Z</time>
      </trkpt>
      <trkpt lat="42.90466" lon="0.35463">
        <ele>740</ele>
        <time>2020-11-11T13:45:49.000Z</time>
      </trkpt>
      <trkpt lat="42.90463" lon="0.35477">
        <ele>740</ele>
        <time>2020-11-11T13:45:50.000Z</time>
      </trkpt>
      <trkpt lat="42.9046" lon="0.35488">
        <ele>738</ele>
        <time>2020-11-11T13:45:51.000Z</time>
      </trkpt>
      <trkpt lat="42.90457" lon="0.35496">
        <ele>738</ele>
        <time>2020-11-11T13:45:52.000Z</time>
      </trkpt>
      <trkpt lat="42.90453" lon="0.35503">
        <ele>737</ele>
        <time>2020-11-11T13:45:53.000Z</time>
      </trkpt>
      <trkpt lat="42.90449" lon="0.3551">
        <ele>737</ele>
        <time>2020-11-11T13:45:54.000Z</time>
      </trkpt>
      <trkpt lat="42.90444" lon="0.35515">
        <ele>736</ele>
        <time>2020-11-11T13:45:55.000Z</time>
      </trkpt>
      <trkpt lat="42.90438" lon="0.3552">
        <ele>736</ele>
        <time>2020-11-11T13:45:56.000Z</time>
      </trkpt>
      <trkpt lat="42.90432" lon="0.35525">
        <ele>735</ele>
        <time>2020-11-11T13:45:57.000Z</time>
      </trkpt>
      <trkpt lat="42.90427" lon="0.35529">
        <ele>735</ele>
        <time>2020-11-11T13:45:58.000Z</time>
      </trkpt>
      <trkpt lat="42.90422" lon="0.35532">
        <ele>735</ele>
        <time>2020-11-11T13:45:59.000Z</time>
      </trkpt>
      <trkpt lat="42.90418" lon="0.35534">
        <ele>734</ele>
        <time>2020-11-11T13:46:00.000Z</time>
      </trkpt>
      <trkpt lat="42.90415" lon="0.35537">
        <ele>734</ele>
        <time>2020-11-11T13:46:01.000Z</time>
      </trkpt>
      <trkpt lat="42.90412" lon="0.35539">
        <ele>734</ele>
        <time>2020-11-11T13:46:02.000Z</time>
      </trkpt>
      <trkpt lat="42.90411" lon="0.35541">
        <ele>734</ele>
        <time>2020-11-11T13:46:03.000Z</time>
      </trkpt>
      <trkpt lat="42.9041" lon="0.35544">
        <ele>734</ele>
        <time>2020-11-11T13:46:04.000Z</time>
      </trkpt>
      <trkpt lat="42.9041" lon="0.35547">
        <ele>733</ele>
        <time>2020-11-11T13:46:05.000Z</time>
      </trkpt>
      <trkpt lat="42.90411" lon="0.35551">
        <ele>733</ele>
        <time>2020-11-11T13:46:06.000Z</time>
      </trkpt>
      <trkpt lat="42.90413" lon="0.35555">
        <ele>733</ele>
        <time>2020-11-11T13:46:07.000Z</time>
      </trkpt>
      <trkpt lat="42.90416" lon="0.35559">
        <ele>733</ele>
        <time>2020-11-11T13:46:08.000Z</time>
      </trkpt>
      <trkpt lat="42.90419" lon="0.35563">
        <ele>733</ele>
        <time>2020-11-11T13:46:09.000Z</time>
      </trkpt>
      <trkpt lat="42.90423" lon="0.35568">
        <ele>732</ele>
        <time>2020-11-11T13:46:10.000Z</time>
      </trkpt>
      <trkpt lat="42.90427" lon="0.35573">
        <ele>732</ele>
        <time>2020-11-11T13:46:11.000Z</time>
      </trkpt>
      <trkpt lat="42.9043" lon="0.35579">
        <ele>732</ele>
        <time>2020-11-11T13:46:12.000Z</time>
      </trkpt>
      <trkpt lat="42.90434" lon="0.35585">
        <ele>732</ele>
        <time>2020-11-11T13:46:13.000Z</time>
      </trkpt>
      <trkpt lat="42.90438" lon="0.35591">
        <ele>732</ele>
        <time>2020-11-11T13:46:14.000Z</time>
      </trkpt>
      <trkpt lat="42.90443" lon="0.35597">
        <ele>732</ele>
        <time>2020-11-11T13:46:15.000Z</time>
      </trkpt>
      <trkpt lat="42.90447" lon="0.35604">
        <ele>732</ele>
        <time>2020-11-11T13:46:16.000Z</time>
      </trkpt>
      <trkpt lat="42.90453" lon="0.3561">
        <ele>732</ele>
        <time>2020-11-11T13:46:17.000Z</time>
      </trkpt>
      <trkpt lat="42.90458" lon="0.35617">
        <ele>732</ele>
        <time>2020-11-11T13:46:18.000Z</time>
      </trkpt>
      <trkpt lat="42.90463" lon="0.35624">
        <ele>732</ele>
        <time>2020-11-11T13:46:19.000Z</time>
      </trkpt>
      <trkpt lat="42.90469" lon="0.35631">
        <ele>732</ele>
        <time>2020-11-11T13:46:20.000Z</time>
      </trkpt>
      <trkpt lat="42.90474" lon="0.35638">
        <ele>731</ele>
        <time>2020-11-11T13:46:21.000Z</time>
      </trkpt>
      <trkpt lat="42.9048" lon="0.35645">
        <ele>731</ele>
        <time>2020-11-11T13:46:22.000Z</time>
      </trkpt>
      <trkpt lat="42.90486" lon="0.35651">
        <ele>731</ele>
        <time>2020-11-11T13:46:23.000Z</time>
      </trkpt>
      <trkpt lat="42.90491" lon="0.35658">
        <ele>730</ele>
        <time>2020-11-11T13:46:24.000Z</time>
      </trkpt>
      <trkpt lat="42.90497" lon="0.35664">
        <ele>730</ele>
        <time>2020-11-11T13:46:25.000Z</time>
      </trkpt>
      <trkpt lat="42.90503" lon="0.35671">
        <ele>729</ele>
        <time>2020-11-11T13:46:26.000Z</time>
      </trkpt>
      <trkpt lat="42.90508" lon="0.35677">
        <ele>729</ele>
        <time>2020-11-11T13:46:27.000Z</time>
      </trkpt>
      <trkpt lat="42.90514" lon="0.35684">
        <ele>729</ele>
        <time>2020-11-11T13:46:28.000Z</time>
      </trkpt>
      <trkpt lat="42.9052" lon="0.3569">
        <ele>728</ele>
        <time>2020-11-11T13:46:29.000Z</time>
      </trkpt>
      <trkpt lat="42.90526" lon="0.35697">
        <ele>728</ele>
        <time>2020-11-11T13:46:30.000Z</time>
      </trkpt>
      <trkpt lat="42.90532" lon="0.35703">
        <ele>728</ele>
        <time>2020-11-11T13:46:31.000Z</time>
      </trkpt>
      <trkpt lat="42.90537" lon="0.35708">
        <ele>728</ele>
        <time>2020-11-11T13:46:32.000Z</time>
      </trkpt>
      <trkpt lat="42.90543" lon="0.35714">
        <ele>727</ele>
        <time>2020-11-11T13:46:33.000Z</time>
      </trkpt>
      <trkpt lat="42.90548" lon="0.35721">
        <ele>727</ele>
        <time>2020-11-11T13:46:34.000Z</time>
      </trkpt>
      <trkpt lat="42.90553" lon="0.35726">
        <ele>727</ele>
        <time>2020-11-11T13:46:35.000Z</time>
      </trkpt>
      <trkpt lat="42.90559" lon="0.35732">
        <ele>726</ele>
        <time>2020-11-11T13:46:36.000Z</time>
      </trkpt>
      <trkpt lat="42.90564" lon="0.35737">
        <ele>726</ele>
        <time>2020-11-11T13:46:37.000Z</time>
      </trkpt>
      <trkpt lat="42.90569" lon="0.35742">
        <ele>726</ele>
        <time>2020-11-11T13:46:38.000Z</time>
      </trkpt>
      <trkpt lat="42.90575" lon="0.35747">
        <ele>726</ele>
        <time>2020-11-11T13:46:39.000Z</time>
      </trkpt>
      <trkpt lat="42.90581" lon="0.35751">
        <ele>726</ele>
        <time>2020-11-11T13:46:40.000Z</time>
      </trkpt>
      <trkpt lat="42.90587" lon="0.35754">
        <ele>725</ele>
        <time>2020-11-11T13:46:41.000Z</time>
      </trkpt>
      <trkpt lat="42.90593" lon="0.35757">
        <ele>725</ele>
        <time>2020-11-11T13:46:42.000Z</time>
      </trkpt>
      <trkpt lat="42.906" lon="0.35759">
        <ele>725</ele>
        <time>2020-11-11T13:46:43.000Z</time>
      </trkpt>
      <trkpt lat="42.90607" lon="0.3576">
        <ele>725</ele>
        <time>2020-11-11T13:46:44.000Z</time>
      </trkpt>
      <trkpt lat="42.90613" lon="0.3576">
        <ele>725</ele>
        <time>2020-11-11T13:46:45.000Z</time>
      </trkpt>
      <trkpt lat="42.9062" lon="0.3576">
        <ele>725</ele>
        <time>2020-11-11T13:46:46.000Z</time>
      </trkpt>
      <trkpt lat="42.90627" lon="0.35759">
        <ele>724</ele>
        <time>2020-11-11T13:46:47.000Z</time>
      </trkpt>
      <trkpt lat="42.90635" lon="0.35758">
        <ele>724</ele>
        <time>2020-11-11T13:46:48.000Z</time>
      </trkpt>
      <trkpt lat="42.90642" lon="0.35757">
        <ele>724</ele>
        <time>2020-11-11T13:46:49.000Z</time>
      </trkpt>
      <trkpt lat="42.90689" lon="0.35749">
        <ele>723</ele>
        <time>2020-11-11T13:46:54.000Z</time>
      </trkpt>
      <trkpt lat="42.90691" lon="0.35749">
        <ele>723</ele>
        <time>2020-11-11T13:46:55.000Z</time>
      </trkpt>
      <trkpt lat="42.90694" lon="0.3575">
        <ele>723</ele>
        <time>2020-11-11T13:46:56.000Z</time>
      </trkpt>
      <trkpt lat="42.90698" lon="0.35752">
        <ele>723</ele>
        <time>2020-11-11T13:46:57.000Z</time>
      </trkpt>
      <trkpt lat="42.90702" lon="0.35755">
        <ele>723</ele>
        <time>2020-11-11T13:46:58.000Z</time>
      </trkpt>
      <trkpt lat="42.90707" lon="0.35759">
        <ele>723</ele>
        <time>2020-11-11T13:46:59.000Z</time>
      </trkpt>
      <trkpt lat="42.90713" lon="0.35764">
        <ele>723</ele>
        <time>2020-11-11T13:47:00.000Z</time>
      </trkpt>
      <trkpt lat="42.90718" lon="0.35769">
        <ele>723</ele>
        <time>2020-11-11T13:47:01.000Z</time>
      </trkpt>
      <trkpt lat="42.90724" lon="0.35774">
        <ele>723</ele>
        <time>2020-11-11T13:47:02.000Z</time>
      </trkpt>
      <trkpt lat="42.9073" lon="0.3578">
        <ele>723</ele>
        <time>2020-11-11T13:47:03.000Z</time>
      </trkpt>
      <trkpt lat="42.90735" lon="0.35785">
        <ele>723</ele>
        <time>2020-11-11T13:47:04.000Z</time>
      </trkpt>
      <trkpt lat="42.90741" lon="0.35791">
        <ele>723</ele>
        <time>2020-11-11T13:47:05.000Z</time>
      </trkpt>
      <trkpt lat="42.90747" lon="0.35796">
        <ele>722</ele>
        <time>2020-11-11T13:47:06.000Z</time>
      </trkpt>
      <trkpt lat="42.90754" lon="0.35802">
        <ele>722</ele>
        <time>2020-11-11T13:47:07.000Z</time>
      </trkpt>
      <trkpt lat="42.9076" lon="0.35807">
        <ele>722</ele>
        <time>2020-11-11T13:47:08.000Z</time>
      </trkpt>
      <trkpt lat="42.90766" lon="0.35813">
        <ele>722</ele>
        <time>2020-11-11T13:47:09.000Z</time>
      </trkpt>
      <trkpt lat="42.90773" lon="0.35819">
        <ele>721</ele>
        <time>2020-11-11T13:47:10.000Z</time>
      </trkpt>
      <trkpt lat="42.90779" lon="0.35824">
        <ele>721</ele>
        <time>2020-11-11T13:47:11.000Z</time>
      </trkpt>
      <trkpt lat="42.90786" lon="0.3583">
        <ele>721</ele>
        <time>2020-11-11T13:47:12.000Z</time>
      </trkpt>
      <trkpt lat="42.90792" lon="0.35836">
        <ele>721</ele>
        <time>2020-11-11T13:47:13.000Z</time>
      </trkpt>
      <trkpt lat="42.90798" lon="0.35842">
        <ele>721</ele>
        <time>2020-11-11T13:47:14.000Z</time>
      </trkpt>
      <trkpt lat="42.90804" lon="0.35848">
        <ele>721</ele>
        <time>2020-11-11T13:47:15.000Z</time>
      </trkpt>
      <trkpt lat="42.9081" lon="0.35855">
        <ele>721</ele>
        <time>2020-11-11T13:47:16.000Z</time>
      </trkpt>
      <trkpt lat="42.90816" lon="0.35861">
        <ele>721</ele>
        <time>2020-11-11T13:47:17.000Z</time>
      </trkpt>
      <trkpt lat="42.90822" lon="0.35868">
        <ele>721</ele>
        <time>2020-11-11T13:47:18.000Z</time>
      </trkpt>
      <trkpt lat="42.90828" lon="0.35875">
        <ele>721</ele>
        <time>2020-11-11T13:47:19.000Z</time>
      </trkpt>
      <trkpt lat="42.90833" lon="0.35881">
        <ele>721</ele>
        <time>2020-11-11T13:47:20.000Z</time>
      </trkpt>
      <trkpt lat="42.90839" lon="0.35888">
        <ele>721</ele>
        <time>2020-11-11T13:47:21.000Z</time>
      </trkpt>
      <trkpt lat="42.90845" lon="0.35895">
        <ele>721</ele>
        <time>2020-11-11T13:47:22.000Z</time>
      </trkpt>
      <trkpt lat="42.9085" lon="0.35901">
        <ele>721</ele>
        <time>2020-11-11T13:47:23.000Z</time>
      </trkpt>
      <trkpt lat="42.90856" lon="0.35908">
        <ele>721</ele>
        <time>2020-11-11T13:47:24.000Z</time>
      </trkpt>
      <trkpt lat="42.90862" lon="0.35914">
        <ele>721</ele>
        <time>2020-11-11T13:47:25.000Z</time>
      </trkpt>
      <trkpt lat="42.90868" lon="0.35919">
        <ele>721</ele>
        <time>2020-11-11T13:47:26.000Z</time>
      </trkpt>
      <trkpt lat="42.90874" lon="0.35925">
        <ele>721</ele>
        <time>2020-11-11T13:47:27.000Z</time>
      </trkpt>
      <trkpt lat="42.9088" lon="0.35931">
        <ele>721</ele>
        <time>2020-11-11T13:47:28.000Z</time>
      </trkpt>
      <trkpt lat="42.90886" lon="0.35937">
        <ele>721</ele>
        <time>2020-11-11T13:47:29.000Z</time>
      </trkpt>
      <trkpt lat="42.90891" lon="0.35943">
        <ele>721</ele>
        <time>2020-11-11T13:47:30.000Z</time>
      </trkpt>
      <trkpt lat="42.90897" lon="0.3595">
        <ele>721</ele>
        <time>2020-11-11T13:47:31.000Z</time>
      </trkpt>
      <trkpt lat="42.90901" lon="0.35956">
        <ele>721</ele>
        <time>2020-11-11T13:47:32.000Z</time>
      </trkpt>
      <trkpt lat="42.90906" lon="0.35963">
        <ele>721</ele>
        <time>2020-11-11T13:47:33.000Z</time>
      </trkpt>
      <trkpt lat="42.90911" lon="0.35969">
        <ele>721</ele>
        <time>2020-11-11T13:47:34.000Z</time>
      </trkpt>
      <trkpt lat="42.90915" lon="0.35975">
        <ele>721</ele>
        <time>2020-11-11T13:47:35.000Z</time>
      </trkpt>
      <trkpt lat="42.90919" lon="0.35982">
        <ele>721</ele>
        <time>2020-11-11T13:47:36.000Z</time>
      </trkpt>
      <trkpt lat="42.90924" lon="0.35988">
        <ele>721</ele>
        <time>2020-11-11T13:47:37.000Z</time>
      </trkpt>
      <trkpt lat="42.90928" lon="0.35993">
        <ele>721</ele>
        <time>2020-11-11T13:47:38.000Z</time>
      </trkpt>
      <trkpt lat="42.90932" lon="0.35998">
        <ele>721</ele>
        <time>2020-11-11T13:47:39.000Z</time>
      </trkpt>
      <trkpt lat="42.90936" lon="0.36003">
        <ele>721</ele>
        <time>2020-11-11T13:47:40.000Z</time>
      </trkpt>
      <trkpt lat="42.90973" lon="0.3602">
        <ele>721</ele>
        <time>2020-11-11T13:47:50.000Z</time>
      </trkpt>
      <trkpt lat="42.90974" lon="0.3602">
        <ele>721</ele>
        <time>2020-11-11T13:47:51.000Z</time>
      </trkpt>
      <trkpt lat="42.90974" lon="0.36021">
        <ele>721</ele>
        <time>2020-11-11T13:47:52.000Z</time>
      </trkpt>
      <trkpt lat="42.90975" lon="0.36021">
        <ele>721</ele>
        <time>2020-11-11T13:47:53.000Z</time>
      </trkpt>
      <trkpt lat="42.90975" lon="0.36021">
        <ele>721</ele>
        <time>2020-11-11T13:47:54.000Z</time>
      </trkpt>
      <trkpt lat="42.90975" lon="0.36021">
        <ele>721</ele>
        <time>2020-11-11T13:47:55.000Z</time>
      </trkpt>
      <trkpt lat="42.90975" lon="0.36021">
        <ele>721</ele>
        <time>2020-11-11T13:47:56.000Z</time>
      </trkpt>
      <trkpt lat="42.90975" lon="0.36022">
        <ele>721</ele>
        <time>2020-11-11T13:47:57.000Z</time>
      </trkpt>
      <trkpt lat="42.90975" lon="0.36021">
        <ele>721</ele>
        <time>2020-11-11T13:47:58.000Z</time>
      </trkpt>
      <trkpt lat="42.90975" lon="0.36021">
        <ele>721</ele>
        <time>2020-11-11T13:47:59.000Z</time>
      </trkpt>
      <trkpt lat="42.90975" lon="0.36021">
        <ele>721</ele>
        <time>2020-11-11T13:48:00.000Z</time>
      </trkpt>
      <trkpt lat="42.90974" lon="0.36021">
        <ele>721</ele>
        <time>2020-11-11T13:48:01.000Z</time>
      </trkpt>
    </trkseg>
  </trk>
</gpx>